[[{"header":{"parameterUnit":"m.s-1","parameterCategory":1,"la1":30.6,"la2":28.766,"lo1":-90.7593,"lo2":-88.6598,"dy":0.0162,"dx":0.0183,"nx":116,"ny":114,"refTime":"2023-06-22T12:00:00:Z","depth":0,"parameterNumber":2,"parameterNumberName":"U-component_of_WINDS"},"data":[0.0,0.0,0.0,0.0,0.0,0.0,0.0,0.0,0.0,0.0,0.0,0.0,0.0,0.0,0.0,0.0,0.0,0.0,0.0,0.0,0.0,0.0,0.0,0.0,0.0,0.0,0.0,0.0,0.0,0.0,0.0,0.0,0.0,0.0,0.0,0.0,0.0,0.0,0.0,0.0,0.0,0.0,0.0,0.0,0.0,0.0,0.0,0.0,0.0,0.0,0.0,0.0,0.0,0.0,0.0,0.0,0.0,0.0,0.0,0.0,0.0,0.0,0.0,0.0,0.0,0.0,0.0,0.0,0.0,0.0,0.0,0.0,0.0,0.0,0.0,0.0,0.0,0.0,0.0,0.0,0.0,0.0,0.0,0.0,0.0,0.0,0.0,0.0,0.0,0.0,0.0,0.0,0.0,0.0,0.0,0.0,0.0,0.0,0.0,0.0,0.0,0.0,0.0,0.0,0.0,0.0,0.0,0.0,0.0,0.0,0.0,0.0,0.0,0.0,0.0,0.0,0.0,0.0,0.0,0.0,0.0,0.0,0.0,0.0,0.0,0.0,0.0,0.0,0.0,0.0,0.0,0.0,0.0,0.0,0.0,0.0,0.0,0.0,0.0,0.0,0.0,0.0,0.0,0.0,0.0,0.0,0.0,0.0,0.0,0.0,0.0,0.0,0.0,0.0,0.0,0.0,0.0,0.0,0.0,0.0,0.0,0.0,0.0,0.0,0.0,0.0,0.0,0.0,0.0,0.0,0.0,0.0,0.0,0.0,0.0,0.0,0.0,0.0,0.0,0.0,0.0,0.0,0.0,0.0,0.0,0.0,0.0,0.0,0.0,0.0,0.0,0.0,0.0,0.0,0.0,0.0,0.0,0.0,0.0,0.0,0.0,0.0,0.0,0.0,0.0,0.0,0.0,0.0,0.0,0.0,0.0,0.0,0.0,0.0,0.0,0.0,0.0,0.0,0.0,0.0,0.0,0.0,0.0,0.0,0.0,0.0,0.0,0.0,0.0,0.0,0.0,0.0,0.0,0.0,0.0,0.0,0.0,0.0,0.0,0.0,0.0,0.0,0.0,0.0,0.0,0.0,0.0,0.0,0.0,0.0,0.0,0.0,0.0,0.0,0.0,0.0,0.0,0.0,0.0,0.0,0.0,0.0,0.0,0.0,0.0,0.0,0.0,0.0,0.0,0.0,0.0,0.0,0.0,0.0,0.0,0.0,0.0,0.0,0.0,0.0,0.0,0.0,0.0,0.0,0.0,0.0,0.0,0.0,0.0,0.0,0.0,0.0,0.0,0.0,0.0,0.0,0.0,0.0,0.0,0.0,0.0,0.0,0.0,0.0,0.0,0.0,0.0,0.0,0.0,0.0,0.0,0.0,0.0,0.0,0.0,0.0,0.0,0.0,0.0,0.0,0.0,0.0,0.0,0.0,0.0,0.0,0.0,0.0,0.0,0.0,0.0,0.0,0.0,0.0,0.0,0.0,0.0,0.0,0.0,0.0,0.0,0.0,0.0,0.0,0.0,0.0,0.0,0.0,0.0,0.0,0.0,0.0,0.0,0.0,0.0,0.0,0.0,0.0,0.0,0.0,0.0,0.0,0.0,0.0,0.0,0.0,0.0,0.0,0.0,0.0,0.0,0.0,0.0,0.0,0.0,0.0,0.0,0.0,0.0,0.0,0.0,0.0,0.0,0.0,0.0,0.0,0.0,0.0,0.0,0.0,0.0,0.0,0.0,0.0,0.0,0.0,0.0,0.0,0.0,0.0,0.0,0.0,0.0,0.0,0.0,0.0,0.0,0.0,0.0,0.0,0.0,0.0,0.0,0.0,0.0,0.0,0.0,0.0,0.0,0.0,0.0,0.0,0.0,0.0,0.0,0.0,0.0,0.0,0.0,0.0,0.0,0.0,0.0,0.0,0.0,0.0,0.0,0.0,0.0,0.0,0.0,0.0,0.0,0.0,0.0,0.0,0.0,0.0,0.0,0.0,0.0,0.0,0.0,0.0,0.0,0.0,0.0,0.0,0.0,0.0,0.0,0.0,0.0,0.0,0.0,0.0,0.0,0.0,0.0,0.0,0.0,0.0,0.0,0.0,0.0,0.0,0.0,0.0,0.0,0.0,0.0,0.0,0.0,0.0,0.0,0.0,0.0,0.0,0.0,0.0,0.0,0.0,0.0,0.0,0.0,0.0,0.0,0.0,0.0,0.0,0.0,0.0,0.0,0.0,0.0,0.0,0.0,0.0,0.0,0.0,0.0,0.0,0.0,0.0,0.0,0.0,0.0,0.0,0.0,0.0,0.0,0.0,0.0,0.0,0.0,0.0,0.0,0.0,0.0,0.0,0.0,0.0,0.0,0.0,0.0,0.0,0.0,0.0,0.0,0.0,0.0,0.0,0.0,0.0,0.0,0.0,0.0,0.0,0.0,0.0,0.0,0.0,0.0,0.0,0.0,0.0,0.0,0.0,0.0,0.0,0.0,0.0,0.0,0.0,0.0,0.0,0.0,0.0,0.0,0.0,0.0,0.0,0.0,0.0,0.0,0.0,0.0,0.0,0.0,0.0,0.0,0.0,0.0,0.0,0.0,0.0,0.0,0.0,0.0,0.0,0.0,0.0,0.0,0.0,0.0,0.0,0.0,0.0,0.0,0.0,0.0,0.0,0.0,0.0,0.0,0.0,0.0,0.0,0.0,0.0,0.0,0.0,0.0,0.0,0.0,0.0,0.0,0.0,0.0,0.0,0.0,0.0,0.0,0.0,0.0,0.0,0.0,0.0,0.0,0.0,0.0,0.0,0.0,0.0,0.0,0.0,0.0,0.0,0.0,0.0,0.0,0.0,0.0,0.0,0.0,0.0,0.0,0.0,0.0,0.0,0.0,0.0,0.0,0.0,0.0,0.0,0.0,0.0,0.0,0.0,0.0,0.0,0.0,0.0,0.0,0.0,0.0,0.0,0.0,0.0,0.0,0.0,0.0,0.0,0.0,0.0,0.0,0.0,0.0,0.0,0.0,0.0,0.0,0.0,0.0,0.0,0.0,0.0,0.0,0.0,0.0,0.0,0.0,0.0,0.0,0.0,0.0,0.0,0.0,0.0,0.0,0.0,0.0,0.0,0.0,0.0,0.0,0.0,0.0,0.0,0.0,0.0,0.0,0.0,0.0,0.0,0.0,0.0,0.0,0.0,0.0,0.0,0.0,0.0,0.0,0.0,0.0,0.0,0.0,0.0,0.0,0.0,0.0,0.0,0.0,0.0,0.0,0.0,0.0,0.0,0.0,0.0,0.0,0.0,0.0,0.0,0.0,0.0,0.0,0.0,0.0,0.0,0.0,0.0,0.0,0.0,0.0,0.0,0.0,0.0,0.0,0.0,0.0,0.0,0.0,0.0,0.0,0.0,0.0,0.0,0.0,0.0,0.0,0.0,0.0,0.0,0.0,0.0,0.0,0.0,0.0,0.0,0.0,0.0,0.0,0.0,0.0,0.0,0.0,0.0,0.0,0.0,0.0,0.0,0.0,0.0,0.0,0.0,0.0,0.0,0.0,0.0,0.0,0.0,0.0,0.0,0.0,0.0,0.0,0.0,0.0,0.0,0.0,0.0,0.0,0.0,0.0,0.0,0.0,0.0,0.0,0.0,0.0,0.0,0.0,0.0,0.0,0.0,0.0,0.0,0.0,0.0,0.0,0.0,0.0,0.0,0.0,0.0,0.0,0.0,0.0,0.0,0.0,0.0,0.0,0.0,0.0,0.0,0.0,0.0,0.0,0.0,0.0,0.0,0.0,0.0,0.0,0.0,0.0,0.0,0.0,0.0,0.0,0.0,0.0,0.0,0.0,0.0,0.0,0.0,0.0,0.0,0.0,0.0,0.0,0.0,0.0,0.0,0.0,0.0,0.0,0.0,0.0,0.0,0.0,0.0,0.0,0.0,0.0,0.0,0.0,0.0,0.0,0.0,0.0,0.0,0.0,0.0,0.0,0.0,0.0,0.0,0.0,0.0,0.0,0.0,0.0,0.0,0.0,0.0,0.0,0.0,0.0,0.0,0.0,0.0,0.0,0.0,0.0,0.0,0.0,0.0,0.0,0.0,0.0,0.0,0.0,0.0,0.0,0.0,0.0,0.0,0.0,0.0,0.0,0.0,0.0,0.0,0.0,0.0,0.0,0.0,0.0,0.0,0.0,0.0,0.0,0.0,0.0,0.0,0.0,0.0,0.0,0.0,0.0,0.0,0.0,0.0,0.0,0.0,0.0,0.0,0.0,0.0,0.0,0.0,0.0,0.0,0.0,0.0,0.0,0.0,0.0,0.0,0.0,0.0,0.0,0.0,0.0,0.0,0.0,0.0,0.0,0.0,0.0,0.0,0.0,0.0,0.0,0.0,0.0,0.0,0.0,0.0,0.0,0.0,0.0,0.0,0.0,0.0,0.0,0.0,0.0,0.0,0.0,0.0,0.0,0.0,0.0,0.0,0.0,0.0,0.0,0.0,0.0,0.0,0.0,0.0,0.0,0.0,0.0,0.0,0.0,0.0,0.0,0.0,0.0,0.0,0.0,0.0,0.0,0.0,0.0,0.0,0.0,0.0,0.0,0.0,0.0,0.0,0.0,0.0,0.0,0.0,0.0,0.0,0.0,0.0,0.0,0.0,0.0,0.0,0.0,0.0,0.0,0.0,0.0,0.0,0.0,0.0,0.0,0.0,0.0,0.0,0.0,0.0,0.0,0.0,0.0,0.0,0.0,0.0,0.0,0.0,0.0,0.0,0.0,0.0,0.0,0.0,0.0,0.0,0.0,0.0,0.0,0.0,0.0,0.0,0.0,0.0,0.0,0.0,0.0,0.0,0.0,0.0,0.0,0.0,0.0,0.0,0.0,0.0,0.0,0.0,0.0,0.0,0.0,0.0,0.0,0.0,0.0,0.0,0.0,0.0,0.0,0.0,0.0,0.0,0.0,0.0,0.0,0.0,0.0,0.0,0.0,0.0,0.0,0.0,0.0,0.0,0.0,0.0,0.0,0.0,0.0,0.0,0.0,0.0,0.0,0.0,0.0,0.0,0.0,0.0,0.0,0.0,0.0,0.0,0.0,0.0,0.0,0.0,0.0,0.0,0.0,0.0,0.0,0.0,0.0,0.0,0.0,0.0,0.0,0.0,0.0,0.0,0.0,0.0,0.0,0.0,0.0,0.0,0.0,0.0,0.0,0.0,0.0,0.0,0.0,0.0,0.0,0.0,0.0,0.0,0.0,0.0,0.0,0.0,0.0,0.0,0.0,0.0,0.0,0.0,0.0,0.0,0.0,0.0,0.0,0.0,0.0,0.0,0.0,0.0,0.0,0.0,0.0,0.0,0.0,0.0,0.0,0.0,0.0,0.0,0.0,0.0,0.0,0.0,0.0,0.0,0.0,0.0,0.0,0.0,0.0,0.0,0.0,0.0,0.0,0.0,0.0,0.0,0.0,0.0,0.0,0.0,0.0,0.0,0.0,0.0,0.0,0.0,0.0,0.0,0.0,0.0,0.0,0.0,0.0,0.0,0.0,0.0,0.0,0.0,0.0,0.0,0.0,0.0,0.0,0.0,0.0,0.0,0.0,0.0,0.0,0.0,0.0,0.0,0.0,0.0,0.0,0.0,0.0,0.0,0.0,0.0,0.0,0.0,0.0,0.0,0.0,0.0,0.0,0.0,0.0,0.0,0.0,0.0,0.0,0.0,0.0,0.0,0.0,0.0,0.0,0.0,0.0,0.0,0.0,0.0,0.0,0.0,0.0,0.0,0.0,0.0,0.0,0.0,0.0,0.0,0.0,0.0,0.0,0.0,0.0,0.0,0.0,0.0,0.0,0.0,0.0,0.0,0.0,0.0,0.0,0.0,0.0,0.0,0.0,0.0,0.0,0.0,0.0,0.0,0.0,0.0,0.0,0.0,0.0,0.0,0.0,0.0,0.0,0.0,0.0,0.0,0.0,0.0,0.0,0.0,0.0,0.0,0.0,0.0,0.0,0.0,0.0,0.0,0.0,0.0,0.0,0.0,0.0,0.0,0.0,0.0,0.0,0.0,0.0,0.0,0.0,0.0,0.0,0.0,0.0,0.0,0.0,0.0,0.0,0.0,-0.3951,-0.3951,0.0,0.0,0.0,0.0,0.0,0.0,0.0,0.0,0.0,0.0,0.0,0.0,0.0,0.0,0.0,0.0,0.0,0.0,0.0,0.0,0.0,0.0,0.0,0.0,0.0,0.0,0.0,0.0,0.0,0.0,0.0,0.0,0.0,0.0,0.0,0.0,0.0,0.0,0.0,0.0,0.0,0.0,0.0,0.0,0.0,0.0,0.0,0.0,0.0,0.0,0.0,0.0,0.0,0.0,0.0,0.0,0.0,0.0,0.0,0.0,0.0,0.0,0.0,0.0,0.0,0.0,0.0,0.0,0.0,0.0,0.0,0.0,0.0,0.0,0.0,0.0,0.0,0.0,0.0,0.0,0.0,0.0,0.0,0.0,0.0,0.0,0.0,0.0,0.0,0.0,0.0,0.0,0.0,0.0,0.0,0.0,0.0,0.0,0.0,0.0,0.0,0.0,0.0,0.0,0.0,0.0,0.0,0.0,0.0,0.0,0.0,0.0,0.0,0.0,-0.3951,-0.3951,0.0,0.0,0.0,0.0,0.0,0.0,0.0,0.0,0.0,0.0,0.0,0.0,0.0,0.0,0.0,0.0,0.0,0.0,0.0,0.0,0.0,0.0,0.0,0.0,0.0,0.0,0.0,0.0,0.0,0.0,0.0,0.0,0.0,0.0,0.0,0.0,0.0,0.0,0.0,0.0,0.0,0.0,0.0,0.0,0.0,0.0,0.0,0.0,0.0,0.0,0.0,0.0,0.0,0.0,0.0,0.0,0.0,0.0,0.0,0.0,0.0,0.0,0.0,0.0,0.0,0.0,0.0,0.0,0.0,0.0,0.0,0.0,0.0,0.0,0.0,0.0,0.0,0.0,0.0,0.0,0.0,0.0,0.0,0.0,0.0,0.0,0.0,0.0,0.0,0.0,0.0,0.0,0.0,0.0,0.0,0.0,0.0,0.0,0.0,0.0,0.0,0.0,0.0,0.0,0.0,0.0,0.0,0.0,-0.3951,-0.3951,-0.3951,-0.3951,-0.3956,-0.3965,-0.3965,-0.3959,-0.3951,-0.3951,0.0,0.0,0.0,0.0,0.0,0.0,0.0,0.0,0.0,0.0,0.0,0.0,0.0,0.0,0.0,0.0,0.0,0.0,0.0,0.0,0.0,0.0,0.0,0.0,0.0,0.0,0.0,0.0,0.0,0.0,0.0,0.0,0.0,0.0,0.0,0.0,0.0,0.0,-0.7157,-0.726,-0.7312,-0.7312,0.0,0.0,0.0,0.0,0.0,0.0,0.0,0.0,0.0,0.0,0.0,0.0,0.0,0.0,0.0,0.0,0.0,0.0,0.0,0.0,0.0,0.0,0.0,0.0,0.0,0.0,0.0,0.0,0.0,0.0,0.0,0.0,0.0,0.0,0.0,0.0,0.0,0.0,0.0,0.0,0.0,0.0,0.0,0.0,-0.4052,-0.406,0.0,0.0,0.0,0.0,0.0,0.0,0.0,0.0,0.0,0.0,0.0,0.0,0.0,-0.3951,-0.3951,-0.3951,-0.3951,-0.3951,-0.3951,-0.3951,-0.3951,-0.3951,-0.3977,-0.4023,-0.4023,0.0,-0.3951,-0.3951,0.0,0.0,0.0,0.0,0.0,0.0,0.0,0.0,0.0,0.0,0.0,0.0,0.0,0.0,0.0,0.0,0.0,0.0,0.0,0.0,0.0,0.0,0.0,0.0,0.0,0.0,0.0,0.0,0.0,0.0,0.0,0.0,0.0,0.0,0.0,0.0,-0.7222,-0.7255,-0.7258,-0.738,-0.7437,-0.7442,-0.751,-0.7502,-0.7442,-0.7497,0.0,0.0,0.0,0.0,0.0,0.0,0.0,0.0,0.0,0.0,0.0,0.0,0.0,0.0,0.0,0.0,0.0,0.0,0.0,0.0,0.0,0.0,0.0,0.0,0.0,0.0,0.0,0.0,0.0,0.0,0.0,0.0,0.0,0.0,0.0,0.0,0.0,0.0,0.0,-0.3951,-0.3951,-0.3951,-0.3951,-0.3951,0.0,0.0,0.0,0.0,0.0,0.0,0.0,0.0,0.0,-0.3951,-0.3951,-0.3951,-0.3951,-0.3982,-0.3997,-0.3999,-0.4033,-0.4049,-0.4049,-0.4049,-0.4063,-0.4086,-0.4086,-0.4072,-0.4049,-0.4049,-0.4049,-0.4049,0.0,0.0,0.0,0.0,-0.4049,-0.4044,0.0,0.0,0.0,0.0,0.0,0.0,0.0,0.0,0.0,0.0,0.0,0.0,0.0,0.0,0.0,-1.126,0.0,0.0,0.0,0.0,0.0,0.0,0.0,0.0,0.0,0.0,0.0,0.0,-0.729,-0.735,-0.7385,-0.7508,-0.7565,-0.757,-0.7693,-0.7557,-0.733,-0.7359,-0.7303,0.0,0.0,0.0,0.0,0.0,0.0,0.0,0.0,0.0,0.0,0.0,0.0,0.0,0.0,0.0,0.0,0.0,0.0,0.0,0.0,0.0,0.0,0.0,0.0,0.0,0.0,0.0,0.0,0.0,0.0,0.0,0.0,0.0,0.0,0.0,0.0,0.0,0.0,-0.3951,-0.3951,-0.3951,-0.3951,-0.3951,0.0,0.0,0.0,0.0,0.0,0.0,-0.3951,-0.3965,-0.3973,-0.3973,-0.3986,-0.3996,-0.3996,-0.4037,-0.4057,-0.4059,-0.4104,-0.4125,-0.4125,-0.4125,-0.4134,-0.4149,-0.4149,-0.4158,-0.4169,-0.4138,-0.4125,-0.4125,-0.4125,-0.4125,-0.4125,-0.4125,-0.4125,-0.4119,0.0,0.0,0.0,0.0,0.0,0.0,0.0,0.0,0.0,0.0,0.0,0.0,0.0,0.0,-1.1269,-1.1482,-1.1874,-1.212,0.0,0.0,0.0,0.0,0.0,0.0,0.0,0.0,0.0,0.0,0.0,0.0,-0.751,-0.7635,-0.7693,-0.7698,-0.7812,-0.7435,-0.6739,-0.6831,-0.6508,-0.6023,0.0,0.0,0.0,0.0,0.0,0.0,0.0,0.0,0.0,0.0,0.0,0.0,0.0,0.0,0.0,0.0,0.0,0.0,0.0,0.0,0.0,0.0,0.0,0.0,0.0,0.0,0.0,0.0,0.0,0.0,0.0,0.0,0.0,0.0,0.0,0.0,0.0,0.0,0.0,-0.3951,-0.3951,0.0,0.0,0.0,0.0,-0.3951,-0.3951,-0.3951,-0.3951,-0.4001,-0.403,-0.403,-0.4086,-0.4116,-0.4116,-0.4119,-0.412,-0.4121,-0.4124,-0.4125,-0.4125,-0.4125,-0.4157,-0.4211,-0.4211,-0.4244,-0.4289,-0.4173,-0.4125,-0.4125,-0.4125,-0.4125,-0.4125,-0.4125,-0.4125,-0.4125,0.0,0.0,0.0,0.0,0.0,0.0,0.0,0.0,0.0,0.0,0.0,0.0,0.0,-1.1198,-1.1487,-1.1694,-1.1973,-1.2195,-1.2323,0.0,0.0,0.0,0.0,0.0,0.0,0.0,0.0,0.0,0.0,0.0,0.0,-0.7755,-0.7809,-0.7812,-0.7853,-0.7482,-0.6838,-0.7362,-0.7133,-0.6521,-0.6521,-0.6399,0.0,0.0,0.0,0.0,0.0,0.0,0.0,0.0,0.0,0.0,0.0,0.0,0.0,0.0,0.0,0.0,0.0,0.0,0.0,0.0,0.0,0.0,0.0,0.0,0.0,0.0,0.0,0.0,0.0,0.0,0.0,0.0,0.0,0.0,0.0,0.0,0.0,-0.3951,-0.3951,0.0,-0.3951,-0.3951,-0.3965,-0.4001,-0.4004,-0.4022,-0.4061,-0.4082,-0.4093,-0.4093,-0.4115,-0.4125,-0.4125,-0.4165,-0.4184,-0.4185,-0.4263,-0.4301,-0.4303,-0.4339,-0.4367,-0.4386,-0.4349,-0.4346,-0.436,-0.4277,-0.4243,-0.4243,-0.4243,-0.4243,-0.4243,-0.4243,-0.4243,-0.4237,0.0,0.0,0.0,0.0,0.0,0.0,0.0,0.0,0.0,0.0,0.0,-1.1023,-1.1099,-1.1416,-1.1704,-1.1907,-1.212,-1.2299,-1.2432,0.0,0.0,0.0,0.0,0.0,0.0,0.0,0.0,0.0,0.0,0.0,0.0,0.0,0.0,-0.7872,-0.7872,-0.7625,-0.7255,-0.7747,-0.738,-0.6519,-0.6519,-0.6399,-0.6151,0.0,0.0,0.0,0.0,0.0,0.0,0.0,0.0,0.0,0.0,0.0,0.0,0.0,0.0,0.0,0.0,0.0,0.0,0.0,0.0,0.0,0.0,0.0,0.0,0.0,0.0,0.0,0.0,0.0,0.0,0.0,0.0,0.0,0.0,0.0,-0.3951,-0.3951,-0.3967,-0.3978,-0.3978,-0.3997,-0.4025,-0.4063,-0.4065,-0.4083,-0.4124,-0.4145,-0.4165,-0.4187,-0.4207,-0.4228,-0.4245,-0.4286,-0.4307,-0.4308,-0.4388,-0.4427,-0.4428,-0.4466,-0.4482,-0.448,-0.4443,-0.4427,-0.4424,-0.4383,-0.4367,-0.4365,-0.4345,-0.4349,-0.4367,-0.4367,-0.4367,-0.4361,0.0,0.0,0.0,0.0,0.0,0.0,0.0,0.0,0.0,0.0,0.0,-1.1283,-1.1496,-1.1704,-1.1912,-1.2124,-1.2323,-1.2441,-1.2441,-1.2441,0.0,0.0,0.0,0.0,0.0,0.0,0.0,0.0,0.0,0.0,0.0,0.0,0.0,0.0,-0.7872,-0.7872,-0.7872,-0.7872,-0.7133,-0.5906,-0.5906,-0.6274,-0.6766,0.0,0.0,0.0,0.0,0.0,0.0,0.0,0.0,0.0,0.0,0.0,0.0,0.0,0.0,0.0,0.0,0.0,0.0,0.0,0.0,0.0,0.0,0.0,0.0,0.0,0.0,0.0,0.0,0.0,0.0,0.0,0.0,0.0,-0.3951,-0.3952,-0.3954,-0.3954,-0.4003,-0.4037,-0.4037,-0.409,-0.4127,-0.4128,-0.4128,-0.413,-0.4134,-0.4189,-0.4249,-0.4311,-0.4371,-0.4427,-0.4481,-0.4482,-0.4482,-0.4482,-0.4485,-0.4485,-0.4485,-0.4488,-0.4488,-0.4488,-0.4486,-0.4485,-0.4485,-0.4484,-0.4484,-0.448,-0.4422,-0.4435,-0.4482,-0.4482,-0.4482,-0.4482,0.0,0.0,0.0,0.0,0.0,0.0,0.0,0.0,0.0,0.0,-1.1298,-1.1449,-1.151,-1.1836,-1.2077,-1.2134,-1.2323,-1.2441,-1.2441,0.0,0.0,0.0,0.0,0.0,0.0,0.0,0.0,0.0,0.0,0.0,0.0,0.0,0.0,0.0,-0.7872,-0.7872,-0.7872,-0.7872,-0.7747,-0.7258,-0.6766,-0.6399,-0.6151,0.0,0.0,0.0,0.0,0.0,0.0,0.0,0.0,0.0,0.0,0.0,0.0,0.0,0.0,0.0,0.0,0.0,0.0,0.0,0.0,0.0,0.0,0.0,0.0,0.0,0.0,0.0,0.0,0.0,0.0,0.0,0.0,-0.3997,-0.3956,-0.3985,-0.4011,-0.4011,-0.4064,-0.4101,-0.4101,-0.4116,-0.4143,-0.4188,-0.4191,-0.423,-0.4319,-0.4339,-0.4375,-0.4433,-0.4451,-0.4467,-0.4482,-0.4482,-0.4482,-0.4484,-0.4527,-0.4548,-0.4549,-0.4594,-0.4615,-0.4612,-0.4568,-0.4548,-0.4545,-0.45,-0.4508,-0.4542,-0.4482,-0.4469,-0.4482,-0.4482,-0.4482,-0.4482,0.0,0.0,0.0,0.0,0.0,0.0,0.0,0.0,0.0,0.0,-1.1383,-1.1548,-1.1633,-1.194,-1.2176,-1.2257,-1.237,-1.2441,-1.2441,0.0,0.0,0.0,0.0,0.0,0.0,0.0,0.0,0.0,0.0,0.0,0.0,0.0,0.0,0.0,0.0,-0.7872,-0.7872,-0.7872,-0.7872,-0.7869,-0.7503,-0.7133,-0.6766,-0.6399,-0.6521,-0.6644,-0.6399,-0.6276,-0.6276,-0.6276,0.0,0.0,0.0,0.0,0.0,0.0,0.0,0.0,0.0,0.0,0.0,0.0,0.0,0.0,0.0,0.0,0.0,0.0,0.0,0.0,0.0,0.0,0.0,0.0,-0.4034,-0.4061,-0.4029,-0.4052,-0.4072,-0.4072,-0.4127,-0.4174,-0.4199,-0.4225,-0.4264,-0.4323,-0.4327,-0.4358,-0.4429,-0.4433,-0.4461,-0.4519,-0.4521,-0.4545,-0.4597,-0.4597,-0.4609,-0.4635,-0.467,-0.4687,-0.4688,-0.4725,-0.474,-0.4739,-0.4703,-0.4673,-0.4647,-0.461,-0.4602,-0.4605,0.0,0.0,0.0,0.0,-0.4559,-0.4559,0.0,0.0,0.0,0.0,0.0,0.0,0.0,0.0,0.0,0.0,0.0,-1.1628,-1.1831,-1.2044,-1.2243,-1.2422,-1.2441,-1.2441,0.0,0.0,0.0,0.0,0.0,0.0,0.0,0.0,0.0,0.0,0.0,0.0,0.0,0.0,0.0,0.0,0.0,-0.8113,-0.8116,-0.8116,-0.7994,-0.7872,-0.7872,-0.7872,-0.7872,-0.7258,-0.738,-0.7872,-0.7258,-0.7011,-0.6888,-0.6888,0.0,0.0,0.0,0.0,0.0,0.0,0.0,0.0,0.0,0.0,0.0,0.0,0.0,0.0,0.0,0.0,0.0,0.0,0.0,0.0,0.0,0.0,0.0,0.0,-0.4102,-0.4146,-0.4146,-0.4158,-0.4161,-0.4149,-0.4206,-0.4267,-0.4322,-0.4376,-0.4428,-0.4478,-0.4482,-0.4489,-0.4501,0.0,0.0,0.0,0.0,-0.4655,-0.4764,-0.4766,-0.4792,-0.4846,-0.4846,-0.4846,-0.4846,-0.4846,-0.4846,-0.4846,-0.4846,-0.4815,-0.4766,-0.4766,-0.4733,-0.4679,-0.461,-0.4617,-0.4665,-0.4665,-0.4665,-0.4665,0.0,0.0,0.0,0.0,0.0,0.0,0.0,0.0,0.0,-1.1435,-1.1633,-1.1841,-1.2054,-1.2261,-1.2398,-1.2436,-1.2441,-1.2441,0.0,0.0,0.0,0.0,0.0,0.0,0.0,0.0,0.0,0.0,0.0,0.0,0.0,0.0,0.0,0.0,0.0,-0.9819,-0.897,-0.897,-0.8604,-0.7872,-0.7872,-0.7872,-0.7869,-0.7747,-0.7747,-0.7869,-0.7747,-0.7378,-0.6888,-0.6888,-0.6396,-0.5906,-0.5784,0.0,0.0,0.0,0.0,0.0,0.0,0.0,0.0,0.0,0.0,0.0,0.0,0.0,0.0,0.0,0.0,0.0,0.0,0.0,0.0,-0.4108,-0.42,-0.4273,-0.4273,-0.4353,-0.4377,-0.4283,-0.4367,-0.4436,-0.4447,-0.4459,-0.447,-0.4481,-0.4482,-0.4525,-0.4624,-0.463,-0.468,-0.479,-0.4793,-0.4804,-0.4828,-0.4828,-0.4834,-0.4846,0.0,0.0,-0.4846,-0.4846,-0.4846,-0.4846,-0.4846,-0.4839,-0.4828,-0.4828,-0.4822,-0.48,-0.4689,-0.4654,-0.4665,-0.4665,-0.4665,-0.4665,0.0,0.0,0.0,0.0,0.0,0.0,0.0,0.0,0.0,0.0,-1.1792,-1.1898,-1.2115,-1.2318,-1.2441,-1.2441,-1.2441,0.0,0.0,0.0,0.0,0.0,0.0,0.0,0.0,0.0,0.0,0.0,0.0,0.0,0.0,0.0,0.0,0.0,0.0,0.0,-0.8604,-0.9697,-0.9454,-0.8604,-0.8604,-0.8604,-0.8604,-0.8113,-0.7872,-0.7872,-0.7872,-0.7625,-0.738,-0.738,-0.7133,-0.6888,-0.6521,-0.6396,-0.6276,0.0,0.0,0.0,0.0,0.0,0.0,0.0,0.0,0.0,0.0,0.0,0.0,0.0,0.0,-0.408,0.0,0.0,-0.4181,-0.4211,-0.4293,-0.4362,-0.4391,-0.4471,-0.4495,-0.4406,-0.4447,-0.4495,-0.4525,-0.4527,-0.4553,-0.4615,-0.4619,-0.4658,-0.4749,-0.4755,-0.4783,-0.4843,-0.4846,-0.486,-0.4891,-0.4891,-0.4905,-0.4933,-0.4933,-0.4933,-0.4933,-0.4933,-0.4933,-0.4933,-0.4933,-0.4917,-0.4888,-0.4858,-0.4846,-0.4839,-0.4778,-0.4736,-0.4706,-0.4676,-0.4665,-0.4669,0.0,0.0,0.0,0.0,0.0,0.0,0.0,0.0,0.0,0.0,0.0,-1.1912,-1.2172,-1.2342,-1.2441,0.0,0.0,0.0,0.0,0.0,0.0,0.0,0.0,0.0,0.0,0.0,0.0,0.0,0.0,0.0,0.0,0.0,0.0,0.0,0.0,0.0,-0.8842,-1.0422,-1.0547,-0.9579,-0.9579,-0.9457,-0.9214,-0.8482,-0.8116,-0.7872,-0.7872,-0.7872,-0.7872,-0.7872,-0.7872,-0.7747,-0.7255,-0.7133,-0.7011,-0.6399,-0.6274,0.0,0.0,0.0,0.0,0.0,0.0,0.0,0.0,0.0,-0.4666,-0.4177,-0.4101,-0.4143,-0.4143,-0.4203,-0.4268,-0.4318,-0.4386,-0.4448,-0.4493,-0.4552,-0.4572,-0.4523,-0.4518,-0.4542,-0.4602,-0.4609,-0.4654,-0.4764,-0.4773,-0.4798,-0.486,-0.4863,-0.4868,-0.4879,-0.488,-0.4903,-0.4952,-0.4952,-0.4976,-0.5021,-0.5021,-0.5021,-0.5021,-0.5021,-0.5021,-0.5021,-0.5021,-0.4995,-0.495,-0.4901,-0.488,-0.4879,-0.4868,-0.4834,-0.4783,-0.4722,-0.47,-0.4707,0.0,0.0,0.0,0.0,0.0,0.0,0.0,0.0,0.0,0.0,0.0,0.0,0.0,0.0,0.0,0.0,0.0,0.0,0.0,0.0,0.0,0.0,0.0,0.0,0.0,0.0,0.0,0.0,0.0,0.0,0.0,0.0,0.0,0.0,0.0,0.0,-1.1752,-1.1993,-1.1511,-1.0668,-1.0668,-1.0061,-0.9335,-0.9214,-0.8604,-0.7872,-0.7872,-0.7872,-0.7872,-0.7872,-0.7872,-0.7869,-0.7869,-0.7747,-0.7747,-0.7747,0.0,-0.7625,-0.7625,-0.7133,-0.6396,-0.517,-0.4925,-0.482,0.0,0.0,-0.4049,-0.4104,-0.4164,-0.4206,-0.4206,-0.43,-0.438,-0.4387,-0.4481,-0.4556,-0.4563,-0.4616,-0.4651,-0.4645,-0.4645,-0.4668,-0.4729,-0.4734,-0.4763,-0.483,-0.4835,-0.4863,-0.4924,-0.4927,-0.495,-0.5,-0.5001,-0.5004,-0.5011,-0.5011,-0.5014,-0.5021,-0.5021,-0.5021,-0.5021,-0.5021,-0.5021,-0.5021,-0.5021,-0.5016,-0.5011,-0.5004,-0.5001,-0.4996,-0.4946,-0.4922,-0.4909,-0.4848,-0.4826,-0.4826,0.0,0.0,0.0,0.0,0.0,0.0,0.0,0.0,0.0,0.0,0.0,0.0,0.0,0.0,0.0,0.0,0.0,0.0,0.0,0.0,0.0,0.0,0.0,0.0,0.0,0.0,0.0,0.0,0.0,0.0,0.0,0.0,0.0,0.0,0.0,0.0,-1.1514,-1.2599,-1.2479,-1.1635,-1.1635,-1.1031,-1.0061,-0.9579,-0.8726,-0.7872,-0.7872,-0.7872,0.0,0.0,-0.7872,-0.7872,-0.7872,-0.7872,-0.7872,-0.7872,-0.7872,0.0,-0.6888,-0.6521,0.0,0.0,-0.437,-0.4263,-0.4074,-0.4115,-0.4149,-0.4173,-0.4228,-0.4281,-0.4316,-0.4364,-0.4421,0.0,-0.4541,-0.4586,-0.4621,-0.4649,-0.4677,-0.4713,-0.4718,-0.4728,-0.4752,-0.4788,-0.4834,-0.4894,-0.4899,-0.4924,-0.4982,-0.4985,-0.4996,-0.5021,-0.5021,-0.5021,-0.5021,-0.5021,-0.5021,-0.5021,-0.5021,-0.5021,-0.5021,-0.5021,-0.5021,-0.5021,-0.5021,-0.5021,-0.5021,-0.5021,-0.5021,-0.5019,-0.4995,-0.4985,-0.4974,-0.488,-0.4846,-0.485,0.0,0.0,0.0,0.0,0.0,0.0,0.0,0.0,0.0,0.0,0.0,0.0,0.0,0.0,0.0,0.0,0.0,0.0,0.0,0.0,0.0,0.0,0.0,0.0,0.0,0.0,0.0,0.0,0.0,0.0,0.0,0.0,0.0,0.0,0.0,0.0,-1.1635,-1.3084,-1.3324,-1.2599,-1.2599,-1.1877,-1.0668,-0.994,-0.8967,-0.7872,-0.7872,-0.7872,0.0,0.0,-0.7872,-0.7872,-0.7872,-0.7872,-0.7872,-0.7872,-0.7894,-0.7667,-0.6283,0.0,0.0,-0.4279,-0.4048,-0.4076,-0.4136,-0.4185,-0.4221,-0.4239,-0.4277,-0.432,-0.4365,-0.4399,-0.445,-0.4534,-0.4576,-0.4615,-0.4658,-0.4665,-0.4687,-0.4748,-0.477,-0.4786,-0.4804,-0.4845,-0.4895,-0.4955,-0.4959,-0.4978,-0.5019,-0.5021,-0.5021,-0.5021,-0.5021,-0.5021,-0.5021,-0.5021,-0.5021,-0.5021,-0.5021,-0.5021,-0.5021,-0.5021,-0.5021,-0.5021,-0.5021,-0.5021,-0.5021,-0.5021,-0.5021,-0.5021,-0.5021,-0.5021,-0.501,-0.4925,-0.4894,-0.4901,0.0,0.0,0.0,0.0,0.0,0.0,0.0,0.0,0.0,0.0,0.0,0.0,0.0,0.0,0.0,0.0,0.0,0.0,0.0,0.0,0.0,0.0,0.0,0.0,0.0,0.0,0.0,0.0,0.0,0.0,0.0,0.0,0.0,0.0,0.0,0.0,0.0,-1.3688,-1.3688,-1.3688,-1.3688,-1.2479,-1.0789,-1.0789,-0.9572,-0.7872,-0.7872,0.0,0.0,0.0,-0.7872,-0.7872,-0.7872,-0.7872,0.0,-0.7872,-0.7956,0.0,0.0,0.0,-0.5896,-0.4427,-0.4079,-0.4139,-0.42,-0.4215,-0.4233,-0.4293,-0.4307,-0.4308,-0.4309,-0.4403,-0.4481,-0.4485,-0.4585,-0.4662,-0.4665,-0.4665,-0.4687,-0.4748,-0.4808,-0.4867,0.0,-0.4933,-0.4958,-0.5014,-0.5018,-0.5019,-0.5021,-0.5021,-0.5021,-0.5021,-0.5021,-0.5021,-0.5021,-0.5021,-0.5021,-0.5021,-0.5021,-0.5021,-0.5021,-0.5021,-0.5021,-0.5021,-0.5021,-0.5021,-0.5021,-0.5021,-0.5021,-0.5021,-0.5021,-0.5021,-0.5021,-0.5016,-0.5015,-0.5015,0.0,0.0,0.0,0.0,0.0,0.0,0.0,0.0,0.0,0.0,0.0,0.0,0.0,0.0,0.0,0.0,0.0,0.0,0.0,0.0,0.0,0.0,0.0,0.0,0.0,0.0,0.0,0.0,0.0,0.0,0.0,0.0,0.0,0.0,0.0,0.0,0.0,-1.3688,-1.3688,-1.3688,-1.3688,-1.2479,-1.091,-1.1511,-1.0543,-0.897,0.0,0.0,0.0,0.0,0.0,0.0,-0.7872,0.0,0.0,-0.7967,-0.7714,-0.7088,0.0,0.0,-0.5222,-0.4399,-0.417,-0.4202,-0.4263,-0.4277,-0.4283,-0.4304,-0.4308,-0.432,-0.4361,-0.4399,-0.4452,-0.453,-0.4576,-0.4619,-0.4658,-0.4665,-0.4702,-0.4803,-0.4833,0.0,0.0,0.0,0.0,-0.5019,-0.5021,-0.5021,-0.5021,-0.5021,-0.5021,-0.5021,-0.5021,-0.5021,-0.5021,-0.5021,-0.5021,-0.5021,-0.5021,-0.5021,-0.5021,-0.5021,-0.5021,-0.5021,-0.5021,-0.5021,-0.5021,-0.5021,-0.5021,-0.5021,-0.5021,-0.5021,-0.5021,-0.5021,-0.5021,-0.5021,0.0,0.0,0.0,0.0,0.0,0.0,0.0,0.0,0.0,0.0,0.0,0.0,0.0,0.0,0.0,0.0,0.0,0.0,0.0,0.0,0.0,0.0,0.0,0.0,0.0,0.0,0.0,0.0,0.0,0.0,0.0,0.0,0.0,0.0,0.0,0.0,0.0,0.0,-1.3688,-1.3688,-1.3688,-1.2724,-1.1394,-1.1993,-1.1273,0.0,0.0,0.0,0.0,0.0,0.0,0.0,0.0,-0.7899,-0.7943,-0.7978,-0.7775,-0.72,-0.6373,-0.5776,-0.5307,-0.4464,-0.4233,-0.4259,-0.4298,-0.4308,-0.4308,-0.4308,-0.4308,-0.4319,-0.4358,-0.4384,-0.4429,-0.4525,-0.4559,-0.4594,-0.4655,-0.4665,-0.471,-0.4831,-0.4846,-0.4892,0.0,0.0,0.0,-0.5021,-0.5021,-0.5021,-0.5021,-0.5021,-0.5021,-0.5021,-0.5021,-0.5021,-0.5021,-0.5021,-0.5021,-0.5021,-0.5021,-0.5021,-0.5021,-0.5021,-0.5021,-0.5021,-0.5021,-0.5021,-0.5021,-0.5021,-0.5021,-0.5021,-0.5021,-0.5021,-0.5021,-0.5021,-0.5021,-0.5021,0.0,0.0,0.0,0.0,0.0,0.0,0.0,0.0,0.0,0.0,0.0,0.0,0.0,0.0,0.0,0.0,0.0,0.0,0.0,0.0,0.0,0.0,0.0,0.0,0.0,0.0,0.0,0.0,0.0,0.0,0.0,0.0,0.0,0.0,0.0,0.0,0.0,0.0,-1.3688,-1.3688,-1.3688,-1.3084,-1.2238,-1.2238,0.0,0.0,0.0,0.0,0.0,0.0,0.0,0.0,0.0,0.0,-0.8024,-0.7921,-0.813,-0.7961,-0.6489,-0.6122,-0.5893,-0.4499,-0.4264,-0.4308,-0.4308,-0.4308,-0.4308,-0.4308,-0.4308,-0.4308,0.0,0.0,-0.4413,-0.4473,-0.453,-0.4591,-0.4655,-0.4665,-0.4709,0.0,0.0,0.0,0.0,0.0,0.0,-0.5021,0.0,-0.5021,-0.5021,-0.5021,-0.5021,-0.5021,-0.5021,-0.5021,-0.5021,-0.5021,-0.5021,-0.5021,-0.5021,-0.5021,-0.5021,-0.5021,-0.5021,-0.5021,-0.5021,-0.5021,-0.5021,-0.5021,-0.5021,-0.5021,-0.5021,-0.5021,-0.5021,-0.5021,-0.5021,-0.5021,0.0,0.0,0.0,0.0,0.0,0.0,0.0,0.0,0.0,0.0,0.0,0.0,0.0,0.0,0.0,0.0,0.0,0.0,0.0,0.0,0.0,0.0,0.0,0.0,0.0,0.0,0.0,0.0,0.0,0.0,0.0,0.0,0.0,0.0,0.0,0.0,0.0,0.0,0.0,-1.3688,0.0,-1.3084,-1.2234,0.0,0.0,0.0,0.0,0.0,0.0,0.0,0.0,0.0,0.0,-0.7891,-0.7945,-0.8098,-0.7382,-0.653,-0.6306,-0.5558,-0.4644,-0.441,-0.4296,-0.4308,-0.4308,-0.4308,-0.4308,-0.4308,-0.4308,-0.4308,0.0,0.0,0.0,-0.4466,-0.4496,0.0,-0.465,-0.4665,0.0,-0.4768,0.0,-0.4875,-0.4951,-0.4996,0.0,0.0,-0.5021,-0.5021,-0.5021,-0.5021,-0.5021,-0.5021,-0.5021,-0.5021,-0.5021,-0.5021,-0.5021,-0.5021,-0.5021,-0.5021,-0.5021,-0.5021,-0.5021,-0.5021,-0.5021,-0.5021,-0.5021,-0.5021,-0.5021,-0.5021,-0.5021,-0.5021,-0.5021,-0.5021,-0.5021,-0.5021,0.0,0.0,0.0,0.0,0.0,0.0,0.0,0.0,0.0,0.0,0.0,0.0,0.0,0.0,0.0,0.0,0.0,0.0,0.0,0.0,0.0,0.0,0.0,0.0,0.0,0.0,0.0,0.0,0.0,0.0,0.0,0.0,0.0,0.0,0.0,0.0,0.0,0.0,0.0,0.0,0.0,0.0,0.0,0.0,0.0,0.0,0.0,0.0,0.0,0.0,0.0,-0.7872,-0.7872,-0.7907,-0.7978,-0.8114,0.0,-0.6582,-0.6351,-0.5588,-0.4663,-0.4433,-0.4308,-0.4308,-0.4308,-0.4308,-0.4308,-0.4308,-0.4308,0.0,0.0,0.0,0.0,0.0,0.0,0.0,-0.4647,-0.4665,-0.4698,0.0,-0.4824,0.0,-0.4965,-0.5003,-0.5021,0.0,-0.5021,-0.5021,-0.5021,-0.5021,-0.5021,-0.5021,-0.5021,-0.5021,-0.5021,-0.5021,-0.5021,-0.5021,-0.5021,-0.5021,-0.5021,-0.5021,-0.5021,-0.5021,-0.5021,-0.5021,-0.5021,-0.5021,-0.5021,-0.5021,-0.5021,-0.5021,-0.5021,-0.5021,-0.5021,-0.5021,0.0,0.0,0.0,0.0,0.0,0.0,0.0,0.0,0.0,0.0,0.0,0.0,0.0,0.0,0.0,0.0,0.0,0.0,0.0,0.0,0.0,0.0,0.0,0.0,0.0,0.0,0.0,0.0,0.0,0.0,0.0,0.0,0.0,0.0,0.0,0.0,0.0,0.0,0.0,0.0,0.0,0.0,0.0,0.0,0.0,0.0,0.0,0.0,0.0,0.0,-0.9451,-0.7872,-0.7872,-0.7945,-0.8035,-0.8068,-0.7714,-0.6958,-0.6458,-0.5728,-0.5112,-0.4442,-0.4308,-0.4308,-0.4308,-0.4308,-0.4308,-0.4308,0.0,-0.4308,-0.4308,0.0,-0.4346,-0.4463,0.0,-0.4525,-0.4647,-0.4665,-0.4703,-0.4809,-0.4835,-0.4886,-0.4988,-0.5011,-0.5021,-0.5021,-0.5021,-0.5021,-0.5021,-0.5021,-0.5021,-0.5021,-0.5021,-0.5021,-0.5021,-0.5021,-0.5021,-0.5021,-0.5021,-0.5021,-0.5021,-0.5021,-0.5021,-0.5021,-0.5021,-0.5021,-0.5021,-0.5021,-0.5021,-0.5021,-0.5021,-0.5021,-0.5021,-0.5021,-0.5021,-0.5021,0.0,0.0,0.0,0.0,0.0,0.0,0.0,0.0,0.0,0.0,0.0,0.0,0.0,0.0,0.0,0.0,0.0,0.0,0.0,0.0,0.0,0.0,0.0,0.0,0.0,0.0,0.0,0.0,0.0,0.0,0.0,0.0,0.0,0.0,0.0,0.0,0.0,0.0,0.0,0.0,0.0,0.0,0.0,0.0,0.0,0.0,0.0,0.0,0.0,0.0,-0.9451,-0.7872,-0.7872,-0.7886,-0.7943,-0.8144,-0.7335,-0.6366,-0.6388,-0.5505,-0.4442,-0.4308,-0.4308,-0.4308,-0.4308,-0.4308,0.0,0.0,0.0,-0.4308,-0.4308,-0.4308,0.0,-0.4463,0.0,0.0,0.0,0.0,-0.4672,0.0,0.0,0.0,0.0,0.0,0.0,0.0,0.0,-0.5021,-0.5021,-0.5021,-0.5021,-0.5021,-0.5021,-0.5021,-0.5021,-0.5021,-0.5021,-0.5021,-0.5021,-0.5021,-0.5021,-0.5021,-0.5021,-0.5021,-0.5021,0.0,-0.5021,-0.5021,-0.5021,-0.5021,-0.5021,-0.5021,-0.5021,-0.5021,-0.5021,-0.5021,0.0,0.0,0.0,0.0,0.0,0.0,0.0,0.0,0.0,0.0,0.0,0.0,0.0,0.0,0.0,0.0,0.0,0.0,0.0,0.0,0.0,0.0,0.0,0.0,0.0,0.0,0.0,0.0,0.0,0.0,0.0,0.0,0.0,0.0,0.0,0.0,0.0,0.0,0.0,0.0,0.0,0.0,0.0,0.0,0.0,0.0,0.0,0.0,0.0,0.0,-1.0179,-0.8604,-0.7994,-0.7872,-0.7918,-0.8163,-0.7205,-0.609,-0.6402,-0.5381,-0.4308,-0.4308,-0.4308,-0.4308,-0.4308,0.0,0.0,0.0,0.0,-0.4308,-0.4308,0.0,0.0,0.0,0.0,0.0,0.0,0.0,0.0,0.0,0.0,0.0,0.0,0.0,0.0,0.0,0.0,-0.5021,-0.5021,-0.5021,-0.5021,-0.5021,-0.5021,-0.5021,-0.5021,-0.5021,-0.5021,-0.5021,-0.5021,-0.5021,-0.5021,-0.5021,-0.5021,-0.5021,-0.5021,-0.5021,-0.5021,-0.5021,-0.5021,-0.5021,-0.5021,-0.5021,-0.5021,-0.5021,-0.5021,-0.5021,0.0,0.0,0.0,0.0,0.0,0.0,0.0,0.0,-1.3689,-1.3578,-1.3817,-1.3773,-1.3408,-1.2955,0.0,0.0,0.0,0.0,0.0,0.0,0.0,0.0,0.0,0.0,0.0,0.0,0.0,0.0,0.0,0.0,0.0,0.0,0.0,0.0,0.0,0.0,0.0,0.0,0.0,0.0,0.0,0.0,0.0,0.0,0.0,0.0,0.0,0.0,0.0,0.0,-1.1148,-0.9697,-0.8601,-0.8116,-0.7915,-0.813,-0.7188,-0.6086,-0.638,-0.5369,-0.4308,-0.4308,-0.4308,-0.4308,-0.4308,-0.4308,0.0,0.0,-0.4308,-0.4308,-0.4308,0.0,0.0,0.0,0.0,0.0,0.0,0.0,0.0,0.0,0.0,0.0,0.0,0.0,0.0,0.0,0.0,-0.5021,-0.5021,-0.5021,-0.5021,-0.5021,-0.5021,-0.5021,-0.5021,-0.5021,-0.5021,-0.5021,-0.5021,-0.5021,-0.5021,-0.5021,-0.5021,-0.5021,-0.5021,-0.5021,-0.5021,-0.5021,-0.5021,-0.5021,-0.5021,-0.5021,-0.5021,-0.5021,-0.5021,-0.5021,0.0,0.0,0.0,0.0,0.0,0.0,0.0,0.0,-1.3459,-1.4106,-1.3577,-1.3228,-1.3698,-1.3403,0.0,0.0,0.0,0.0,0.0,0.0,0.0,0.0,0.0,0.0,0.0,0.0,0.0,0.0,0.0,0.0,0.0,0.0,0.0,0.0,0.0,0.0,0.0,0.0,0.0,0.0,0.0,0.0,0.0,0.0,0.0,0.0,0.0,0.0,0.0,0.0,0.0,-1.1631,-0.9697,-0.8604,-0.7896,-0.8032,0.0,0.0,-0.6302,-0.5328,-0.4308,-0.4308,-0.4308,-0.4308,-0.4308,0.0,0.0,-0.4308,-0.4308,-0.4308,-0.4308,-0.4353,0.0,0.0,0.0,0.0,0.0,0.0,0.0,0.0,0.0,0.0,0.0,0.0,0.0,0.0,0.0,-0.5021,-0.5021,-0.5021,-0.5021,-0.5021,-0.5021,-0.5021,-0.5021,-0.5021,-0.5021,-0.5021,-0.5021,-0.5021,-0.5021,-0.5021,-0.5021,-0.5021,-0.5021,-0.5021,0.0,-0.5021,-0.5021,-0.5021,-0.5021,-0.5021,-0.5021,-0.5021,-0.5021,-0.5021,0.0,0.0,0.0,0.0,0.0,0.0,0.0,0.0,-1.3147,-1.3185,-1.3244,-1.3232,-1.2955,-1.3,0.0,0.0,0.0,0.0,0.0,0.0,0.0,0.0,0.0,0.0,0.0,0.0,0.0,0.0,0.0,0.0,0.0,0.0,0.0,0.0,0.0,-1.3688,0.0,0.0,0.0,0.0,0.0,0.0,0.0,0.0,0.0,0.0,0.0,0.0,0.0,0.0,0.0,0.0,-1.1269,-1.0422,0.0,0.0,-0.72,-0.6758,-0.5885,-0.5025,-0.4262,-0.4298,-0.4308,-0.4308,-0.4308,0.0,0.0,-0.4308,-0.4308,-0.4308,-0.4308,-0.4357,-0.4417,0.0,0.0,0.0,0.0,0.0,0.0,0.0,0.0,0.0,0.0,0.0,0.0,0.0,0.0,-0.5021,-0.5021,-0.5021,-0.5021,-0.5021,-0.5021,-0.5021,-0.5021,-0.5021,-0.5021,-0.5021,-0.5021,-0.5021,-0.5021,-0.5021,-0.5021,-0.5021,-0.5021,-0.5021,0.0,-0.5021,-0.5021,-0.5021,-0.5021,-0.5021,-0.5021,-0.5021,-0.5021,-0.5021,0.0,0.0,0.0,0.0,0.0,0.0,-1.2705,-1.2874,-1.2855,-1.2668,-1.3008,-1.3163,-1.2589,-1.2812,-1.2844,-1.2417,0.0,0.0,0.0,0.0,0.0,0.0,0.0,0.0,0.0,0.0,0.0,0.0,0.0,0.0,0.0,0.0,-1.3688,-1.3688,0.0,0.0,0.0,0.0,0.0,0.0,0.0,0.0,0.0,0.0,0.0,0.0,0.0,0.0,0.0,0.0,0.0,0.0,0.0,0.0,0.0,0.0,-0.7637,-0.7197,-0.5843,-0.4857,-0.4232,-0.4292,-0.4308,-0.4308,0.0,0.0,0.0,-0.4308,-0.4308,-0.4308,-0.4308,-0.4371,-0.4436,0.0,0.0,0.0,0.0,0.0,0.0,0.0,0.0,0.0,0.0,0.0,0.0,0.0,0.0,-0.5021,-0.5021,-0.5021,-0.5021,-0.5021,-0.5021,-0.5021,-0.5021,-0.5021,-0.5021,-0.5021,-0.5021,-0.5021,-0.5021,-0.5021,-0.5021,-0.5021,-0.5021,-0.5021,0.0,-0.5021,-0.5021,-0.5021,-0.5021,-0.5021,-0.5021,-0.5021,-0.5021,-0.5021,0.0,0.0,0.0,0.0,0.0,0.0,0.0,0.0,-1.2807,-1.3091,-1.3037,-1.2975,-1.2972,-1.2915,-1.2738,-1.2417,0.0,0.0,0.0,0.0,0.0,0.0,0.0,0.0,0.0,0.0,0.0,0.0,0.0,0.0,0.0,0.0,0.0,-1.3688,0.0,0.0,0.0,0.0,0.0,0.0,0.0,0.0,0.0,0.0,0.0,0.0,0.0,0.0,0.0,0.0,0.0,0.0,0.0,0.0,0.0,0.0,-0.8438,-0.7308,-0.6409,-0.5209,-0.4232,-0.4292,-0.4308,-0.4308,0.0,0.0,0.0,-0.4308,-0.4308,-0.4308,-0.4308,-0.4402,-0.4481,-0.4482,0.0,0.0,0.0,0.0,0.0,0.0,0.0,0.0,0.0,0.0,0.0,0.0,-0.5021,0.0,-0.5021,-0.5021,-0.5021,-0.5021,-0.5021,-0.5021,-0.5021,-0.5021,-0.5021,-0.5021,-0.5021,-0.5021,-0.5021,-0.5021,-0.5021,-0.5021,-0.5021,-0.5021,0.0,-0.5021,-0.5021,-0.5021,-0.5021,-0.5021,-0.5021,-0.5021,-0.5021,-0.5021,0.0,0.0,0.0,0.0,0.0,0.0,0.0,0.0,-1.2649,-1.2388,-1.2437,-1.2623,-1.2807,-1.255,-1.263,-1.2945,0.0,0.0,0.0,0.0,0.0,0.0,0.0,0.0,0.0,0.0,0.0,0.0,0.0,0.0,0.0,0.0,0.0,0.0,-1.3688,0.0,0.0,0.0,0.0,0.0,0.0,0.0,0.0,0.0,0.0,0.0,0.0,0.0,0.0,0.0,0.0,0.0,0.0,0.0,0.0,0.0,0.0,0.0,-0.6802,-0.5253,-0.4169,-0.423,-0.4277,-0.4308,-0.4308,0.0,0.0,-0.4308,-0.4308,-0.4308,-0.4308,-0.4403,-0.4482,-0.4482,-0.4585,0.0,0.0,0.0,0.0,0.0,0.0,0.0,0.0,0.0,0.0,0.0,-0.5021,-0.5021,-0.5021,-0.5021,-0.5021,-0.5021,-0.5021,-0.5021,-0.5021,-0.5021,-0.5021,-0.5021,-0.5021,-0.5021,-0.5021,-0.5021,-0.5021,-0.5021,-0.5021,-0.5021,-0.5021,-0.5021,-0.5021,-0.5021,-0.5021,-0.5021,-0.5021,-0.5021,-0.5021,-0.5021,0.0,0.0,0.0,0.0,0.0,0.0,0.0,0.0,-1.2619,-1.2272,-1.2418,-1.2694,-1.2973,-1.2678,-1.269,-1.3259,0.0,0.0,0.0,0.0,0.0,0.0,0.0,0.0,0.0,0.0,0.0,0.0,0.0,0.0,0.0,0.0,0.0,0.0,0.0,0.0,0.0,0.0,0.0,0.0,0.0,0.0,-1.3688,0.0,0.0,0.0,0.0,0.0,0.0,0.0,0.0,0.0,0.0,0.0,0.0,0.0,-1.029,0.0,0.0,-0.547,-0.4399,-0.4202,-0.4263,0.0,0.0,0.0,0.0,0.0,-0.4308,-0.4308,-0.4308,-0.4403,-0.4482,-0.4482,-0.4585,0.0,0.0,0.0,0.0,0.0,0.0,0.0,0.0,0.0,0.0,0.0,-0.5021,-0.5021,-0.5021,-0.5021,-0.5021,-0.5021,-0.5021,-0.5021,-0.5021,-0.5021,-0.5021,-0.5021,-0.5021,-0.5021,-0.5021,-0.5021,-0.5021,-0.5021,-0.5021,-0.5021,0.0,-0.5021,-0.5177,-0.549,-0.549,-0.5647,-0.596,-0.596,-0.596,-0.6115,0.0,0.0,0.0,0.0,0.0,0.0,0.0,0.0,0.0,0.0,0.0,-1.3225,-1.3544,-1.3254,0.0,0.0,0.0,0.0,0.0,0.0,0.0,0.0,0.0,0.0,0.0,0.0,0.0,0.0,-1.2658,-1.2871,-1.3069,0.0,0.0,0.0,0.0,0.0,0.0,0.0,0.0,0.0,0.0,0.0,0.0,0.0,0.0,0.0,0.0,0.0,0.0,0.0,0.0,0.0,0.0,0.0,0.0,0.0,0.0,0.0,0.0,0.0,0.0,0.0,0.0,0.0,0.0,0.0,0.0,0.0,0.0,0.0,0.0,0.0,-0.4484,-0.4488,0.0,0.0,0.0,0.0,0.0,0.0,0.0,0.0,0.0,0.0,0.0,-0.5021,-0.5021,-0.5021,-0.5021,-0.5021,-0.5021,-0.5021,-0.5021,-0.5021,-0.5021,-0.5021,-0.5021,-0.5021,-0.5021,-0.5021,-0.5021,-0.5021,-0.5021,0.0,-0.5021,-0.5021,-0.5021,-0.5021,-0.5647,-0.6429,-0.6429,-0.6898,-0.7525,-0.7525,-0.7525,-0.7679,0.0,0.0,0.0,0.0,0.0,0.0,0.0,0.0,0.0,0.0,0.0,0.0,0.0,0.0,0.0,0.0,0.0,0.0,0.0,0.0,0.0,0.0,0.0,0.0,0.0,0.0,0.0,-1.2441,-1.2658,-1.2871,-1.3069,-1.3287,0.0,0.0,0.0,0.0,0.0,0.0,0.0,0.0,0.0,0.0,0.0,0.0,0.0,0.0,-1.3688,-1.3688,0.0,0.0,0.0,0.0,0.0,0.0,0.0,0.0,-1.0301,-0.8848,-0.6548,0.0,-0.4901,-0.4272,0.0,0.0,0.0,0.0,0.0,0.0,0.0,0.0,0.0,0.0,0.0,0.0,0.0,0.0,0.0,0.0,0.0,0.0,0.0,0.0,0.0,0.0,0.0,-0.5021,-0.5021,-0.5021,-0.5021,-0.5021,-0.5021,-0.5021,-0.5021,-0.5021,-0.5021,-0.5021,-0.5021,-0.5021,-0.5021,-0.5021,-0.5021,-0.5021,-0.5021,-0.5021,-0.5021,-0.5334,-0.596,-0.596,-0.6429,-0.7213,-0.7213,-0.7369,-0.7525,-0.7525,-0.7525,-0.7835,0.0,0.0,0.0,0.0,0.0,0.0,0.0,0.0,0.0,0.0,0.0,0.0,0.0,0.0,0.0,0.0,0.0,0.0,0.0,0.0,0.0,0.0,0.0,0.0,0.0,0.0,0.0,0.0,0.0,-1.2772,0.0,0.0,0.0,0.0,0.0,0.0,0.0,0.0,0.0,0.0,-1.3688,0.0,0.0,0.0,0.0,0.0,-1.3688,-1.3688,0.0,-1.3688,-1.3688,-1.3688,0.0,0.0,0.0,0.0,-1.0425,-0.9451,-0.7008,-0.5916,-0.5281,-0.4383,-0.4217,-0.4308,0.0,0.0,0.0,0.0,0.0,0.0,0.0,0.0,0.0,0.0,0.0,0.0,0.0,0.0,0.0,0.0,0.0,0.0,0.0,0.0,-0.5021,-0.5021,-0.5021,-0.5021,-0.5021,-0.5021,-0.5021,-0.5021,-0.5021,-0.5021,-0.5021,-0.5021,-0.5021,-0.5021,-0.5334,-0.5647,-0.5647,-0.596,-0.6116,-0.6116,-0.6116,-0.6429,-0.6898,-0.6898,-0.7369,-0.8152,-0.8152,-0.8308,-0.8771,-0.9239,-0.9547,-0.9856,0.0,0.0,0.0,0.0,0.0,0.0,0.0,0.0,0.0,0.0,0.0,0.0,0.0,0.0,0.0,0.0,0.0,0.0,0.0,0.0,0.0,0.0,0.0,0.0,0.0,0.0,0.0,0.0,0.0,0.0,0.0,0.0,0.0,0.0,0.0,0.0,0.0,0.0,0.0,0.0,-1.3688,0.0,0.0,0.0,0.0,0.0,0.0,0.0,0.0,-1.3688,-1.3688,-1.3688,-1.3569,0.0,0.0,0.0,0.0,0.0,-0.7641,-0.6677,-0.5921,-0.4639,-0.4217,-0.4308,0.0,0.0,0.0,0.0,0.0,0.0,0.0,0.0,0.0,0.0,0.0,0.0,0.0,0.0,0.0,0.0,0.0,0.0,0.0,-0.5021,-0.5021,-0.5177,-0.5177,-0.5177,-0.5334,-0.5334,-0.5334,-0.5334,-0.5334,-0.5334,-0.5334,-0.5334,-0.5334,-0.5334,-0.6116,-0.6429,-0.6429,-0.7213,-0.7525,-0.7525,-0.7525,0.0,-0.7681,-0.7681,-0.8152,-0.8934,-0.9246,-0.9711,-1.0486,-1.1724,-1.2189,-1.2498,0.0,0.0,0.0,0.0,0.0,0.0,0.0,0.0,0.0,0.0,0.0,0.0,0.0,0.0,0.0,0.0,0.0,0.0,0.0,0.0,0.0,0.0,0.0,0.0,0.0,0.0,0.0,0.0,0.0,0.0,-1.3065,-1.3065,-1.3287,0.0,0.0,0.0,0.0,-1.3688,-1.3688,-1.3688,-1.3688,0.0,0.0,0.0,0.0,0.0,0.0,0.0,0.0,-1.3688,-1.3688,-1.3569,-1.2719,0.0,0.0,0.0,0.0,0.0,-0.7978,-0.735,-0.6937,-0.5278,-0.4611,-0.4308,0.0,0.0,0.0,0.0,0.0,0.0,0.0,0.0,0.0,0.0,0.0,0.0,0.0,0.0,0.0,0.0,0.0,0.0,0.0,-0.5021,-0.5334,-0.6116,-0.6116,-0.6429,-0.7055,-0.7056,-0.7056,-0.7056,-0.7056,-0.7056,-0.7056,-0.6429,-0.6429,-0.7056,-0.7213,-0.7369,-0.7369,-0.7369,-0.7525,-0.7525,0.0,-0.7996,-0.8622,-0.8622,-0.9088,-0.9864,-1.0952,-1.1572,-1.1724,-1.2954,-1.3414,-1.3568,0.0,0.0,0.0,0.0,0.0,0.0,0.0,0.0,0.0,0.0,0.0,0.0,0.0,0.0,0.0,0.0,0.0,0.0,0.0,0.0,0.0,0.0,0.0,0.0,0.0,0.0,0.0,0.0,0.0,-1.2654,-1.3069,-1.3296,-1.3504,-1.3688,0.0,0.0,0.0,-1.3688,-1.3688,-1.3688,0.0,0.0,0.0,0.0,0.0,0.0,0.0,0.0,0.0,0.0,-1.3688,-1.3569,-1.3204,0.0,0.0,0.0,0.0,0.0,-0.9119,-0.8494,-0.7837,-0.6237,-0.5033,-0.4308,0.0,0.0,0.0,0.0,0.0,0.0,0.0,0.0,0.0,0.0,0.0,0.0,0.0,0.0,0.0,0.0,0.0,0.0,-0.5644,-0.6116,-0.6586,-0.69,-0.69,-0.7055,-0.7525,-0.7525,-0.7525,-0.7525,-0.7525,-0.7681,-0.8152,-0.784,-0.7525,-0.7525,-0.7996,-0.8152,-0.8152,-0.8618,-0.8929,-0.8927,0.0,-1.0172,-1.0486,-1.1256,-1.1718,-1.2027,-1.2646,-1.28,-1.2954,-1.4337,-1.5109,-1.5727,0.0,0.0,0.0,0.0,0.0,0.0,0.0,0.0,0.0,0.0,0.0,0.0,0.0,0.0,0.0,0.0,0.0,0.0,0.0,0.0,0.0,0.0,0.0,0.0,0.0,0.0,0.0,-1.2441,-1.2441,-1.2654,-1.3079,-1.3495,-1.3688,0.0,0.0,0.0,0.0,-1.3688,-1.3688,-1.3688,0.0,0.0,0.0,0.0,0.0,0.0,0.0,0.0,0.0,0.0,0.0,0.0,0.0,0.0,0.0,-1.2238,-1.2268,-1.1849,-0.9915,-0.9295,-0.8788,-0.6843,0.0,-0.4308,0.0,0.0,0.0,0.0,0.0,0.0,0.0,0.0,0.0,0.0,0.0,0.0,0.0,0.0,0.0,0.0,-0.6038,-0.6586,-0.6586,-0.7213,-0.7525,-0.784,-0.784,-0.7838,-0.815,-0.815,-0.815,-0.815,-0.815,-0.8618,-0.9555,-0.9555,-0.9085,-0.815,-0.9088,-0.9555,-0.9555,-1.0483,-1.0793,-1.0949,-1.1876,-1.2343,-1.2343,-1.3263,-1.3722,-1.3722,-1.403,-1.4337,-1.4649,-1.5722,-1.6649,-1.7426,0.0,0.0,0.0,0.0,0.0,0.0,0.0,0.0,0.0,0.0,0.0,0.0,0.0,0.0,0.0,0.0,0.0,0.0,0.0,0.0,0.0,0.0,0.0,0.0,0.0,-1.2441,-1.2441,-1.2441,-1.2441,-1.2654,-1.3079,-1.3495,-1.3688,-1.3688,0.0,0.0,0.0,-1.3688,-1.3688,-1.3688,-1.3688,0.0,0.0,0.0,0.0,0.0,0.0,0.0,0.0,0.0,0.0,0.0,0.0,0.0,-1.3449,-1.2479,-1.2239,-1.1913,-0.9671,-0.9691,-0.9707,-0.7073,0.0,0.0,0.0,0.0,0.0,0.0,0.0,0.0,0.0,0.0,0.0,0.0,0.0,0.0,0.0,0.0,0.0,-0.6143,-0.6844,-0.7369,-0.7369,-0.7525,-0.7838,-0.8622,-0.8778,-0.9088,-0.9708,-0.9864,-0.9864,-0.9864,-0.9864,-1.0486,-1.1727,-1.1727,-1.1107,-0.9864,-1.1107,-1.1727,-1.1727,-1.2954,-1.3414,-1.3414,-1.3571,-1.3568,-1.3568,-1.3722,-1.3722,-1.3876,-1.4952,-1.6186,-1.7116,-1.7273,-1.7273,-1.7426,0.0,0.0,0.0,0.0,0.0,0.0,0.0,0.0,0.0,0.0,0.0,0.0,0.0,0.0,0.0,0.0,0.0,0.0,0.0,0.0,0.0,0.0,0.0,-1.2441,-1.2441,-1.2441,-1.2441,-1.2441,-1.2701,-1.298,-1.3273,-1.3556,0.0,0.0,0.0,0.0,0.0,-1.3688,-1.3688,-1.3688,-1.3688,-1.3688,0.0,0.0,0.0,0.0,0.0,0.0,0.0,0.0,-1.3324,0.0,0.0,0.0,-1.2866,-1.3238,-1.3333,-1.3084,-1.1599,-1.0816,-0.9856,-0.7616,0.0,0.0,0.0,0.0,0.0,0.0,0.0,0.0,0.0,0.0,0.0,0.0,0.0,0.0,0.0,0.0,-0.6832,-0.6917,-0.778,-0.8308,-0.8308,-0.8774,-0.9241,-0.9555,-0.9555,-0.9711,-1.0019,-1.0019,-1.033,-1.1107,-1.1107,-1.1724,-1.2954,-1.2954,-1.28,-1.2333,-1.28,-1.2954,-1.2954,-1.3417,-1.3722,-1.3722,-1.4491,-1.4952,-1.4952,-1.5727,-1.6033,-1.6033,-1.6496,-1.6963,-1.7426,-1.7426,-1.7426,-1.7426,0.0,0.0,0.0,0.0,0.0,0.0,0.0,0.0,0.0,0.0,0.0,0.0,0.0,0.0,0.0,0.0,0.0,0.0,0.0,0.0,0.0,0.0,0.0,-1.255,-1.2441,-1.2441,-1.2441,-1.2441,-1.2862,-1.3178,-1.3395,0.0,0.0,0.0,0.0,0.0,0.0,0.0,-1.3688,-1.3688,-1.3688,-1.3688,0.0,0.0,0.0,0.0,0.0,0.0,0.0,0.0,0.0,0.0,0.0,0.0,0.0,0.0,-1.356,-1.2923,-1.2086,-1.116,-1.0048,0.0,0.0,0.0,0.0,0.0,0.0,0.0,0.0,0.0,0.0,0.0,0.0,0.0,0.0,0.0,0.0,0.0,-0.7742,-0.7838,-0.9019,-0.9711,-0.9711,-1.0638,-1.1101,-1.1101,-1.1101,-1.1101,-1.1101,-1.1101,-1.1566,-1.2498,-1.2494,-1.3109,-1.4337,-1.4337,-1.4491,-1.4802,-1.4802,-1.4645,-1.4337,-1.4649,-1.4802,-1.4956,-1.5722,-1.6186,-1.6186,-1.7116,-1.7426,-1.7426,-1.7426,-1.7426,-1.7426,-1.7426,-1.7426,-1.7426,0.0,0.0,0.0,0.0,0.0,0.0,0.0,0.0,0.0,0.0,0.0,0.0,0.0,0.0,0.0,0.0,0.0,0.0,0.0,0.0,0.0,0.0,0.0,-1.2985,-1.2441,-1.2441,-1.2446,-1.2446,-1.2862,-1.3178,-1.3395,-1.3599,0.0,0.0,0.0,0.0,0.0,0.0,0.0,-1.3688,-1.3688,-1.3688,-1.3688,0.0,0.0,0.0,0.0,0.0,0.0,0.0,0.0,0.0,0.0,0.0,0.0,0.0,-1.2648,-1.1049,-1.0561,-1.0326,0.0,0.0,0.0,0.0,0.0,0.0,0.0,0.0,0.0,0.0,0.0,0.0,0.0,0.0,0.0,0.0,0.0,0.0,-0.85,-0.8605,-1.056,-1.1879,-1.1879,-1.2954,-1.3722,-1.3722,-1.3722,-1.3722,-1.3722,-1.3722,-1.3722,-1.3722,-1.3722,-1.4337,-1.5565,-1.5565,-1.6186,-1.7426,-1.7426,-1.6802,-1.5718,-1.6806,-1.7426,-1.7426,-1.7426,-1.7426,-1.7426,-1.7426,-1.7426,-1.7426,-1.7426,-1.7426,-1.7426,-1.7426,-1.7426,-1.7426,0.0,0.0,0.0,0.0,0.0,0.0,0.0,0.0,0.0,0.0,0.0,0.0,0.0,0.0,0.0,0.0,0.0,0.0,0.0,0.0,0.0,0.0,0.0,0.0,0.0,0.0,-1.2739,-1.288,-1.3008,-1.3249,0.0,0.0,0.0,-1.3688,0.0,0.0,0.0,0.0,0.0,-1.3688,-1.296,-1.3084,-1.3569,0.0,0.0,0.0,0.0,0.0,0.0,0.0,0.0,0.0,0.0,0.0,0.0,-1.3867,-1.376,-1.3113,-1.2263,0.0,0.0,0.0,0.0,0.0,0.0,0.0,0.0,0.0,0.0,0.0,0.0,0.0,0.0,-0.9443,-0.9013,-0.8907,-0.9903,-1.0249,-1.0764,-1.1642,-1.2299,-1.2824,-1.2942,-1.3253,-1.3603,-1.3714,-1.3722,-1.3722,-1.3722,-1.3722,-1.4184,-1.4948,-1.5105,-1.5569,-1.6806,-1.6806,-1.7116,-1.7426,-1.7426,-1.7269,-1.6806,-1.7273,-1.7426,-1.7426,-1.7426,-1.7426,-1.7426,-1.7426,-1.7426,-1.7426,-1.7426,-1.7426,-1.7426,-1.7426,-1.7426,-1.7426,0.0,0.0,0.0,0.0,0.0,0.0,0.0,0.0,0.0,0.0,0.0,0.0,0.0,0.0,0.0,0.0,0.0,0.0,0.0,0.0,0.0,0.0,0.0,0.0,0.0,-1.2654,-1.2866,0.0,0.0,0.0,0.0,0.0,0.0,-1.3688,0.0,-1.3688,0.0,0.0,0.0,-1.3084,-1.284,-1.2964,-1.3084,0.0,0.0,0.0,0.0,0.0,0.0,0.0,0.0,0.0,0.0,0.0,0.0,-1.406,-1.4057,-1.3509,-1.3114,0.0,0.0,0.0,0.0,0.0,0.0,0.0,0.0,0.0,0.0,0.0,0.0,0.0,0.0,-1.0596,-1.0596,-1.0913,-1.1728,-1.1786,-1.215,-1.2975,-1.3489,-1.3866,-1.3971,-1.4437,-1.4785,-1.4888,-1.4896,-1.4896,-1.4896,-1.4896,-1.5349,-1.6108,-1.6179,-1.6527,-1.7298,-1.7383,-1.7426,-1.7426,-1.7426,-1.7426,-1.7426,-1.7426,-1.7426,-1.7426,-1.7426,-1.7426,-1.7426,-1.7426,-1.7426,-1.7426,-1.7426,-1.7426,-1.7426,-1.7426,-1.7426,-1.7426,0.0,0.0,0.0,0.0,0.0,0.0,0.0,0.0,0.0,0.0,0.0,0.0,0.0,0.0,0.0,0.0,0.0,0.0,0.0,0.0,0.0,0.0,0.0,0.0,0.0,0.0,0.0,0.0,0.0,0.0,0.0,0.0,-1.3688,-1.3688,0.0,-1.3688,0.0,0.0,0.0,0.0,-1.3204,-1.2964,-1.2234,-1.3084,0.0,0.0,0.0,0.0,0.0,0.0,0.0,0.0,0.0,0.0,0.0,-1.4065,-1.3551,-1.2868,0.0,0.0,0.0,0.0,0.0,0.0,0.0,0.0,0.0,0.0,0.0,0.0,0.0,0.0,0.0,-1.2606,-1.2749,-1.2749,-1.2892,-1.3013,-1.3107,-1.3252,-1.4265,-1.5112,-1.5129,-1.6177,-1.6783,-1.6802,-1.6802,-1.6802,-1.6802,-1.6802,-1.6802,-1.6802,-1.6982,-1.7076,-1.7076,-1.7289,-1.7398,-1.7398,-1.7416,-1.7426,-1.7426,-1.7426,-1.7426,-1.7426,-1.7426,-1.7426,-1.7426,-1.7426,-1.7426,-1.7426,-1.7426,-1.7426,-1.7426,-1.7426,-1.7426,-1.7426,0.0,0.0,0.0,0.0,0.0,0.0,0.0,0.0,0.0,0.0,0.0,0.0,0.0,0.0,0.0,0.0,0.0,0.0,0.0,0.0,0.0,0.0,0.0,0.0,0.0,0.0,0.0,0.0,0.0,0.0,0.0,0.0,0.0,-1.3688,0.0,-1.3688,0.0,0.0,0.0,0.0,0.0,-1.2359,-1.2113,-1.1635,-1.1273,0.0,0.0,0.0,0.0,0.0,0.0,0.0,0.0,-1.3084,-1.3648,-1.3314,-1.3551,0.0,0.0,0.0,0.0,0.0,0.0,0.0,0.0,0.0,0.0,0.0,0.0,0.0,0.0,0.0,0.0,-1.2749,-1.2749,-1.3035,-1.403,-1.4202,-1.4517,-1.5381,-1.5707,-1.5942,-1.6094,-1.6402,-1.6623,-1.6793,-1.6802,-1.6802,-1.6802,-1.6802,-1.6802,-1.6802,-1.6845,-1.6868,-1.6868,-1.7072,-1.7171,-1.7175,-1.7346,-1.7426,-1.7426,-1.7426,-1.7426,-1.7426,-1.7426,-1.7426,-1.7426,-1.7426,-1.7426,-1.7426,-1.7426,-1.7426,-1.7426,-1.7426,-1.7426,-1.7426,0.0,0.0,0.0,0.0,0.0,0.0,0.0,0.0,0.0,0.0,0.0,0.0,0.0,0.0,0.0,0.0,0.0,0.0,0.0,0.0,0.0,0.0,0.0,0.0,0.0,0.0,0.0,0.0,0.0,0.0,0.0,0.0,0.0,-1.3688,0.0,-1.3688,0.0,0.0,0.0,0.0,0.0,0.0,-1.0785,-1.0789,-1.0789,-1.0789,-1.0183,0.0,0.0,0.0,0.0,0.0,0.0,0.0,-1.3157,-1.3465,-1.4005,-1.4275,0.0,0.0,0.0,0.0,0.0,0.0,0.0,0.0,0.0,0.0,0.0,0.0,0.0,0.0,0.0,-1.3603,-1.4034,-1.4608,-1.5177,-1.5319,-1.5465,-1.6178,-1.6183,-1.6221,-1.633,-1.6339,-1.6386,-1.65,-1.6505,-1.6505,-1.6505,-1.6505,-1.6505,-1.6505,-1.6599,-1.6651,-1.6651,-1.6859,-1.6963,-1.6963,-1.7171,-1.7327,-1.7426,-1.7426,-1.7426,-1.7426,-1.7426,-1.7426,-1.7426,-1.7426,-1.7426,-1.7426,-1.7426,-1.7426,-1.7426,-1.7426,-1.7426,-1.7426,0.0,0.0,0.0,0.0,0.0,0.0,0.0,0.0,0.0,0.0,0.0,0.0,0.0,0.0,0.0,0.0,0.0,0.0,0.0,0.0,0.0,0.0,0.0,0.0,0.0,0.0,0.0,0.0,0.0,0.0,0.0,0.0,0.0,-1.3688,0.0,0.0,0.0,0.0,0.0,0.0,0.0,0.0,0.0,-1.0668,-1.091,-1.0789,-1.0547,-1.1269,-1.2113,-1.1152,0.0,0.0,0.0,0.0,-1.2917,-1.3747,-1.4337,-1.4419,0.0,0.0,0.0,0.0,0.0,0.0,0.0,0.0,0.0,0.0,0.0,0.0,0.0,0.0,-1.4746,-1.4746,-1.5607,-1.6183,-1.6183,-1.6183,-1.6183,-1.6183,-1.6183,-1.6183,-1.6183,-1.6183,-1.6183,-1.6183,-1.6183,-1.6183,-1.6183,-1.6183,-1.6183,-1.6183,-1.6344,-1.6429,-1.6429,-1.6642,-1.675,-1.675,-1.6953,-1.7161,-1.7374,-1.7374,-1.7393,-1.7426,-1.7426,-1.7426,-1.7426,-1.7426,-1.7426,-1.7426,-1.7426,-1.7426,-1.7426,-1.7426,-1.7426,-1.7426,0.0,0.0,0.0,0.0,0.0,0.0,0.0,0.0,0.0,0.0,0.0,0.0,0.0,0.0,0.0,0.0,0.0,0.0,-1.5891,0.0,0.0,-1.4476,-1.3416,0.0,0.0,0.0,0.0,0.0,0.0,0.0,0.0,0.0,0.0,-1.3688,0.0,0.0,0.0,0.0,0.0,0.0,0.0,0.0,0.0,-1.1993,-1.1514,-1.0668,-0.9822,-1.0668,-1.2113,-1.1152,-1.1997,0.0,0.0,0.0,-1.3678,-1.3247,-1.3825,0.0,0.0,0.0,0.0,0.0,0.0,0.0,0.0,0.0,0.0,0.0,0.0,0.0,0.0,0.0,-1.6037,-1.6037,-1.6042,-1.6183,-1.6183,-1.6183,-1.6183,-1.6183,-1.6183,-1.6183,-1.6183,-1.6183,-1.6183,-1.6183,-1.6183,-1.6183,-1.6183,-1.6183,-1.6183,-1.6183,-1.6207,-1.6221,-1.6221,-1.6424,-1.6523,-1.6528,-1.6741,-1.6953,-1.7147,-1.7147,-1.7251,-1.7426,-1.7426,-1.7426,-1.7426,-1.7426,-1.7426,-1.7426,-1.7426,-1.7426,-1.7426,-1.7426,-1.7426,-1.7426,0.0,0.0,0.0,0.0,0.0,0.0,0.0,0.0,0.0,0.0,0.0,0.0,0.0,0.0,0.0,-1.5891,-1.5891,-1.5958,-1.6115,-1.5158,-1.4616,-1.4729,-1.373,-1.3202,0.0,0.0,0.0,0.0,0.0,0.0,0.0,-1.3688,-1.3688,0.0,0.0,0.0,0.0,0.0,0.0,0.0,0.0,0.0,0.0,0.0,-1.1511,-1.1511,-1.1027,-1.1877,-1.284,-1.1872,-1.218,-1.2999,-1.2508,0.0,0.0,0.0,-1.4254,0.0,0.0,0.0,0.0,0.0,0.0,0.0,0.0,0.0,0.0,0.0,0.0,0.0,0.0,0.0,-1.6183,-1.6183,-1.6183,-1.6183,-1.6183,-1.6183,-1.6183,-1.6183,-1.6183,-1.6183,-1.6183,-1.6183,-1.6183,-1.6183,-1.6183,-1.6183,-1.6183,-1.6183,-1.6183,-1.6183,-1.6183,-1.6183,-1.6183,-1.6268,-1.6367,-1.6481,-1.658,-1.6731,-1.6939,-1.7053,-1.7223,-1.7426,-1.7426,-1.7426,-1.7426,-1.7426,-1.7426,-1.7426,-1.7426,-1.7426,-1.7426,-1.7426,-1.7426,-1.7426,0.0,0.0,0.0,0.0,0.0,0.0,0.0,0.0,0.0,0.0,0.0,0.0,0.0,0.0,0.0,0.0,-1.6054,-1.6187,-1.6392,-1.5574,-1.5134,-1.4966,-1.4109,-1.3527,-1.3466,0.0,0.0,0.0,0.0,0.0,-1.3688,-1.3688,-1.3688,0.0,-1.3688,0.0,0.0,0.0,0.0,0.0,0.0,0.0,0.0,0.0,0.0,0.0,-1.2234,-1.2875,-1.3648,-1.2669,-1.2551,-1.2947,-1.2947,-1.3182,0.0,0.0,0.0,0.0,0.0,0.0,0.0,0.0,0.0,0.0,0.0,0.0,0.0,0.0,0.0,0.0,0.0,-1.6183,-1.6183,-1.6183,-1.6183,-1.6183,-1.6183,-1.6183,-1.6183,-1.6183,-1.6183,-1.6183,-1.6183,-1.6183,-1.6183,-1.6183,-1.6183,-1.6183,-1.6183,-1.6183,-1.6183,-1.6183,-1.6183,-1.6183,-1.6183,-1.6183,-1.6259,-1.6405,-1.6405,-1.6514,-1.6727,-1.6878,-1.709,-1.7346,-1.7402,-1.7426,-1.7426,-1.7426,-1.7426,-1.7426,-1.7426,-1.7426,-1.7426,-1.7426,-1.7426,-1.7426,0.0,0.0,0.0,0.0,0.0,0.0,0.0,0.0,0.0,0.0,0.0,0.0,-1.5891,-1.6109,-1.626,-1.626,-1.6501,-1.6664,-1.6676,-1.6115,-1.554,-1.5198,-1.4645,0.0,-1.367,0.0,0.0,0.0,0.0,0.0,-1.3688,-1.3688,-1.3688,-1.3688,-1.3688,-1.3688,-1.3688,0.0,0.0,0.0,0.0,0.0,0.0,0.0,0.0,0.0,0.0,-1.2964,-1.3868,-1.2865,-1.3243,-1.4168,-1.4168,-1.4323,-1.4505,0.0,0.0,0.0,0.0,0.0,0.0,0.0,0.0,0.0,0.0,0.0,0.0,0.0,0.0,0.0,0.0,-1.6183,-1.6183,-1.6183,-1.6183,-1.6183,-1.6183,-1.6183,-1.6183,-1.6183,-1.6183,-1.6183,-1.6183,-1.6183,-1.6183,-1.6183,-1.6183,-1.6183,-1.6183,-1.6183,-1.6183,-1.6183,-1.6183,-1.6183,-1.6183,-1.6183,-1.6188,-1.6197,-1.6197,-1.6306,-1.65,-1.6509,-1.6736,-1.7133,-1.7336,-1.7426,-1.7426,-1.7426,-1.7426,-1.7426,-1.7426,-1.7426,-1.7426,-1.7426,-1.7426,-1.7426,0.0,0.0,0.0,0.0,0.0,0.0,0.0,0.0,0.0,0.0,0.0,0.0,0.0,-1.6495,-1.6549,-1.6549,-1.6797,-1.6954,-1.6954,-1.6183,-1.5609,-1.5461,-1.4523,-1.3851,-1.3688,-1.3688,0.0,0.0,0.0,-1.3688,-1.3688,-1.3688,-1.3688,-1.3688,-1.3688,-1.3688,-1.3688,-1.3688,0.0,0.0,0.0,0.0,0.0,0.0,0.0,0.0,0.0,0.0,-1.4079,-1.3821,-1.4085,-1.4515,-1.4515,-1.4657,-1.4827,-1.4827,-1.4874,-1.4931,-1.4931,0.0,0.0,0.0,0.0,0.0,0.0,0.0,0.0,0.0,0.0,0.0,0.0,-1.6183,-1.6183,-1.6183,-1.6183,-1.6183,-1.6183,-1.6183,-1.6183,-1.6183,-1.6183,-1.6183,-1.6183,-1.6183,-1.6183,-1.6183,-1.6183,-1.6183,-1.6183,-1.6183,-1.6183,-1.6183,-1.6183,-1.6183,-1.6183,-1.6183,-1.6183,-1.6183,-1.6183,-1.6221,-1.6297,-1.6424,-1.6637,-1.6925,-1.7133,-1.7298,-1.7426,-1.7426,-1.7426,-1.7426,-1.7426,-1.7426,-1.7426,-1.7426,-1.7426,-1.7426,0.0,0.0,0.0,0.0,0.0,0.0,0.0,0.0,0.0,0.0,0.0,0.0,0.0,0.0,-1.641,-1.6383,-1.6547,-1.664,-1.664,-1.5981,-1.5477,-1.5235,-1.4401,-1.3923,-1.3688,-1.3622,0.0,0.0,0.0,0.0,0.0,-1.3688,-1.3688,-1.3688,-1.3688,-1.3688,0.0,0.0,0.0,-1.3688,0.0,0.0,-1.3797,0.0,0.0,0.0,0.0,0.0,-1.4421,-1.4421,-1.4558,-1.4733,-1.4733,-1.4827,-1.4931,-1.4931,-1.4931,-1.4931,-1.4931,0.0,0.0,0.0,0.0,0.0,0.0,0.0,0.0,0.0,0.0,0.0,0.0,-1.6183,-1.6183,-1.6183,-1.6183,-1.6183,-1.6183,-1.6183,-1.6183,-1.6183,-1.6183,-1.6183,-1.6183,-1.6183,-1.6183,-1.6183,-1.6183,0.0,-1.6183,-1.6183,-1.6183,-1.6183,-1.6183,-1.6183,-1.6183,-1.6183,-1.6183,-1.6183,-1.6183,-1.6183,-1.6188,-1.632,-1.6495,-1.6708,-1.6916,-1.7161,-1.7426,-1.7426,-1.7426,-1.7426,-1.7426,-1.7426,-1.7426,-1.7426,-1.7426,-1.7426,0.0,0.0,0.0,0.0,0.0,0.0,0.0,0.0,0.0,0.0,0.0,0.0,0.0,0.0,0.0,-1.5698,-1.5596,-1.5596,-1.5601,-1.5596,-1.5235,-1.4629,-1.4629,-1.4277,-1.3688,-1.3495,0.0,0.0,0.0,0.0,0.0,0.0,-1.3688,0.0,-1.3688,-1.3693,-1.3698,0.0,-1.3693,-1.3698,0.0,-1.383,-1.4019,0.0,0.0,0.0,-1.4322,-1.4459,0.0,-1.4643,0.0,-1.4931,-1.4931,-1.4931,-1.4931,-1.4931,-1.4931,-1.4931,0.0,0.0,0.0,0.0,0.0,0.0,0.0,0.0,0.0,0.0,0.0,0.0,0.0,-1.6183,-1.6183,-1.6183,-1.6183,-1.6183,-1.6183,-1.6183,-1.6183,-1.6183,-1.6183,-1.6183,-1.6183,-1.6183,-1.6183,-1.6183,-1.6183,-1.6183,-1.6183,-1.6183,-1.6183,-1.6183,-1.6183,-1.6183,-1.6183,-1.6183,-1.6183,-1.6183,-1.6183,-1.6183,-1.6183,-1.6183,-1.6292,-1.6495,-1.6708,-1.7038,-1.7416,-1.7426,-1.7426,-1.7426,-1.7426,-1.7426,-1.7426,-1.7426,-1.7426,-1.7426,0.0,0.0,0.0,0.0,0.0,0.0,0.0,0.0,0.0,0.0,0.0,0.0,-1.7267,-1.7211,-1.6932,-1.6295,-1.6301,-1.6065,-1.5596,-1.5116,-1.4748,-1.4629,-1.4157,-1.3923,-1.3688,-1.3636,0.0,0.0,0.0,0.0,0.0,0.0,0.0,0.0,-1.3688,-1.3773,-1.391,-1.3755,0.0,0.0,-1.3925,-1.4043,0.0,0.0,0.0,0.0,0.0,-1.4676,-1.4851,0.0,-1.4889,-1.4931,-1.4931,-1.4931,-1.4931,-1.4931,-1.4931,-1.4931,-1.4931,0.0,0.0,0.0,0.0,0.0,0.0,0.0,0.0,0.0,0.0,0.0,0.0,0.0,-1.6183,-1.6183,-1.6183,-1.6183,-1.6183,-1.6183,-1.6183,-1.6183,-1.6183,-1.6183,-1.6183,-1.6183,-1.6183,0.0,-1.6183,-1.6183,-1.6183,-1.6183,-1.6183,-1.6183,-1.6183,-1.6183,-1.6183,-1.6183,-1.6183,-1.6183,-1.6183,-1.6183,-1.6183,-1.6183,-1.6292,-1.6495,-1.6708,-1.6953,-1.7204,-1.736,-1.7426,-1.7426,-1.7426,-1.7426,-1.7426,-1.7426,-1.7426,-1.7426,0.0,0.0,0.0,0.0,0.0,0.0,0.0,0.0,0.0,0.0,0.0,0.0,0.0,-1.7126,-1.6655,-1.5822,-1.5704,-1.5467,-1.4883,-1.4401,-1.4277,-1.4277,-1.3923,-1.3688,-1.3688,-1.3608,0.0,0.0,0.0,0.0,0.0,0.0,0.0,0.0,0.0,0.0,0.0,0.0,0.0,0.0,-1.4137,0.0,0.0,-1.4444,-1.4577,0.0,0.0,0.0,-1.4931,-1.4931,-1.4931,-1.4931,-1.4931,-1.4931,-1.4931,-1.4931,-1.4931,-1.4931,-1.4931,-1.4997,0.0,0.0,0.0,0.0,-1.6108,-1.6183,0.0,0.0,0.0,0.0,0.0,0.0,-1.6183,-1.6183,-1.6183,-1.6183,-1.6183,-1.6183,-1.6183,-1.6183,-1.6183,-1.6183,-1.6183,-1.6183,-1.6183,-1.6183,-1.6183,-1.6183,-1.6183,-1.6183,-1.6183,-1.6183,-1.6183,-1.6183,-1.6183,-1.6183,-1.6183,-1.6183,-1.6183,-1.6183,-1.6183,-1.6183,-1.6245,-1.6372,-1.6675,-1.6873,-1.7001,-1.7303,-1.7426,-1.7426,-1.7426,-1.7426,-1.7426,-1.7426,-1.7426,-1.7426,0.0,0.0,0.0,0.0,0.0,0.0,0.0,0.0,0.0,0.0,0.0,0.0,0.0,-1.6655,-1.6177,-1.4867,-1.4748,-1.4396,-1.3803,-1.3688,-1.3688,-1.3688,-1.3688,-1.3688,-1.3688,-1.3514,0.0,0.0,0.0,0.0,0.0,0.0,0.0,0.0,0.0,0.0,0.0,0.0,0.0,-1.4378,-1.4355,-1.4473,0.0,0.0,-1.4789,-1.4964,-1.4964,-1.4983,-1.5002,-1.5002,-1.4988,-1.4964,-1.4964,-1.4964,-1.4964,-1.4941,-1.495,-1.4964,-1.4964,-1.5096,-1.529,-1.5531,-1.573,0.0,-1.6131,-1.6183,-1.6183,0.0,0.0,0.0,0.0,0.0,-1.6183,-1.6183,-1.6183,-1.6183,-1.6183,-1.6183,-1.6183,-1.6183,-1.6183,-1.6183,-1.6183,-1.6183,-1.6183,-1.6183,-1.6183,-1.6183,-1.6183,-1.6183,-1.6183,-1.6183,-1.6183,-1.6183,-1.6183,-1.6183,-1.6183,-1.6183,-1.6183,-1.6183,-1.6183,-1.6183,-1.6183,-1.6207,-1.6599,-1.6783,-1.6835,-1.7227,-1.7402,-1.7426,-1.7426,-1.7426,-1.7426,-1.7426,-1.7426,-1.7426,0.0,0.0,0.0,0.0,0.0,0.0,0.0,0.0,0.0,0.0,0.0,0.0,0.0,0.0,-1.7009,-1.6177,-1.5709,-1.5116,-1.4515,-1.3923,-1.3688,-1.3688,-1.3688,-1.3688,-1.3688,-1.3651,0.0,0.0,0.0,0.0,0.0,0.0,0.0,0.0,0.0,0.0,0.0,0.0,0.0,-1.4799,-1.4638,0.0,-1.4874,-1.4874,-1.5002,-1.5177,-1.5177,-1.529,-1.5437,-1.5437,-1.5323,-1.5177,-1.5177,-1.5177,-1.5144,-1.4978,-1.5049,-1.5177,-1.5177,-1.52,-1.5323,-1.5706,-1.5829,0.0,-1.6131,-1.6183,-1.6183,0.0,0.0,0.0,0.0,0.0,-1.6183,-1.6183,-1.6183,-1.6183,-1.6183,-1.6183,-1.6183,-1.6183,-1.6183,-1.6183,-1.6183,-1.6183,-1.6183,-1.6183,-1.6183,-1.6183,-1.6183,-1.6183,-1.6183,-1.6183,-1.6183,-1.6183,-1.6183,-1.6183,-1.6183,-1.6183,-1.6183,-1.6183,-1.6183,-1.6183,-1.6183,-1.6193,-1.6438,-1.6642,-1.6826,-1.7067,-1.727,-1.7426,-1.7426,-1.7426,-1.7426,-1.7426,-1.7426,-1.7426,0.0,0.0,0.0,0.0,0.0,0.0,0.0,0.0,0.0,0.0,0.0,0.0,0.0,0.0,0.0,-1.6537,-1.6183,-1.5828,-1.5116,-1.4878,-1.452,-1.4157,-1.4157,-1.4043,-1.3688,-1.3688,-1.3688,0.0,0.0,0.0,0.0,0.0,0.0,0.0,0.0,0.0,0.0,0.0,-1.4841,-1.4922,-1.4822,0.0,-1.4941,-1.5044,-1.5144,-1.5248,-1.5356,-1.5465,-1.556,-1.556,-1.5489,-1.5394,-1.5394,-1.5394,-1.5375,-1.5276,-1.5319,-1.5394,-1.5394,-1.547,-1.5597,-1.5805,-1.5942,0.0,0.0,-1.6183,-1.6183,-1.6183,-1.6183,-1.6183,-1.6183,0.0,-1.6183,-1.6183,-1.6183,-1.6183,-1.6183,-1.6183,-1.6183,-1.6183,-1.6183,-1.6183,-1.6183,-1.6183,-1.6183,-1.6183,-1.6183,-1.6183,-1.6183,-1.6183,-1.6183,-1.6183,-1.6183,-1.6183,-1.6183,-1.6183,-1.6183,-1.6183,-1.6183,-1.6183,-1.6183,-1.6183,-1.6183,-1.6193,-1.6396,-1.6604,-1.6821,-1.702,-1.7232,-1.7426,-1.7426,-1.7426,-1.7426,-1.7426,-1.7426,-1.7426,-1.7485,0.0,0.0,0.0,0.0,0.0,0.0,0.0,0.0,0.0,0.0,0.0,0.0,0.0,0.0,-1.6537,-1.6537,-1.6183,-1.5601,-1.5477,-1.5116,-1.451,-1.4391,-1.4157,-1.3688,-1.3688,-1.3707,-1.375,0.0,0.0,0.0,0.0,0.0,0.0,0.0,0.0,0.0,0.0,0.0,-1.4936,0.0,-1.4993,-1.5007,-1.5172,-1.5281,-1.5385,-1.5602,-1.5682,-1.5682,-1.5682,-1.5654,-1.5616,-1.5616,-1.5616,-1.5611,-1.5574,-1.5588,-1.5616,-1.5616,-1.5739,-1.5871,-1.5914,-1.6056,-1.6183,0.0,0.0,0.0,0.0,0.0,0.0,0.0,0.0,0.0,0.0,0.0,0.0,0.0,-1.6155,0.0,-1.6183,-1.6183,-1.6183,-1.6183,-1.6183,-1.6183,-1.6183,-1.6183,-1.6183,-1.6183,-1.6183,-1.6183,-1.6183,-1.6183,-1.6183,-1.6183,-1.6183,-1.6183,-1.6183,-1.6183,-1.6183,-1.6183,-1.6183,-1.6183,-1.6193,-1.6353,-1.6571,-1.6816,-1.6977,-1.7194,-1.7426,-1.7426,-1.7426,-1.7426,-1.7426,-1.7426,-1.7426,-1.7485,-1.7485,0.0,0.0,0.0,0.0,0.0,0.0,0.0,0.0,0.0,0.0,0.0,0.0,0.0,0.0,-1.6537,-1.6183,-1.5601,-1.4992,-1.4396,-1.3808,-1.3808,-1.3808,-1.3688,-1.3688,-1.3783,-1.3977,0.0,0.0,0.0,0.0,0.0,0.0,-1.4624,0.0,0.0,0.0,-1.4931,0.0,-1.5125,-1.5196,0.0,-1.5224,-1.5465,-1.5815,-1.6032,-1.6112,-1.6112,0.0,-1.5985,-1.5824,-1.5824,-1.5824,-1.5791,-1.5611,-1.5687,-1.5824,-1.5824,-1.5843,-1.5904,-1.6098,-1.6164,-1.6183,-1.6183,0.0,-1.6183,-1.6183,0.0,0.0,0.0,0.0,0.0,0.0,0.0,0.0,-1.5923,-1.606,-1.6183,-1.6183,-1.6183,-1.6183,-1.6183,-1.6183,-1.6183,-1.6183,-1.6183,-1.6183,-1.6183,-1.6183,-1.6183,-1.6183,-1.6183,-1.6183,-1.6183,-1.6183,-1.6183,-1.6183,-1.6183,-1.6183,-1.6183,-1.6183,-1.6183,-1.6183,-1.6207,-1.6443,-1.6807,-1.6831,-1.7072,-1.7426,-1.7426,-1.7426,-1.7426,-1.7426,-1.7426,-1.7426,-1.7485,-1.7485,0.0,0.0,0.0,0.0,0.0,0.0,0.0,0.0,0.0,0.0,0.0,0.0,0.0,0.0,-1.7588,-1.7225,-1.6613,-1.6243,-1.5629,-1.4656,-1.4656,-1.4416,-1.4052,-1.4048,-1.4095,-1.4185,-1.4185,0.0,0.0,0.0,0.0,0.0,-1.4808,0.0,-1.4931,0.0,-1.5002,0.0,0.0,0.0,0.0,-1.5597,-1.5782,-1.606,-1.615,-1.6183,-1.6183,-1.6183,-1.6122,-1.6046,-1.6046,-1.6046,-1.6032,-1.5947,-1.598,-1.6046,-1.6046,-1.6046,-1.607,-1.616,-1.6183,-1.6183,-1.6183,-1.6183,-1.6183,-1.6183,0.0,0.0,0.0,0.0,0.0,0.0,-1.6122,0.0,0.0,0.0,-1.6183,0.0,0.0,0.0,-1.6183,-1.6183,-1.6183,-1.6183,-1.6183,-1.6183,-1.6183,-1.6183,-1.6183,-1.6183,-1.6183,-1.6183,-1.6183,-1.6183,-1.6183,-1.6183,-1.6183,-1.6183,-1.6183,-1.6183,-1.6183,-1.6183,-1.6183,-1.6419,-1.6802,-1.6802,-1.7053,-1.7426,-1.7426,-1.7426,-1.7426,-1.7426,-1.7426,-1.7426,-1.7485,0.0,0.0,0.0,0.0,0.0,0.0,0.0,0.0,0.0,0.0,0.0,-1.7738,-1.8045,0.0,0.0,-1.8165,-1.8042,-1.7291,-1.7044,-1.6544,-1.5675,-1.5177,-1.4928,-1.4558,-1.4433,-1.434,-1.4402,0.0,0.0,0.0,0.0,0.0,0.0,0.0,-1.4931,-1.4936,0.0,-1.5101,-1.5243,-1.5356,-1.5621,-1.5947,-1.5947,-1.6046,-1.6183,-1.6183,-1.6183,-1.6183,-1.6183,-1.6183,-1.6183,-1.6183,-1.6183,-1.6183,-1.6183,-1.6183,-1.6183,-1.6183,-1.6183,-1.6183,-1.6183,-1.6183,-1.6183,-1.6183,-1.6183,-1.6183,-1.6183,-1.6183,0.0,0.0,0.0,-1.6164,0.0,0.0,-1.6164,0.0,-1.6145,0.0,0.0,0.0,0.0,0.0,-1.6183,-1.6183,-1.6183,-1.6183,-1.6183,-1.6183,-1.6183,-1.6183,-1.6183,-1.6183,-1.6183,-1.6183,-1.6183,-1.6183,-1.6183,-1.6183,-1.6183,-1.6183,-1.6183,-1.6183,-1.6183,-1.6183,-1.6419,-1.6802,-1.6802,-1.7053,-1.7426,-1.7426,-1.7426,-1.7426,-1.7426,-1.7426,-1.7426,-1.7485,-1.7485,0.0,0.0,0.0,0.0,0.0,0.0,0.0,0.0,0.0,0.0,0.0,0.0,0.0,-1.7403,-1.7913,-1.8036,-1.7397,-1.6662,-1.6291,-1.642,-1.5052,-1.4683,-1.5297,-1.4683,-1.4411,-1.4624,0.0,0.0,0.0,0.0,0.0,0.0,0.0,-1.4931,-1.4945,-1.5139,-1.5229,-1.5267,-1.5678,-1.5975,-1.6174,0.0,-1.6178,-1.6183,-1.6183,-1.6183,-1.6183,-1.6183,-1.6183,-1.6183,-1.6183,-1.6183,-1.6183,-1.6183,-1.6183,-1.6183,-1.6183,-1.6183,-1.6183,-1.6183,-1.6183,-1.6183,-1.6183,-1.6183,-1.6183,-1.6183,-1.6183,-1.6183,-1.6183,-1.6183,-1.6112,-1.5904,0.0,0.0,0.0,0.0,0.0,0.0,0.0,0.0,0.0,-1.6183,-1.6183,-1.6183,-1.6183,-1.6183,-1.6183,-1.6183,-1.6183,-1.6183,-1.6183,-1.6183,-1.6183,-1.6183,-1.6183,-1.6183,-1.6183,-1.6183,-1.6183,-1.6183,-1.6183,-1.6183,-1.6183,-1.6419,-1.6802,-1.6802,-1.7053,-1.7426,-1.7426,-1.7426,-1.7426,-1.7426,-1.7426,-1.7426,0.0,0.0,0.0,0.0,0.0,0.0,0.0,-1.7974,0.0,0.0,-1.8384,0.0,0.0,-1.883,-1.901,-1.906,-1.9214,-1.9,-1.8033,-1.7928,-1.7684,-1.713,-1.6608,-1.6219,-1.6089,-1.5688,-1.5272,-1.4832,-1.4832,0.0,0.0,0.0,0.0,0.0,0.0,-1.5007,0.0,0.0,0.0,0.0,0.0,-1.6117,-1.6183,0.0,-1.6183,-1.6183,-1.6183,-1.6183,-1.6183,-1.6183,-1.6183,-1.6183,-1.6183,-1.6183,-1.6183,-1.6183,-1.6183,-1.6183,-1.6183,-1.6183,-1.6183,-1.6183,-1.6183,-1.6183,-1.6183,-1.6183,-1.6183,-1.6183,-1.6183,-1.6183,-1.6183,-1.6183,-1.616,-1.6084,-1.6136,-1.616,0.0,0.0,0.0,0.0,0.0,0.0,0.0,0.0,-1.6183,-1.6183,-1.6183,-1.6183,-1.6183,-1.6183,-1.6183,-1.6183,-1.6183,-1.6183,-1.6183,-1.6183,-1.6183,-1.6183,-1.6183,-1.6183,-1.6183,-1.6183,-1.6183,-1.6183,-1.6183,-1.6334,-1.6599,-1.6745,-1.6968,-1.7227,-1.7369,-1.7426,-1.7426,-1.7426,-1.7426,-1.7426,-1.7768,0.0,0.0,0.0,0.0,0.0,0.0,0.0,0.0,0.0,-1.874,0.0,-1.9193,0.0,-1.9688,-1.9869,-1.9887,-1.9675,-1.8956,-1.8841,-1.8596,-1.8288,-1.7752,-1.7486,-1.7219,-1.6728,-1.6216,-1.5823,0.0,-1.5323,0.0,0.0,0.0,0.0,0.0,-1.5153,-1.5352,0.0,-1.5611,0.0,0.0,-1.6183,0.0,0.0,-1.6245,-1.6193,-1.6264,-1.6292,-1.6301,-1.6377,-1.6405,-1.6405,-1.6405,-1.6405,-1.6405,-1.6405,-1.6405,-1.6405,-1.6405,-1.6405,-1.6405,-1.6405,-1.6349,-1.6292,-1.6292,-1.6235,-1.6183,-1.6183,-1.6183,-1.6183,-1.6183,-1.6183,-1.6183,-1.6183,-1.6183,-1.6183,0.0,-1.6183,0.0,-1.6183,0.0,0.0,0.0,-1.6183,-1.6183,-1.6183,-1.6183,-1.6183,-1.6183,-1.6183,-1.6183,-1.6183,-1.6183,-1.6183,-1.6183,-1.6183,-1.6183,-1.6183,-1.6183,-1.6183,-1.6183,-1.6183,-1.6183,-1.6183,-1.6183,-1.6259,-1.6549,-1.6689,-1.692,-1.7128,-1.7341,-1.7426,-1.7426,-1.7426,-1.7426,-1.7426,0.0,0.0,0.0,0.0,-1.8143,0.0,0.0,0.0,-1.871,0.0,-1.9157,-1.9476,-1.9501,-1.9742,-1.9911,-1.9923,-1.9923,-1.9917,-1.9905,-1.9241,-1.9241,-1.9905,-1.8693,-1.8149,-1.8821,-1.7895,-1.7499,-1.7367,0.0,0.0,0.0,0.0,0.0,0.0,-1.5248,0.0,-1.5588,-1.5782,-1.5867,-1.5895,-1.6098,-1.6188,-1.6216,-1.641,-1.6367,-1.6235,-1.6429,-1.6495,-1.6528,-1.6736,-1.6802,-1.6802,-1.6802,-1.6802,-1.6802,-1.6802,-1.6802,-1.6802,-1.6802,-1.6802,-1.6802,-1.6802,-1.6651,-1.6495,-1.6495,-1.6349,-1.6212,-1.6202,-1.6197,-1.6193,-1.6183,-1.6183,-1.6183,-1.6183,-1.6183,-1.6183,-1.6183,-1.6183,-1.6183,-1.6183,-1.6183,-1.6183,-1.6183,-1.6183,-1.6183,-1.6183,-1.6183,-1.6183,0.0,-1.6183,-1.6183,-1.6183,-1.6183,-1.6183,-1.6183,-1.6183,-1.6183,-1.6183,-1.6183,-1.6183,-1.6183,-1.6183,-1.6183,-1.6183,-1.6183,-1.633,-1.6514,-1.6782,-1.6916,-1.7109,-1.7336,-1.7426,-1.7426,-1.7426,-1.7426,-1.7426,-1.8294,-1.845,-1.8625,0.0,-1.8668,-1.8583,0.0,0.0,0.0,0.0,-1.938,-1.9621,-2.0026,-2.0134,-2.0255,-2.0448,-2.0466,-2.0388,-2.0189,-2.0221,-2.0239,-2.0183,-1.9899,-1.9492,-1.9078,-1.8698,-1.8167,-1.7765,-1.7438,0.0,-1.7278,0.0,0.0,0.0,0.0,0.0,-1.5786,-1.5838,-1.5952,-1.6108,-1.616,-1.6273,-1.641,0.0,-1.6547,-1.6651,-1.6703,-1.6722,-1.6731,-1.6783,-1.6802,-1.6802,-1.6802,-1.6802,-1.6802,-1.6802,-1.6802,-1.6802,-1.6802,-1.6802,-1.6802,-1.6802,-1.6764,-1.6722,-1.6722,-1.6684,-1.6599,-1.6438,-1.6405,-1.6358,-1.6212,-1.6183,-1.6183,-1.6183,-1.6183,-1.6183,-1.6183,-1.6183,-1.6183,-1.6183,-1.6183,-1.6183,-1.6183,-1.6183,-1.6183,-1.6183,-1.6183,-1.6183,-1.6183,-1.6183,-1.6183,-1.6183,-1.6183,-1.6183,-1.6183,-1.6183,-1.6183,-1.6183,-1.6183,-1.6183,-1.6183,-1.6183,-1.6183,-1.6183,-1.6183,-1.6183,-1.6363,-1.6632,-1.6835,-1.6916,-1.7284,-1.7426,-1.7426,-1.7426,-1.7426,-1.7426,-1.8638,0.0,0.0,-1.9199,0.0,0.0,-1.9024,-1.9259,0.0,-1.9633,-1.9748,0.0,-2.0243,-2.0376,-2.0509,-2.0653,-2.0665,-2.0605,-2.0454,-2.0587,-2.0605,-2.0454,-2.0448,-2.0311,-1.9886,-1.964,-1.924,-1.8829,-1.8452,0.0,-1.8267,0.0,0.0,0.0,0.0,-1.7179,0.0,-1.6962,-1.7042,-1.7157,-1.6744,-1.6871,0.0,-1.673,-1.6755,-1.6949,-1.7043,-1.7015,-1.6949,-1.7043,-1.7076,-1.7076,-1.7076,-1.7076,-1.7076,-1.7076,-1.7076,-1.7076,-1.7076,-1.7076,-1.7076,-1.7076,-1.7005,-1.6934,-1.6934,-1.6868,-1.6769,-1.6646,-1.6623,-1.6556,-1.6353,-1.6311,-1.6282,-1.6197,-1.6183,-1.6183,-1.6183,-1.6183,-1.6183,-1.6183,-1.6183,-1.6183,-1.6183,-1.6183,-1.6183,-1.6183,-1.6183,-1.6183,0.0,-1.6183,-1.6183,-1.6183,-1.6183,-1.6183,-1.6183,-1.6183,-1.6183,-1.6183,-1.6183,-1.6183,-1.6183,-1.6183,-1.6183,-1.6183,-1.6183,-1.6282,-1.6323,-1.6703,-1.6859,-1.6968,-1.7298,-1.7426,-1.7426,-1.7426,-1.7426,-1.7426,0.0,0.0,0.0,0.0,0.0,0.0,0.0,-1.9748,0.0,-1.9935,0.0,-2.0291,-2.0327,-2.0533,-2.0665,-2.0665,-2.0665,-2.0665,-2.0665,-2.0665,-2.0665,-2.0665,-2.0665,-2.0665,-2.0665,-2.0442,-2.0327,-2.0327,-1.9416,-1.9036,0.0,0.0,0.0,0.0,0.0,0.0,0.0,-1.8406,-1.8412,-1.8137,-1.7616,-1.7338,-1.7409,-1.7053,-1.6968,-1.7171,-1.736,-1.7303,-1.7175,-1.736,-1.7426,-1.7426,-1.7426,-1.7426,-1.7426,-1.7426,-1.7426,-1.7426,-1.7426,-1.7426,-1.7426,-1.7426,-1.7284,-1.7147,-1.7147,-1.701,-1.6878,-1.6849,-1.6845,-1.6779,-1.6566,-1.65,-1.6424,-1.6249,-1.6202,-1.6183,-1.6183,-1.6183,-1.6183,-1.6183,-1.6183,0.0,-1.6183,-1.6183,-1.6183,-1.6183,-1.6183,-1.6183,0.0,0.0,-1.6183,-1.6183,-1.6183,-1.6183,-1.6183,-1.6183,-1.6183,-1.6183,-1.6183,-1.6183,-1.6183,-1.6183,-1.6183,-1.6183,-1.6183,-1.6266,-1.6494,-1.665,-1.6939,-1.7166,-1.735,-1.7426,-1.7426,-1.7426,-1.7426,-1.7426,0.0,0.0,0.0,0.0,0.0,-2.0134,-2.0134,-1.9996,-1.9965,-2.0183,-2.0249,-2.0358,-2.0575,-2.0641,-2.0665,-2.0665,-2.0665,-2.0665,-2.0665,-2.0665,-2.0665,-2.0665,-2.0665,-2.0665,-2.0665,-2.0623,-2.0599,-2.0599,-2.0413,-2.0389,-2.0389,0.0,0.0,0.0,0.0,0.0,-1.8406,-1.8406,0.0,-1.746,-1.7501,-1.7275,-1.6916,-1.6972,-1.7185,-1.7374,-1.7412,-1.7402,-1.7379,-1.7412,-1.7426,-1.7426,-1.7426,-1.7426,-1.7426,-1.7426,-1.7426,-1.7426,-1.7426,-1.7426,-1.7426,-1.7426,-1.7398,-1.7369,-1.7369,-1.7341,-1.7265,-1.709,-1.7053,-1.6991,-1.6783,-1.6599,-1.6471,-1.6434,-1.6292,-1.6183,-1.6183,-1.6183,-1.6183,-1.6183,-1.6183,-1.6183,-1.6183,-1.6183,-1.6183,-1.6183,-1.6183,0.0,0.0,0.0,-1.6183,0.0,-1.6183,-1.6183,0.0,-1.6183,-1.6183,-1.6183,-1.6183,-1.6183,-1.6183,-1.6183,-1.6183,-1.6183,-1.6183,-1.6266,-1.6494,-1.665,-1.7029,-1.7374,-1.7412,-1.7426,-1.7426,-1.7426,-1.7426,-1.7426,0.0,0.0,0.0,0.0,0.0,0.0,0.0,-2.037,-2.0334,-2.046,-2.0599,-2.0732,-2.0859,-2.1003,-2.1088,-2.1088,-2.1088,-2.1028,-2.0883,-2.0871,-2.081,-2.0678,-2.0665,-2.0665,-2.0665,-2.0665,-2.0665,-2.0665,-2.0665,-2.0665,-2.0665,0.0,0.0,0.0,0.0,-1.9959,0.0,0.0,0.0,-1.9182,-1.8866,-1.8843,-1.8738,-1.8397,-1.8431,-1.8633,-1.8633,-1.8633,-1.8481,-1.7731,-1.7426,-1.7426,-1.7426,-1.7426,-1.7426,-1.7426,-1.7426,-1.7426,-1.7426,-1.7426,-1.7426,-1.7426,-1.7426,-1.7426,-1.7426,-1.7426,-1.7398,-1.7294,-1.727,-1.7209,-1.7001,-1.6788,-1.6613,-1.65,-1.6401,-1.6301,-1.6197,-1.6183,-1.6183,-1.6183,-1.6183,-1.6183,-1.6183,-1.6183,-1.6183,-1.6183,0.0,0.0,0.0,0.0,-1.6183,0.0,0.0,0.0,-1.6183,0.0,-1.6183,-1.6183,-1.6183,-1.6183,-1.6183,-1.6183,-1.6183,-1.6183,-1.6183,-1.6415,-1.6664,-1.7038,-1.7246,-1.7426,-1.7426,-1.7426,-1.7426,-1.7426,-1.7426,-1.7426,0.0,-2.0014,0.0,0.0,-2.0406,-2.0515,-2.072,-2.0798,-2.0816,-2.0762,-2.0931,-2.1082,-2.1142,-2.1347,-2.148,-2.148,-2.148,-2.1384,-2.116,-2.1148,-2.1058,-2.0853,-2.078,-2.0756,-2.0756,-2.0696,-2.0665,-2.0665,-2.0665,-2.0641,-2.0587,-2.0641,0.0,0.0,0.0,0.0,0.0,0.0,-2.0871,-2.0781,-2.0312,-2.0161,-2.0376,-1.9834,-1.9671,-1.9838,-1.9838,-1.9838,-1.9542,-1.8334,-1.7726,-1.7726,-1.7726,-1.7574,-1.7426,-1.7426,-1.7426,-1.7426,-1.7426,-1.7426,-1.7426,-1.7426,-1.7426,-1.7426,-1.7426,-1.7426,-1.7426,-1.7426,-1.7426,-1.7374,-1.7204,-1.7005,-1.6812,-1.6642,-1.6538,-1.6424,-1.6268,-1.6212,-1.6183,-1.6183,-1.6183,-1.6183,-1.6183,-1.6183,-1.6183,-1.6183,-1.6183,0.0,-1.6183,0.0,0.0,0.0,-1.6183,-1.6183,-1.6183,-1.6183,-1.6183,-1.6183,-1.6183,-1.6183,-1.6183,-1.6183,-1.6183,-1.6183,-1.6183,-1.6419,-1.6835,-1.7256,-1.7426,-1.7426,-1.7426,-1.7426,-1.7426,-1.7426,-1.7426,-1.7426,0.0,0.0,0.0,0.0,0.0,-2.0991,-2.1022,-2.1239,-2.1311,-2.1058,-2.104,-2.1154,-2.1414,-2.1462,-2.148,-2.148,-2.148,-2.1468,-2.1438,-2.1438,-2.1426,-2.1408,-2.116,-2.1022,-2.1022,-2.0786,-2.0665,-2.0665,-2.0665,-2.0551,-2.0321,-2.0557,-2.0665,0.0,0.0,0.0,-2.0684,-2.0925,-2.0604,-2.0089,-2.0415,-2.0178,-1.9647,-1.972,-1.9817,-1.9838,-1.9838,-1.9838,-1.9838,-1.9687,-1.9082,-1.8471,-1.8471,-1.8025,-1.7426,-1.7426,-1.7426,-1.7426,-1.7426,-1.7426,-1.7426,-1.7426,-1.7426,-1.7426,-1.7426,-1.7426,-1.7426,-1.7426,-1.7426,-1.7421,-1.7398,-1.7223,-1.7067,-1.7048,-1.6727,-1.6476,-1.6457,-1.6297,-1.6183,-1.6183,-1.6183,-1.6183,-1.6183,-1.6183,-1.6183,-1.6183,-1.6183,-1.6183,-1.6183,0.0,0.0,-1.6183,-1.6183,-1.6183,-1.6183,-1.6183,-1.6183,-1.6183,-1.6183,-1.6183,-1.6183,-1.6183,-1.6183,-1.6183,-1.6183,-1.6419,-1.6835,-1.7256,-1.7426,-1.7426,-1.7426,-1.7426,-1.7426,-1.7426,-1.7426,-1.7426,0.0,0.0,0.0,0.0,0.0,0.0,0.0,-2.1408,-2.1498,-2.1541,-2.1547,-2.1589,-2.1704,-2.1854,-2.1951,-2.1951,-2.1951,-2.1885,-2.1722,-2.1716,-2.1643,-2.1486,-2.1372,-2.1233,-2.1064,-2.0955,-2.0822,-2.0665,-2.0665,-2.0617,-2.0515,-2.0617,-2.0665,-2.0665,-2.0665,-2.0756,-2.0907,-2.1016,-2.1102,-2.1118,-2.1331,-2.1361,-2.1204,-2.1314,-2.1354,-2.1354,-2.1354,-2.1354,-2.1354,-2.1354,-2.0441,-1.938,-1.938,-1.8779,-1.8172,-1.8172,-1.8172,-1.8025,-1.7578,-1.7726,-1.8025,-1.7578,-1.7426,-1.7426,-1.7426,-1.7426,-1.7426,-1.7426,-1.7426,-1.7426,-1.7426,-1.7355,-1.7256,-1.7128,-1.6963,-1.6769,-1.6514,-1.641,-1.6316,-1.6197,-1.6183,-1.6183,-1.6183,-1.6183,-1.6183,-1.6183,-1.6183,-1.6183,-1.6183,-1.6183,-1.6183,-1.6183,0.0,-1.6183,-1.6183,-1.6183,-1.6183,-1.6183,-1.6183,-1.6183,-1.6183,-1.6183,-1.633,-1.6349,-1.6448,-1.6698,-1.6953,-1.7289,-1.7426,-1.7426,-1.7426,-1.7426,-1.7426,-1.7426,-1.7426,-1.7426,-2.0889,0.0,-2.1185,0.0,-2.1414,-2.1595,-2.1595,-2.1655,-2.1776,-2.1963,-2.1987,-2.1987,-2.1987,-2.215,-2.2259,-2.2259,-2.2259,-2.218,-2.1999,-2.1987,-2.1903,-2.1716,-2.1637,-2.1498,-2.1305,-2.1221,-2.1052,-2.078,-2.078,-2.0702,-2.0557,-2.0557,-2.0593,-2.0671,-2.075,-2.0889,-2.107,-2.1233,-2.1516,-2.1879,-2.1957,-2.2096,-2.2259,-2.2259,-2.2259,-2.2259,-2.2259,-2.2259,-2.2259,-2.2259,-2.1504,-2.0441,-2.0285,-1.9531,-1.8926,-1.8926,-1.8926,-1.8774,-1.8329,-1.8324,-1.8471,-1.7873,-1.7574,-1.7426,-1.7426,-1.7426,-1.7426,-1.7426,-1.7426,-1.7426,-1.7426,-1.7426,-1.7379,-1.7223,-1.7147,-1.7001,-1.6708,-1.6556,-1.6429,-1.6287,-1.6216,-1.6183,-1.6183,-1.6183,-1.6183,-1.6183,-1.6183,-1.6183,-1.6183,-1.6183,-1.6183,-1.6183,-1.6183,-1.6183,-1.6183,-1.6183,-1.6183,-1.6183,-1.6183,-1.6183,-1.6183,-1.6183,-1.633,-1.6514,-1.675,-1.6842,-1.7183,-1.7312,-1.7426,-1.7426,-1.7426,-1.7426,-1.7426,-1.7426,-1.7426,-1.7426,-2.1414,-2.1474,-2.1474,-2.1474,-2.1691,-2.1867,-2.1867,-2.2084,-2.2253,-2.2253,-2.2259,-2.2259,-2.2259,-2.2259,-2.2259,-2.2259,-2.2259,-2.2259,-2.2259,-2.2259,-2.2253,-2.2253,-2.2005,-2.186,-2.186,-2.1607,-2.1335,-2.1058,-2.1058,-2.0786,-2.0279,-2.0279,-2.0418,-2.0678,-2.0937,-2.1058,-2.1094,-2.1631,-2.186,-2.1891,-2.2156,-2.2259,-2.2259,-2.2259,-2.2259,-2.2259,-2.2259,-2.2259,-2.2259,-2.2259,-2.2259,-2.2103,-2.1187,-2.0436,-1.9838,-1.9838,-1.9838,-1.9838,-1.9838,-1.9229,-1.8623,-1.8618,-1.8025,-1.7426,-1.7426,-1.7426,-1.7426,-1.7426,-1.7426,-1.7426,-1.7426,-1.7426,-1.7426,-1.7426,-1.7242,-1.71,-1.7095,-1.6741,-1.6481,-1.6481,-1.6301,-1.6183,-1.6183,-1.6183,-1.6183,-1.6183,-1.6183,-1.6183,-1.6183,-1.6183,-1.6183,-1.6183,-1.6183,-1.6183,-1.6183,-1.6183,-1.6183,-1.6183,-1.6183,-1.6183,-1.6183,-1.6183,-1.633,-1.6529,-1.674,-1.694,-1.7183,-1.7312,-1.7426,-1.7426,-1.7426,-1.7426,-1.7426,-1.7426,-1.7426,-1.7426,-2.3856,-2.3321,-2.2885,-2.2885,-2.254,-2.2138,-2.2138,-2.2211,-2.2259,-2.2259,-2.2259,-2.2259,-2.2259,-2.2259,-2.2259,-2.2259,-2.2259,-2.2259,-2.2259,-2.2259,-2.2259,-2.2259,-2.218,-2.2054,-2.1873,-2.1788,-2.1613,-2.1347,-2.1347,-2.1257,-2.1094,-2.1094,-2.1142,-2.1227,-2.1305,-2.1444,-2.1625,-2.1794,-2.1975,-2.2144,-2.2229,-2.2259,-2.2259,-2.2259,-2.2259,-2.2259,-2.2259,-2.2259,-2.2259,-2.2259,-2.2259,-2.2259,-2.1954,-2.1343,-2.0586,-2.0586,-2.0586,-2.0436,-1.9989,-1.9984,-2.0129,-1.9531,-1.9234,-1.9088,-1.9088,-1.8628,-1.802,-1.7574,-1.7426,-1.7426,-1.7426,-1.7426,-1.7426,-1.7426,-1.7369,-1.7275,-1.7123,-1.6991,-1.6802,-1.6514,-1.6424,-1.6334,-1.6193,-1.6183,-1.6183,-1.6183,-1.6183,-1.6183,-1.6183,-1.6183,-1.6183,-1.6183,-1.6183,-1.6183,-1.6183,-1.6183,-1.6183,-1.6183,-1.6183,-1.6183,-1.6183,-1.6334,-1.6495,-1.6731,-1.6986,-1.7056,-1.7303,-1.7388,-1.7426,-1.7426,-1.7426,-1.7426,-1.7426,-1.7426,-1.7426,-1.7426,-2.532,-2.4774,-2.4468,-2.4468,-2.4042,-2.3574,-2.3574,-2.3283,-2.2992,-2.2992,-2.2551,-2.2259,-2.2259,-2.2259,-2.2259,-2.2259,-2.2259,-2.2259,-2.2259,-2.2259,-2.2259,-2.2259,-2.2259,-2.218,-2.2017,-2.2017,-2.1891,-2.1625,-2.1529,-2.148,-2.148,-2.148,-2.148,-2.148,-2.1583,-2.1716,-2.1879,-2.1975,-2.2114,-2.2259,-2.2259,-2.2259,-2.2259,-2.2259,-2.2259,-2.2259,-2.2259,-2.2259,-2.2259,-2.2259,-2.2259,-2.2259,-2.2259,-2.1954,-2.1493,-2.1493,-2.1493,-2.1343,-2.0898,-2.0887,-2.0881,-2.0436,-1.9989,-1.9838,-1.9838,-1.9385,-1.8779,-1.8025,-1.7873,-1.7726,-1.7426,-1.7426,-1.7426,-1.7426,-1.7426,-1.7379,-1.7242,-1.7157,-1.7005,-1.6745,-1.6575,-1.6434,-1.6306,-1.6226,-1.6183,-1.6183,-1.6183,-1.6183,-1.6183,-1.6183,-1.6183,-1.6183,-1.6183,-1.6183,-1.6183,-1.6183,-1.6183,-1.6183,-1.6183,-1.6183,-1.633,-1.6481,-1.6637,-1.694,-1.7102,-1.7264,-1.7426,-1.7426,-1.7426,-1.7426,-1.7426,-1.7426,-1.7426,-1.7426,-1.7426,-1.7426,-2.6001,-2.5911,-2.5911,-2.5911,-2.5911,-2.5765,-2.5765,-2.4743,-2.4005,-2.4005,-2.2992,-2.2259,-2.2259,-2.2259,-2.2259,-2.2259,-2.2259,-2.2259,-2.2259,-2.2259,-2.2259,-2.2259,-2.2259,-2.2259,-2.2259,-2.2259,-2.2138,-2.1897,-2.1655,-2.1535,-2.1535,-2.1535,-2.1535,-2.1547,-2.1788,-2.1897,-2.1915,-2.2156,-2.2259,-2.2259,-2.2259,-2.2259,-2.2259,-2.2259,-2.2259,-2.2259,-2.2259,-2.2259,-2.2259,-2.2259,-2.2259,-2.2259,-2.2259,-2.2259,-2.2259,-2.2259,-2.2259,-2.2259,-2.2259,-2.1648,-2.1031,-2.1031,-2.0586,-1.9995,-1.9838,-1.9838,-1.9682,-1.8774,-1.8623,-1.8319,-1.7574,-1.7426,-1.7426,-1.7426,-1.7426,-1.7426,-1.7426,-1.7251,-1.7123,-1.7105,-1.676,-1.6514,-1.6486,-1.6311,-1.6197,-1.6183,-1.6183,-1.6183,-1.6183,-1.6183,-1.6183,-1.6183,-1.6183,-1.6183,-1.6183,-1.6183,-1.6183,-1.6183,-1.6183,-1.6339,-1.6514,-1.6553,-1.6694,-1.7102,-1.7107,-1.7264,-1.7426,-1.7426,-1.7426,-1.7426,-1.7426,-1.7426,-1.7426,-1.7426,-1.7426,-1.7426,-2.8395,0.0,-2.7092,-2.7092,-2.6357,-2.5765,-2.5765,-2.4743,-2.4005,-2.4005,-2.2992,-2.2259,-2.2259,-2.2259,-2.2259,-2.2259,-2.2259,-2.2259,-2.2259,-2.2259,-2.2259,-2.2259,-2.2259,-2.2259,-2.2259,-2.2259,-2.2235,-2.2168,-2.2108,-2.2078,-2.2078,-2.2078,-2.2078,-2.2078,-2.2138,-2.2168,-2.2174,-2.2235,-2.2259,-2.2259,-2.2259,-2.2259,-2.2259,-2.2259,-2.2259,-2.2259,-2.2259,-2.2259,-2.2259,-2.2259,-2.2259,-2.2259,-2.2259,-2.2259,-2.2259,-2.2259,-2.2259,-2.2259,-2.2259,-2.2103,-2.1954,-2.1954,-2.1804,-2.1504,-2.0887,-2.0731,-2.028,-1.8926,-1.8623,-1.8319,-1.7574,-1.7426,-1.7426,-1.7426,-1.7426,-1.7426,-1.7426,-1.7383,-1.7289,-1.7123,-1.7015,-1.6831,-1.6514,-1.6438,-1.6349,-1.6193,-1.6183,-1.6183,-1.6183,-1.6183,-1.6183,-1.6183,-1.6183,-1.6183,-1.6183,-1.6183,-1.6183,-1.6183,-1.6334,-1.6449,-1.6519,-1.6786,-1.7077,-1.7107,-1.7264,-1.7426,-1.7426,-1.7426,-1.7426,-1.7426,-1.7426,-1.7426,-1.7426,-1.7426,-1.7426,-1.7426,-2.9298,-2.8715,-2.8274,-2.8274,-2.7825,-2.7383,-2.7383,-2.6357,-2.5478,-2.4891,-2.3864,-2.2843,-2.2408,-2.2259,-2.2259,-2.2259,-2.2259,-2.2259,-2.2259,-2.2259,-2.2259,-2.2259,-2.2259,-2.2259,-2.2259,-2.2259,-2.2259,-2.2259,-2.2259,-2.2259,-2.2259,-2.2259,-2.2259,-2.2259,-2.2259,-2.2259,-2.2259,-2.2259,-2.2259,-2.2259,-2.2259,-2.2259,-2.2259,-2.2259,-2.2259,-2.2259,-2.2259,-2.2259,-2.2259,-2.2259,-2.2259,-2.2259,-2.2259,-2.2259,-2.2259,-2.2259,-2.2259,-2.2259,-2.2259,-2.2259,-2.2259,-2.2259,-2.2259,-2.2109,-2.1648,-2.1643,-2.1187,-1.9978,-1.9677,-1.9375,-1.8172,-1.8025,-1.7878,-1.7426,-1.7426,-1.7426,-1.7426,-1.7426,-1.7383,-1.7265,-1.7161,-1.7015,-1.6788,-1.6684,-1.6585,-1.6476,-1.6467,-1.6424,-1.6325,-1.632,-1.6278,-1.6183,-1.6183,-1.6183,-1.6183,-1.6273,-1.632,-1.632,-1.6511,-1.6673,-1.6802,-1.7067,-1.7107,-1.7264,-1.7421,-1.7426,-1.7426,-1.7426,-1.7426,-1.7426,-1.7426,-1.7426,-1.7426,-1.7426,-1.7426,-1.7426,-2.9298,-2.9298,-2.9298,-2.9298,-2.9298,-2.9298,-2.9298,-2.8274,-2.7092,-2.6203,-2.5031,-2.3864,-2.2701,-2.2701,-2.2701,-2.2551,-2.2551,-2.2551,-2.2265,-2.2259,-2.2259,-2.2259,-2.2259,-2.2259,-2.2259,-2.2259,-2.2259,-2.2259,-2.2259,-2.2259,-2.2259,-2.2259,-2.2259,-2.2259,-2.2259,-2.2259,-2.2259,-2.2259,-2.2259,-2.2259,-2.2259,-2.2259,-2.2259,-2.2259,-2.2259,-2.2259,-2.2259,-2.2259,-2.2259,-2.2259,-2.2259,-2.2259,-2.2259,-2.2259,-2.2259,-2.2259,-2.2259,-2.2259,-2.2259,-2.2259,-2.2259,-2.2259,-2.2259,-2.2259,-2.2259,-2.2259,-2.2103,-2.1187,-2.1031,-2.0581,-1.9072,-1.8774,-1.8476,-1.7726,-1.7574,-1.7574,-1.7426,-1.7426,-1.7426,-1.7426,-1.7265,-1.7138,-1.7105,-1.6949,-1.6835,-1.6807,-1.6802,-1.6727,-1.6542,-1.6533,-1.6453,-1.6282,-1.6245,-1.624,-1.6278,-1.6592,-1.6682,-1.6533,-1.6778,-1.6944,-1.7034,-1.7142,-1.7264,-1.7426,-1.7426,-1.7426,-1.7426,-1.7426,-1.7426,-1.7426,-1.7426,-1.7426,-1.7426,-1.7426,-1.7426,-1.7426,-2.9298,-2.9298,-2.9298,-2.9298,-2.9298,-2.9298,-2.9298,-2.8274,-2.739,-2.7245,-2.621,-2.5031,-2.3864,-2.4596,-2.4891,-2.3864,-2.3716,-2.3283,-2.2408,-2.2259,-2.2259,-2.2259,-2.2259,-2.2259,-2.2259,-2.2259,-2.2259,-2.2259,-2.2259,-2.2259,-2.2259,-2.2259,-2.2259,-2.2259,-2.2259,-2.2259,-2.2259,-2.2259,-2.2259,-2.2259,-2.2259,-2.2259,-2.2259,-2.2259,-2.2259,-2.2259,-2.2259,-2.2259,-2.2259,-2.2259,-2.2259,-2.2259,-2.2259,-2.2259,-2.2259,-2.2259,-2.2259,-2.2259,-2.2259,-2.2259,-2.2259,-2.2259,-2.2259,-2.2259,-2.2259,-2.2259,-2.2103,-2.1187,-2.1031,-2.0731,-1.9838,-1.9536,-1.9385,-1.8471,-1.8471,-1.8172,-1.7426,-1.7426,-1.7426,-1.7426,-1.7398,-1.7303,-1.7123,-1.7076,-1.6986,-1.6816,-1.6802,-1.6788,-1.676,-1.6755,-1.6736,-1.6552,-1.6374,-1.6369,-1.6703,-1.6892,-1.6911,-1.6755,-1.6887,-1.7001,-1.7095,-1.7322,-1.7426,-1.7426,-1.7426,-1.7426,-1.7426,-1.7426,-1.7426,-1.7426,-1.7426,-1.7426,-1.7426,-1.7426,-1.7426,-1.7426,-2.9298,-2.9298,-2.9298,-2.9298,-2.9298,-2.9298,-2.9298,-2.8859,-2.8266,-2.7543,-2.7092,-2.621,-2.5031,-2.5472,-2.5618,-2.5031,-2.4449,-2.4005,-2.416,-2.2992,-2.2259,-2.2259,-2.2259,-2.2259,-2.2259,-2.2259,-2.2259,-2.2259,-2.2259,-2.2259,-2.2259,-2.2259,-2.2259,-2.2259,-2.2259,-2.2259,-2.2259,-2.2259,-2.2259,-2.2259,-2.2259,-2.2259,-2.2259,-2.2259,-2.2259,-2.2259,-2.2259,-2.2259,-2.2259,-2.2259,-2.2259,-2.2259,-2.2259,-2.2259,-2.2259,-2.2259,-2.2259,-2.2259,-2.2259,-2.2259,-2.2259,-2.2259,-2.2259,-2.2259,-2.2259,-2.2259,-2.2259,-2.1798,-2.1648,-2.1493,-2.0586,-2.0436,-2.0135,-1.938,-1.9229,-1.8931,-1.8172,-1.802,-1.7873,-1.7426,-1.7426,-1.7388,-1.7289,-1.7279,-1.7242,-1.7147,-1.7138,-1.709,-1.6972,-1.6968,-1.6963,-1.6814,-1.676,-1.6854,-1.7115,-1.7068,-1.6968,-1.6968,-1.7147,-1.7251,-1.7279,-1.7383,-1.7426,-1.7426,-1.7426,-1.7426,-1.7426,-1.7426,-1.7426,-1.7426,-1.7426,-1.7426,-1.7426,-1.7426,-1.7426,-1.7426,-2.9298,-2.9298,-2.9298,-2.9298,-2.9298,-2.9298,-2.9298,-2.9298,-2.9002,-2.7977,-2.7977,-2.7535,-2.6349,-2.6495,-2.6495,-2.6203,-2.5332,-2.5178,-2.6057,-2.4308,-2.2992,-2.2701,-2.2408,-2.2259,-2.2259,-2.2259,-2.2259,-2.2259,-2.2259,-2.2259,-2.2259,-2.2259,-2.2259,-2.2259,-2.2259,-2.2259,-2.2259,-2.2259,-2.2259,-2.2259,-2.2259,-2.2259,-2.2259,-2.2259,-2.2259,-2.2259,-2.2259,-2.2259,-2.2259,-2.2259,-2.2259,-2.2259,-2.2259,-2.2259,-2.2259,-2.2259,-2.2259,-2.2259,-2.2259,-2.2259,-2.2259,-2.2259,-2.2259,-2.2259,-2.2259,-2.2259,-2.2259,-2.2259,-2.2259,-2.2109,-2.1493,-2.1337,-2.1037,-2.014,-2.014,-1.9833,-1.8926,-1.8774,-1.8324,-1.7726,-1.7574,-1.7426,-1.7426,-1.7426,-1.7426,-1.7426,-1.7426,-1.7355,-1.719,-1.718,-1.718,-1.718,-1.7183,-1.726,-1.7422,-1.7259,-1.718,-1.718,-1.7346,-1.7426,-1.7426,-1.7426,-1.7426,-1.7426,-1.7426,-1.7426,-1.7426,-1.7426,-1.7426,-1.7426,-1.7426,-1.7426,-1.7426,-1.7426,-1.7426,-1.7426,-2.9298,-2.9298,-2.9298,-2.9298,-2.9298,-2.9298,-2.9298,-2.9298,-2.9298,-2.9154,-2.9154,-2.8707,-2.7535,-2.8418,-2.8563,-2.7535,-2.7245,-2.7245,-2.739,-2.621,-2.5031,-2.3864,-2.2843,-2.2259,-2.2259,-2.2259,-2.2259,-2.2259,-2.2259,-2.2259,-2.2259,-2.2259,-2.2259,-2.2259,-2.2259,-2.2259,-2.2259,-2.2259,-2.2259,-2.2259,-2.2259,-2.2259,-2.2259,-2.2259,-2.2259,-2.2259,-2.2259,-2.2259,-2.2259,-2.2259,-2.2259,-2.2259,-2.2259,-2.2259,-2.2259,-2.2259,-2.2259,-2.2259,-2.2259,-2.2259,-2.2259,-2.2259,-2.2259,-2.2259,-2.2259,-2.2259,-2.2259,-2.2259,-2.2259,-2.2259,-2.2259,-2.2259,-2.1954,-2.1037,-2.0881,-2.0581,-1.9838,-1.9077,-1.8623,-1.8471,-1.7873,-1.7426,-1.7426,-1.7426,-1.7426,-1.7426,-1.7426,-1.7416,-1.7402,-1.7402,-1.7402,-1.7402,-1.7388,-1.7383,-1.7383,-1.7398,-1.7402,-1.7402,-1.7416,-1.7426,-1.7426,-1.7426,-1.7426,-1.7426,-1.7426,-1.7426,-1.7426,-1.7426,-1.7426,-1.7426,-1.7426,-1.7426,-1.7426,-1.7426,-1.7426,-1.7426,-2.9298,-2.9298,-2.9298,-2.9298,-2.9298,-2.9298,-2.9298,-2.9298,-2.9298,-2.9298,-2.9298,-2.9154,-2.8715,-2.9002,-2.9146,-2.8707,-2.7977,-2.7833,-2.8563,-2.7535,-2.6357,-2.5178,-2.4012,-2.3283,-2.3283,-2.2701,-2.2259,-2.2259,-2.2259,-2.2259,-2.2259,-2.2259,-2.2259,-2.2259,-2.2259,-2.2259,-2.2259,-2.2259,-2.2259,-2.2259,-2.2259,-2.2259,-2.2259,-2.2259,-2.2259,-2.2259,-2.2259,-2.2259,-2.2259,-2.2259,-2.2259,-2.2259,-2.2259,-2.2259,-2.2259,-2.2259,-2.2259,-2.2259,-2.2259,-2.2259,-2.2259,-2.2259,-2.2259,-2.2259,-2.2259,-2.2259,-2.2259,-2.2259,-2.2259,-2.2259,-2.2259,-2.2259,-2.2259,-2.1798,-2.1798,-2.1493,-2.0586,-2.028,-1.9828,-1.938,-1.8628,-1.8172,-1.8172,-1.7726,-1.7426,-1.7426,-1.7426,-1.7426,-1.7426,-1.7426,-1.7426,-1.7426,-1.7426,-1.7426,-1.7426,-1.7426,-1.7426,-1.7426,-1.7426,-1.7426,-1.7426,-1.7426,-1.7426,-1.7426,-1.7426,-1.7426,-1.7426,-1.7426,-1.7426,-1.7426,-1.7426,-1.7426,-1.7426,-1.7426,-1.7426,-1.7426,-2.9298,-2.9298,-2.9298,-2.9298,-2.9298,-2.9298,-2.9298,-2.9298,-2.9298,-2.9298,-2.9298,-2.9298,-2.9298,-2.9298,-2.9298,-2.9298,-2.8563,-2.8418,-2.9298,-2.8563,-2.7535,-2.6349,-2.5178,-2.4596,-2.4596,-2.3426,-2.2843,-2.2843,-2.2408,-2.2259,-2.2259,-2.2259,-2.2259,-2.2259,-2.2259,-2.2259,-2.2259,-2.2259,-2.2259,-2.2259,-2.2259,-2.2259,-2.2259,-2.2259,-2.2259,-2.2259,-2.2259,-2.2259,-2.2259,-2.2259,-2.2259,-2.2259,-2.2259,-2.2259,-2.2259,-2.2259,-2.2259,-2.2259,-2.2259,-2.2259,-2.2259,-2.2259,-2.2259,-2.2259,-2.2259,-2.2259,-2.2259,-2.2259,-2.2259,-2.2259,-2.2259,-2.2259,-2.2259,-2.2259,-2.2259,-2.2103,-2.1493,-2.1187,-2.0731,-2.0285,-1.9531,-1.8926,-1.8926,-1.8481,-1.803,-1.7726,-1.7721,-1.7726,-1.7426,-1.7426,-1.7426,-1.7426,-1.7426,-1.7426,-1.7426,-1.7426,-1.7426,-1.7426,-1.7426,-1.7426,-1.7426,-1.7426,-1.7426,-1.7426,-1.7426,-1.7426,-1.7426,-1.7426,-1.7426,-1.7426,-1.7426,-1.7426,-1.7426,-1.7426,-1.7426,-1.7426,-2.9298,-2.9298,-2.9298,-2.9298,-2.9298,-2.9298,-2.9298,-2.9298,-2.9298,-2.9298,-2.9298,-2.9298,-2.9298,-2.9298,-2.9298,-2.9298,-2.9298,-2.9298,-2.9298,-2.9298,-2.8715,-2.7535,-2.6357,-2.5765,-2.5765,-2.4589,-2.4012,-2.4005,-2.2843,-2.2265,-2.2259,-2.2259,-2.2259,-2.2259,-2.2259,-2.2259,-2.2259,-2.2259,-2.2259,-2.2259,-2.2259,-2.2259,-2.2259,-2.2259,-2.2259,-2.2259,-2.2259,-2.2259,-2.2259,-2.2259,-2.2259,-2.2259,-2.2259,-2.2259,-2.2259,-2.2259,-2.2259,-2.2259,-2.2259,-2.2259,-2.2259,-2.2259,-2.2259,-2.2259,-2.2259,-2.2259,-2.2259,-2.2259,-2.2259,-2.2259,-2.2259,-2.2259,-2.2259,-2.2259,-2.2259,-2.2259,-2.2259,-2.1493,-2.1031,-2.1031,-2.0285,-1.9838,-1.9838,-1.9838,-1.9536,-1.8623,-1.8623,-1.8324,-1.7426,-1.7426,-1.7426,-1.7426,-1.7426,-1.7426,-1.7426,-1.7426,-1.7426,-1.7426,-1.7426,-1.7426,-1.7426,-1.7426,-1.7426,-1.7426,-1.7426,-1.7426,-1.7426,-1.7426,-1.7426,-1.7426,-1.7426,-1.7426,-1.7426,-1.7426,-1.7426,-1.7426,-2.9298,-2.9298,-2.9298,-2.9298,-2.9298,-2.9298,-2.9298,-2.9298,-2.9298,-2.9298,-2.9298,-2.9298,-2.9298,-2.9298,-2.9298,-2.9298,-2.9298,-2.9298,-2.9298,-2.9298,-2.9146,-2.8715,-2.768,-2.6947,-2.6947,-2.5911,-2.4884,-2.4005,-2.3716,-2.3135,-2.2259,-2.2259,-2.2259,-2.2259,-2.2259,-2.2259,-2.2259,-2.2259,-2.2259,-2.2259,-2.2259,-2.2259,-2.2259,-2.2259,-2.2259,-2.2259,-2.2259,-2.2259,-2.2259,-2.2259,-2.2259,-2.2259,-2.2259,-2.2259,-2.2259,-2.2259,-2.2259,-2.2259,-2.2259,-2.2259,-2.2259,-2.2259,-2.2259,-2.2259,-2.2259,-2.2259,-2.2259,-2.2259,-2.2259,-2.2259,-2.2259,-2.2259,-2.2259,-2.2259,-2.2259,-2.2259,-2.2259,-2.2103,-2.1954,-2.1954,-2.1187,-2.0586,-2.0586,-2.0135,-1.9687,-1.9531,-1.9385,-1.9385,-1.9082,-1.9088,-1.8921,-1.8592,-1.7791,-1.7327,-1.736,-1.7407,-1.7426,-1.7426,-1.7426,-1.7426,-1.7426,-1.7426,-1.7426,-1.7426,-1.7426,-1.7426,-1.7426,-1.7426,-1.7426,-1.7426,-1.7426,-1.7426,-1.7426,-1.7426,-1.7426,-1.7426,-2.9712,-2.9433,-2.9298,-2.9298,-2.9298,-2.9298,-2.9298,-2.9298,-2.9298,-2.9298,-2.9298,-2.9298,-2.9298,-2.9298,-2.9298,-2.9298,-2.9298,-2.9298,-2.9298,-2.9298,-2.9298,-2.9298,-2.8563,-2.8266,-2.8266,-2.7092,-2.6064,-2.5332,-2.4449,-2.3722,-2.2992,-2.2551,-2.2259,-2.2259,-2.2259,-2.2259,-2.2259,-2.2259,-2.2259,-2.2259,-2.2259,-2.2259,-2.2259,-2.2259,-2.2259,-2.2259,-2.2259,-2.2259,-2.2259,-2.2259,-2.2259,-2.2259,-2.2259,-2.2259,-2.2259,-2.2259,-2.2259,-2.2259,-2.2259,-2.2259,-2.2259,-2.2259,-2.2259,-2.2259,-2.2259,-2.2259,-2.2259,-2.2259,-2.2259,-2.2259,-2.2259,-2.2259,-2.2259,-2.2259,-2.2259,-2.2259,-2.2259,-2.2259,-2.2259,-2.2259,-2.1798,-2.1493,-2.1493,-2.1048,-2.0597,-2.0285,-1.9989,-1.9838,-1.9838,-1.9838,-1.9677,-1.9354,-1.8537,-1.8079,-1.8421,-1.8158,-1.7878,-1.7426,-1.7426,-1.7426,-1.7426,-1.7426,-1.7426,-1.7426,-1.7426,-1.7426,-1.7426,-1.7426,-1.7426,-1.7426,-1.7426,-1.7426,-1.7426,-1.7426,-1.7426,-1.7426,-3.04,-2.9847,-2.9441,-2.9298,-2.9298,-2.9298,-2.9298,-2.9298,-2.9298,-2.9298,-2.9298,-2.9298,-2.9298,-2.9298,-2.9298,-2.9298,-2.9298,-2.9298,-2.9298,-2.9298,-2.9298,-2.9298,-2.9298,-2.9298,-2.9298,-2.8266,-2.7543,-2.7535,-2.5332,-2.4153,-2.4012,-2.2992,-2.2408,-2.2408,-2.2408,-2.2408,-2.2408,-2.2408,-2.2408,-2.2259,-2.2259,-2.2259,-2.2259,-2.2259,-2.2259,-2.2259,-2.2259,-2.2259,-2.2259,-2.2259,-2.2259,-2.2259,-2.2259,-2.2259,-2.2259,-2.2259,-2.2259,-2.2259,-2.2259,-2.2259,-2.2259,-2.2259,-2.2259,-2.2259,-2.2259,-2.2259,-2.2259,-2.2259,-2.2259,-2.2259,-2.2259,-2.2259,-2.2259,-2.2259,-2.2259,-2.2259,-2.2259,-2.2259,-2.2259,-2.2259,-2.2259,-2.2259,-2.2259,-2.2259,-2.1954,-2.1187,-2.0441,-1.9989,-1.9989,-1.9989,-1.9989,-1.9989,-1.9504,-1.9499,-1.9833,-1.9536,-1.8785,-1.7578,-1.7578,-1.7578,-1.7574,-1.7574,-1.7426,-1.7426,-1.7426,-1.7426,-1.7426,-1.7426,-1.7426,-1.7426,-1.7426,-1.7426,-1.7426,-1.7426,-1.7426,-1.7426,-3.0551,-3.0266,-2.9989,-2.9441,-2.9298,-2.9298,-2.9298,-2.9298,-2.9298,-2.9298,-2.9298,-2.9298,-2.9298,-2.9298,-2.9298,-2.9298,-2.9298,-2.9298,-2.9298,-2.9298,-2.9298,-2.9298,-2.9298,-2.9298,-2.9298,-2.9002,-2.8418,-2.7535,-2.6954,-2.5772,-2.4005,-2.3716,-2.3568,-2.3568,-2.3568,-2.3568,-2.3568,-2.3568,-2.3135,-2.2259,-2.2259,-2.2259,-2.2259,-2.2259,-2.2259,-2.2259,-2.2259,-2.2259,-2.2259,-2.2259,-2.2259,-2.2259,-2.2259,-2.2259,-2.2259,-2.2259,-2.2259,-2.2259,-2.2259,-2.2259,-2.2259,-2.2259,-2.2259,-2.2259,-2.2259,-2.2259,-2.2259,-2.2259,-2.2259,-2.2259,-2.2259,-2.2259,-2.2259,-2.2259,-2.2259,-2.2259,-2.2259,-2.2259,-2.2259,-2.2259,-2.2259,-2.2259,-2.2259,-2.2259,-2.2259,-2.2103,-2.1804,-2.1804,-2.1804,-2.1804,-2.1804,-2.1804,-2.1648,-2.1181,-2.0408,-2.1233,-2.0787,-1.9234,-1.9265,-1.8957,-1.8324,-1.8324,-1.8025,-1.7426,-1.7426,-1.7426,-1.7426,-1.7426,-1.7426,-1.7426,-1.7426,-1.7426,-1.7426,-1.7426,-1.7426,-1.7426,-3.1534,-3.0968,-3.0266,-2.9847,-2.9577,-2.9298,-2.9298,-2.9298,-2.9298,-2.9298,-2.9298,-2.9298,-2.9298,-2.9298,-2.9298,-2.9298,-2.9298,-2.9298,-2.9298,-2.9298,-2.9298,-2.9298,-2.9298,-2.9298,-2.9298,-2.9298,-2.9002,-2.8418,-2.7833,-2.6655,-2.4884,-2.4301,-2.3716,-2.3135,-2.3135,-2.3135,-2.3135,-2.3135,-2.3135,-2.2992,-2.2551,-2.2701,-2.2986,-2.2551,-2.2259,-2.2259,-2.2259,-2.2259,-2.2259,-2.2259,-2.2259,-2.2259,-2.2259,-2.2259,-2.2259,-2.2259,-2.2259,-2.2259,-2.2259,-2.2259,-2.2259,-2.2259,-2.2259,-2.2259,-2.2259,-2.2259,-2.2259,-2.2259,-2.2259,-2.2259,-2.2259,-2.2259,-2.2259,-2.2259,-2.2259,-2.2259,-2.2259,-2.2259,-2.2259,-2.2259,-2.2259,-2.2259,-2.2259,-2.2259,-2.2259,-2.2259,-2.2259,-2.2259,-2.2259,-2.2259,-2.2259,-2.2259,-2.2259,-2.1948,-2.1475,-2.1978,-2.184,-2.1048,-2.0162,-1.9552,-1.9229,-1.9229,-1.8779,-1.8025,-1.8025,-1.7726,-1.7426,-1.7426,-1.7426,-1.7426,-1.7426,-1.7426,-1.7426,-1.7426,-1.7426,-1.7426,-3.2666,-3.1675,-3.0685,-3.04,-2.9847,-2.9433,-2.9298,-2.9298,-2.9298,-2.9298,-2.9298,-2.9298,-2.9298,-2.9298,-2.9298,-2.9298,-2.9298,-2.9298,-2.9298,-2.9298,-2.9298,-2.9298,-2.9298,-2.9298,-2.9298,-2.9298,-2.9298,-2.9298,-2.8274,-2.7237,-2.6057,-2.5038,-2.416,-2.3141,-2.3141,-2.3141,-2.3141,-2.3141,-2.3574,-2.4301,-2.3283,-2.3283,-2.3864,-2.2992,-2.2408,-2.2259,-2.2259,-2.2259,-2.2259,-2.2259,-2.2259,-2.2259,-2.2259,-2.2259,-2.2259,-2.2259,-2.2259,-2.2259,-2.2259,-2.2259,-2.2259,-2.2259,-2.2259,-2.2259,-2.2259,-2.2259,-2.2259,-2.2259,-2.2259,-2.2259,-2.2259,-2.2259,-2.2259,-2.2259,-2.2259,-2.2259,-2.2259,-2.2259,-2.2259,-2.2259,-2.2259,-2.2259,-2.2259,-2.2259,-2.2259,-2.2259,-2.2259,-2.2259,-2.2259,-2.2259,-2.2259,-2.2259,-2.2259,-2.2259,-2.2259,-2.2259,-2.2259,-2.2259,-2.0898,-2.014,-1.9989,-1.9989,-1.9531,-1.8774,-1.8774,-1.8324,-1.7574,-1.7574,-1.7578,-1.7426,-1.7426,-1.7426,-1.7426,-1.7426,-1.7426,-1.7426,-3.2815,-3.2526,-3.1965,-3.0685,-3.0258,-2.9989,-2.9441,-2.9298,-2.9298,-2.9298,-2.9298,-2.9298,-2.9298,-2.9298,-2.9298,-2.9298,-2.9298,-2.9298,-2.9298,-2.9298,-2.9298,-2.9298,-2.9298,-2.9298,-2.9298,-2.9298,-2.9298,-2.9298,-2.9146,-2.8418,-2.7245,-2.71,-2.6954,-2.6808,-2.6808,-2.6808,-2.6808,-2.6808,-2.6357,-2.5472,-2.5325,-2.4737,-2.4012,-2.3864,-2.3135,-2.2259,-2.2259,-2.2259,-2.2259,-2.2259,-2.2259,-2.2259,-2.2259,-2.2259,-2.2259,-2.2259,-2.2259,-2.2259,-2.2259,-2.2259,-2.2259,-2.2259,-2.2259,-2.2259,-2.2259,-2.2259,-2.2259,-2.2259,-2.2259,-2.2259,-2.2259,-2.2259,-2.2259,-2.2259,-2.2259,-2.2259,-2.2259,-2.2259,-2.2259,-2.2259,-2.2259,-2.2259,-2.2259,-2.2259,-2.2259,-2.2259,-2.2259,-2.2259,-2.2259,-2.2259,-2.2259,-2.2259,-2.2259,-2.2259,-2.2259,-2.2259,-2.2259,-2.2259,-2.2109,-2.1499,-2.0881,-2.0881,-2.0436,-1.9687,-1.9687,-1.9234,-1.8471,-1.8471,-1.8025,-1.7426,-1.7426,-1.7426,-1.7426,-1.7426,-1.7426,-1.7426,-3.3381,-3.2954,-3.2526,-3.1815,-3.0968,-3.0266,-2.9989,-2.9577,-2.9298,-2.9298,-2.9298,-2.9298,-2.9298,-2.9298,-2.9298,-2.9298,-2.9298,-2.9298,-2.9298,-2.9298,-2.9298,-2.9298,-2.9298,-2.9298,-2.9298,-2.9298,-2.9298,-2.9298,-2.9298,-2.8707,-2.7535,-2.7535,-2.71,-2.6502,-2.6502,-2.6502,-2.6502,-2.6502,-2.6648,-2.6648,-2.6057,-2.5472,-2.4884,-2.4301,-2.3283,-2.2259,-2.2259,-2.2259,-2.2259,-2.2259,-2.2259,-2.2259,-2.2259,-2.2259,-2.2259,-2.2259,-2.2259,-2.2259,-2.2259,-2.2259,-2.2259,-2.2259,-2.2259,-2.2259,-2.2259,-2.2259,-2.2259,-2.2259,-2.2259,-2.2259,-2.2259,-2.2259,-2.2259,-2.2259,-2.2259,-2.2259,-2.2259,-2.2259,-2.2259,-2.2259,-2.2259,-2.2259,-2.2259,-2.2259,-2.2259,-2.2259,-2.2259,-2.2259,-2.2259,-2.2259,-2.2259,-2.2259,-2.2259,-2.2259,-2.2259,-2.2259,-2.2259,-2.2259,-2.2259,-2.2109,-2.1798,-2.1798,-2.1343,-2.0436,-2.0436,-1.9984,-1.9229,-1.9229,-1.8779,-1.8025,-1.8025,-1.7726,-1.7426,-1.7426,-1.7426,-1.7426]},{"header":{"parameterUnit":"m.s-1","parameterCategory":1,"la1":30.6,"la2":28.766,"lo1":-90.7593,"lo2":-88.6598,"dy":0.0162,"dx":0.0183,"nx":116,"ny":114,"refTime":"2023-06-22T12:00:00:Z","depth":0,"parameterNumber":3,"parameterNumberName":"V-component_of_WINDS"},"data":[0.0,0.0,0.0,0.0,0.0,0.0,0.0,0.0,0.0,0.0,0.0,0.0,0.0,0.0,0.0,0.0,0.0,0.0,0.0,0.0,0.0,0.0,0.0,0.0,0.0,0.0,0.0,0.0,0.0,0.0,0.0,0.0,0.0,0.0,0.0,0.0,0.0,0.0,0.0,0.0,0.0,0.0,0.0,0.0,0.0,0.0,0.0,0.0,0.0,0.0,0.0,0.0,0.0,0.0,0.0,0.0,0.0,0.0,0.0,0.0,0.0,0.0,0.0,0.0,0.0,0.0,0.0,0.0,0.0,0.0,0.0,0.0,0.0,0.0,0.0,0.0,0.0,0.0,0.0,0.0,0.0,0.0,0.0,0.0,0.0,0.0,0.0,0.0,0.0,0.0,0.0,0.0,0.0,0.0,0.0,0.0,0.0,0.0,0.0,0.0,0.0,0.0,0.0,0.0,0.0,0.0,0.0,0.0,0.0,0.0,0.0,0.0,0.0,0.0,0.0,0.0,0.0,0.0,0.0,0.0,0.0,0.0,0.0,0.0,0.0,0.0,0.0,0.0,0.0,0.0,0.0,0.0,0.0,0.0,0.0,0.0,0.0,0.0,0.0,0.0,0.0,0.0,0.0,0.0,0.0,0.0,0.0,0.0,0.0,0.0,0.0,0.0,0.0,0.0,0.0,0.0,0.0,0.0,0.0,0.0,0.0,0.0,0.0,0.0,0.0,0.0,0.0,0.0,0.0,0.0,0.0,0.0,0.0,0.0,0.0,0.0,0.0,0.0,0.0,0.0,0.0,0.0,0.0,0.0,0.0,0.0,0.0,0.0,0.0,0.0,0.0,0.0,0.0,0.0,0.0,0.0,0.0,0.0,0.0,0.0,0.0,0.0,0.0,0.0,0.0,0.0,0.0,0.0,0.0,0.0,0.0,0.0,0.0,0.0,0.0,0.0,0.0,0.0,0.0,0.0,0.0,0.0,0.0,0.0,0.0,0.0,0.0,0.0,0.0,0.0,0.0,0.0,0.0,0.0,0.0,0.0,0.0,0.0,0.0,0.0,0.0,0.0,0.0,0.0,0.0,0.0,0.0,0.0,0.0,0.0,0.0,0.0,0.0,0.0,0.0,0.0,0.0,0.0,0.0,0.0,0.0,0.0,0.0,0.0,0.0,0.0,0.0,0.0,0.0,0.0,0.0,0.0,0.0,0.0,0.0,0.0,0.0,0.0,0.0,0.0,0.0,0.0,0.0,0.0,0.0,0.0,0.0,0.0,0.0,0.0,0.0,0.0,0.0,0.0,0.0,0.0,0.0,0.0,0.0,0.0,0.0,0.0,0.0,0.0,0.0,0.0,0.0,0.0,0.0,0.0,0.0,0.0,0.0,0.0,0.0,0.0,0.0,0.0,0.0,0.0,0.0,0.0,0.0,0.0,0.0,0.0,0.0,0.0,0.0,0.0,0.0,0.0,0.0,0.0,0.0,0.0,0.0,0.0,0.0,0.0,0.0,0.0,0.0,0.0,0.0,0.0,0.0,0.0,0.0,0.0,0.0,0.0,0.0,0.0,0.0,0.0,0.0,0.0,0.0,0.0,0.0,0.0,0.0,0.0,0.0,0.0,0.0,0.0,0.0,0.0,0.0,0.0,0.0,0.0,0.0,0.0,0.0,0.0,0.0,0.0,0.0,0.0,0.0,0.0,0.0,0.0,0.0,0.0,0.0,0.0,0.0,0.0,0.0,0.0,0.0,0.0,0.0,0.0,0.0,0.0,0.0,0.0,0.0,0.0,0.0,0.0,0.0,0.0,0.0,0.0,0.0,0.0,0.0,0.0,0.0,0.0,0.0,0.0,0.0,0.0,0.0,0.0,0.0,0.0,0.0,0.0,0.0,0.0,0.0,0.0,0.0,0.0,0.0,0.0,0.0,0.0,0.0,0.0,0.0,0.0,0.0,0.0,0.0,0.0,0.0,0.0,0.0,0.0,0.0,0.0,0.0,0.0,0.0,0.0,0.0,0.0,0.0,0.0,0.0,0.0,0.0,0.0,0.0,0.0,0.0,0.0,0.0,0.0,0.0,0.0,0.0,0.0,0.0,0.0,0.0,0.0,0.0,0.0,0.0,0.0,0.0,0.0,0.0,0.0,0.0,0.0,0.0,0.0,0.0,0.0,0.0,0.0,0.0,0.0,0.0,0.0,0.0,0.0,0.0,0.0,0.0,0.0,0.0,0.0,0.0,0.0,0.0,0.0,0.0,0.0,0.0,0.0,0.0,0.0,0.0,0.0,0.0,0.0,0.0,0.0,0.0,0.0,0.0,0.0,0.0,0.0,0.0,0.0,0.0,0.0,0.0,0.0,0.0,0.0,0.0,0.0,0.0,0.0,0.0,0.0,0.0,0.0,0.0,0.0,0.0,0.0,0.0,0.0,0.0,0.0,0.0,0.0,0.0,0.0,0.0,0.0,0.0,0.0,0.0,0.0,0.0,0.0,0.0,0.0,0.0,0.0,0.0,0.0,0.0,0.0,0.0,0.0,0.0,0.0,0.0,0.0,0.0,0.0,0.0,0.0,0.0,0.0,0.0,0.0,0.0,0.0,0.0,0.0,0.0,0.0,0.0,0.0,0.0,0.0,0.0,0.0,0.0,0.0,0.0,0.0,0.0,0.0,0.0,0.0,0.0,0.0,0.0,0.0,0.0,0.0,0.0,0.0,0.0,0.0,0.0,0.0,0.0,0.0,0.0,0.0,0.0,0.0,0.0,0.0,0.0,0.0,0.0,0.0,0.0,0.0,0.0,0.0,0.0,0.0,0.0,0.0,0.0,0.0,0.0,0.0,0.0,0.0,0.0,0.0,0.0,0.0,0.0,0.0,0.0,0.0,0.0,0.0,0.0,0.0,0.0,0.0,0.0,0.0,0.0,0.0,0.0,0.0,0.0,0.0,0.0,0.0,0.0,0.0,0.0,0.0,0.0,0.0,0.0,0.0,0.0,0.0,0.0,0.0,0.0,0.0,0.0,0.0,0.0,0.0,0.0,0.0,0.0,0.0,0.0,0.0,0.0,0.0,0.0,0.0,0.0,0.0,0.0,0.0,0.0,0.0,0.0,0.0,0.0,0.0,0.0,0.0,0.0,0.0,0.0,0.0,0.0,0.0,0.0,0.0,0.0,0.0,0.0,0.0,0.0,0.0,0.0,0.0,0.0,0.0,0.0,0.0,0.0,0.0,0.0,0.0,0.0,0.0,0.0,0.0,0.0,0.0,0.0,0.0,0.0,0.0,0.0,0.0,0.0,0.0,0.0,0.0,0.0,0.0,0.0,0.0,0.0,0.0,0.0,0.0,0.0,0.0,0.0,0.0,0.0,0.0,0.0,0.0,0.0,0.0,0.0,0.0,0.0,0.0,0.0,0.0,0.0,0.0,0.0,0.0,0.0,0.0,0.0,0.0,0.0,0.0,0.0,0.0,0.0,0.0,0.0,0.0,0.0,0.0,0.0,0.0,0.0,0.0,0.0,0.0,0.0,0.0,0.0,0.0,0.0,0.0,0.0,0.0,0.0,0.0,0.0,0.0,0.0,0.0,0.0,0.0,0.0,0.0,0.0,0.0,0.0,0.0,0.0,0.0,0.0,0.0,0.0,0.0,0.0,0.0,0.0,0.0,0.0,0.0,0.0,0.0,0.0,0.0,0.0,0.0,0.0,0.0,0.0,0.0,0.0,0.0,0.0,0.0,0.0,0.0,0.0,0.0,0.0,0.0,0.0,0.0,0.0,0.0,0.0,0.0,0.0,0.0,0.0,0.0,0.0,0.0,0.0,0.0,0.0,0.0,0.0,0.0,0.0,0.0,0.0,0.0,0.0,0.0,0.0,0.0,0.0,0.0,0.0,0.0,0.0,0.0,0.0,0.0,0.0,0.0,0.0,0.0,0.0,0.0,0.0,0.0,0.0,0.0,0.0,0.0,0.0,0.0,0.0,0.0,0.0,0.0,0.0,0.0,0.0,0.0,0.0,0.0,0.0,0.0,0.0,0.0,0.0,0.0,0.0,0.0,0.0,0.0,0.0,0.0,0.0,0.0,0.0,0.0,0.0,0.0,0.0,0.0,0.0,0.0,0.0,0.0,0.0,0.0,0.0,0.0,0.0,0.0,0.0,0.0,0.0,0.0,0.0,0.0,0.0,0.0,0.0,0.0,0.0,0.0,0.0,0.0,0.0,0.0,0.0,0.0,0.0,0.0,0.0,0.0,0.0,0.0,0.0,0.0,0.0,0.0,0.0,0.0,0.0,0.0,0.0,0.0,0.0,0.0,0.0,0.0,0.0,0.0,0.0,0.0,0.0,0.0,0.0,0.0,0.0,0.0,0.0,0.0,0.0,0.0,0.0,0.0,0.0,0.0,0.0,0.0,0.0,0.0,0.0,0.0,0.0,0.0,0.0,0.0,0.0,0.0,0.0,0.0,0.0,0.0,0.0,0.0,0.0,0.0,0.0,0.0,0.0,0.0,0.0,0.0,0.0,0.0,0.0,0.0,0.0,0.0,0.0,0.0,0.0,0.0,0.0,0.0,0.0,0.0,0.0,0.0,0.0,0.0,0.0,0.0,0.0,0.0,0.0,0.0,0.0,0.0,0.0,0.0,0.0,0.0,0.0,0.0,0.0,0.0,0.0,0.0,0.0,0.0,0.0,0.0,0.0,0.0,0.0,0.0,0.0,0.0,0.0,0.0,0.0,0.0,0.0,0.0,0.0,0.0,0.0,0.0,0.0,0.0,0.0,0.0,0.0,0.0,0.0,0.0,0.0,0.0,0.0,0.0,0.0,0.0,0.0,0.0,0.0,0.0,0.0,0.0,0.0,0.0,0.0,0.0,0.0,0.0,0.0,0.0,0.0,0.0,0.0,0.0,0.0,0.0,0.0,0.0,0.0,0.0,0.0,0.0,0.0,0.0,0.0,0.0,0.0,0.0,0.0,0.0,0.0,0.0,0.0,0.0,0.0,0.0,0.0,0.0,0.0,0.0,0.0,0.0,0.0,0.0,0.0,0.0,0.0,0.0,0.0,0.0,0.0,0.0,0.0,0.0,0.0,0.0,0.0,0.0,0.0,0.0,0.0,0.0,0.0,0.0,0.0,0.0,0.0,0.0,0.0,0.0,0.0,0.0,0.0,0.0,0.0,0.0,0.0,0.0,0.0,0.0,0.0,0.0,0.0,0.0,0.0,0.0,0.0,0.0,0.0,0.0,0.0,0.0,0.0,0.0,0.0,0.0,0.0,0.0,0.0,0.0,0.0,0.0,0.0,0.0,0.0,0.0,0.0,0.0,0.0,0.0,0.0,0.0,0.0,0.0,0.0,0.0,0.0,0.0,0.0,0.0,0.0,0.0,0.0,0.0,0.0,0.0,0.0,0.0,0.0,0.0,0.0,0.0,0.0,0.0,0.0,0.0,0.0,0.0,0.0,0.0,0.0,0.0,0.0,0.0,0.0,0.0,0.0,0.0,0.0,0.0,0.0,0.0,0.0,0.0,0.0,0.0,0.0,0.0,0.0,0.0,0.0,0.0,0.0,0.0,0.0,0.0,0.0,0.0,0.0,0.0,0.0,0.0,0.0,0.0,0.0,0.0,0.0,0.0,0.0,0.0,0.0,0.0,0.0,0.0,0.0,0.0,0.0,0.0,0.0,0.0,0.0,0.0,0.0,0.0,0.0,0.0,0.0,0.0,0.0,0.0,0.0,0.0,0.0,0.0,0.0,0.0,0.0,0.0,0.0,0.0,0.0,0.0,0.0,0.0,0.0,0.0,0.0,0.0,0.0,0.0,0.0,0.0,0.0,0.0,0.0,0.0,0.0,0.0,0.0,0.0,0.0,0.0,0.0,0.0,0.0,0.0,0.0,0.0,0.0,0.0,0.0,0.0,0.0,0.0,0.0,0.0,0.0,0.0,0.0,0.0,0.0,0.0,0.0,0.0,0.0,0.0,0.0,0.0,0.0,0.0,0.0,0.0,0.0,0.0,0.0,0.0,0.0,0.0,0.0,0.0,0.0,0.0,0.0,0.0,0.0,0.0,0.0,0.0,0.0,0.0,0.0,0.0,0.0,0.0,0.0,0.0,0.0,0.0,-5.6503,-5.6503,0.0,0.0,0.0,0.0,0.0,0.0,0.0,0.0,0.0,0.0,0.0,0.0,0.0,0.0,0.0,0.0,0.0,0.0,0.0,0.0,0.0,0.0,0.0,0.0,0.0,0.0,0.0,0.0,0.0,0.0,0.0,0.0,0.0,0.0,0.0,0.0,0.0,0.0,0.0,0.0,0.0,0.0,0.0,0.0,0.0,0.0,0.0,0.0,0.0,0.0,0.0,0.0,0.0,0.0,0.0,0.0,0.0,0.0,0.0,0.0,0.0,0.0,0.0,0.0,0.0,0.0,0.0,0.0,0.0,0.0,0.0,0.0,0.0,0.0,0.0,0.0,0.0,0.0,0.0,0.0,0.0,0.0,0.0,0.0,0.0,0.0,0.0,0.0,0.0,0.0,0.0,0.0,0.0,0.0,0.0,0.0,0.0,0.0,0.0,0.0,0.0,0.0,0.0,0.0,0.0,0.0,0.0,0.0,0.0,0.0,0.0,0.0,0.0,0.0,-5.6503,-5.6503,0.0,0.0,0.0,0.0,0.0,0.0,0.0,0.0,0.0,0.0,0.0,0.0,0.0,0.0,0.0,0.0,0.0,0.0,0.0,0.0,0.0,0.0,0.0,0.0,0.0,0.0,0.0,0.0,0.0,0.0,0.0,0.0,0.0,0.0,0.0,0.0,0.0,0.0,0.0,0.0,0.0,0.0,0.0,0.0,0.0,0.0,0.0,0.0,0.0,0.0,0.0,0.0,0.0,0.0,0.0,0.0,0.0,0.0,0.0,0.0,0.0,0.0,0.0,0.0,0.0,0.0,0.0,0.0,0.0,0.0,0.0,0.0,0.0,0.0,0.0,0.0,0.0,0.0,0.0,0.0,0.0,0.0,0.0,0.0,0.0,0.0,0.0,0.0,0.0,0.0,0.0,0.0,0.0,0.0,0.0,0.0,0.0,0.0,0.0,0.0,0.0,0.0,0.0,0.0,0.0,0.0,0.0,0.0,-5.6503,-5.6503,-5.6503,-5.6503,-5.658,-5.6697,-5.6697,-5.6619,-5.6503,-5.6503,0.0,0.0,0.0,0.0,0.0,0.0,0.0,0.0,0.0,0.0,0.0,0.0,0.0,0.0,0.0,0.0,0.0,0.0,0.0,0.0,0.0,0.0,0.0,0.0,0.0,0.0,0.0,0.0,0.0,0.0,0.0,0.0,0.0,0.0,0.0,0.0,0.0,0.0,-5.0925,-5.166,-5.2028,-5.2028,0.0,0.0,0.0,0.0,0.0,0.0,0.0,0.0,0.0,0.0,0.0,0.0,0.0,0.0,0.0,0.0,0.0,0.0,0.0,0.0,0.0,0.0,0.0,0.0,0.0,0.0,0.0,0.0,0.0,0.0,0.0,0.0,0.0,0.0,0.0,0.0,0.0,0.0,0.0,0.0,0.0,0.0,0.0,0.0,-5.6182,-5.6299,0.0,0.0,0.0,0.0,0.0,0.0,0.0,0.0,0.0,0.0,0.0,0.0,0.0,-5.6503,-5.6503,-5.6503,-5.6503,-5.6503,-5.6503,-5.6503,-5.6503,-5.6503,-5.6873,-5.7535,-5.7535,0.0,-5.6503,-5.6503,0.0,0.0,0.0,0.0,0.0,0.0,0.0,0.0,0.0,0.0,0.0,0.0,0.0,0.0,0.0,0.0,0.0,0.0,0.0,0.0,0.0,0.0,0.0,0.0,0.0,0.0,0.0,0.0,0.0,0.0,0.0,0.0,0.0,0.0,0.0,0.0,-5.1389,-5.1621,-5.1641,-5.2511,-5.2917,-5.2956,-5.344,-5.3382,-5.2956,-5.3343,0.0,0.0,0.0,0.0,0.0,0.0,0.0,0.0,0.0,0.0,0.0,0.0,0.0,0.0,0.0,0.0,0.0,0.0,0.0,0.0,0.0,0.0,0.0,0.0,0.0,0.0,0.0,0.0,0.0,0.0,0.0,0.0,0.0,0.0,0.0,0.0,0.0,0.0,0.0,-5.6503,-5.6503,-5.6503,-5.6503,-5.6503,0.0,0.0,0.0,0.0,0.0,0.0,0.0,0.0,0.0,-5.6503,-5.6503,-5.6503,-5.6503,-5.6951,-5.7165,-5.7184,-5.7672,-5.7905,-5.7905,-5.7905,-5.81,-5.8431,-5.8431,-5.8237,-5.7905,-5.7905,-5.7905,-5.7905,0.0,0.0,0.0,0.0,-5.7905,-5.7827,0.0,0.0,0.0,0.0,0.0,0.0,0.0,0.0,0.0,0.0,0.0,0.0,0.0,0.0,0.0,-4.516,0.0,0.0,0.0,0.0,0.0,0.0,0.0,0.0,0.0,0.0,0.0,0.0,-5.1873,-5.2298,-5.255,-5.342,-5.3826,-5.3865,-5.4735,-5.4636,-5.3859,-5.4072,-5.4552,0.0,0.0,0.0,0.0,0.0,0.0,0.0,0.0,0.0,0.0,0.0,0.0,0.0,0.0,0.0,0.0,0.0,0.0,0.0,0.0,0.0,0.0,0.0,0.0,0.0,0.0,0.0,0.0,0.0,0.0,0.0,0.0,0.0,0.0,0.0,0.0,0.0,0.0,-5.6503,-5.6503,-5.6503,-5.6503,-5.6503,0.0,0.0,0.0,0.0,0.0,0.0,-5.6503,-5.6697,-5.6814,-5.6814,-5.7009,-5.7145,-5.7145,-5.773,-5.8022,-5.8042,-5.8685,-5.8996,-5.8996,-5.8996,-5.9113,-5.9328,-5.9328,-5.9464,-5.962,-5.9172,-5.8996,-5.8996,-5.8996,-5.8996,-5.8996,-5.8996,-5.8996,-5.8899,0.0,0.0,0.0,0.0,0.0,0.0,0.0,0.0,0.0,0.0,0.0,0.0,0.0,0.0,-4.5198,-4.6051,-4.7624,-4.8609,0.0,0.0,0.0,0.0,0.0,0.0,0.0,0.0,0.0,0.0,0.0,0.0,-5.344,-5.4329,-5.4735,-5.4774,-5.5586,-5.554,-5.4881,-5.5637,-5.6029,-5.6123,0.0,0.0,0.0,0.0,0.0,0.0,0.0,0.0,0.0,0.0,0.0,0.0,0.0,0.0,0.0,0.0,0.0,0.0,0.0,0.0,0.0,0.0,0.0,0.0,0.0,0.0,0.0,0.0,0.0,0.0,0.0,0.0,0.0,0.0,0.0,0.0,0.0,0.0,0.0,-5.6503,-5.6503,0.0,0.0,0.0,0.0,-5.6503,-5.6503,-5.6503,-5.6503,-5.7223,-5.7633,-5.7633,-5.8431,-5.886,-5.886,-5.8899,-5.8918,-5.8938,-5.8977,-5.8996,-5.8996,-5.8996,-5.9445,-6.0224,-6.0224,-6.0692,-6.1334,-5.9678,-5.8996,-5.8996,-5.8996,-5.8996,-5.8996,-5.8996,-5.8996,-5.8996,0.0,0.0,0.0,0.0,0.0,0.0,0.0,0.0,0.0,0.0,0.0,0.0,0.0,-4.4914,-4.607,-4.6904,-4.8022,-4.8913,-4.9424,0.0,0.0,0.0,0.0,0.0,0.0,0.0,0.0,0.0,0.0,0.0,0.0,-5.518,-5.5567,-5.5586,-5.5877,-5.5888,-5.5695,-5.5924,-5.6071,-5.6146,-5.6146,-5.616,0.0,0.0,0.0,0.0,0.0,0.0,0.0,0.0,0.0,0.0,0.0,0.0,0.0,0.0,0.0,0.0,0.0,0.0,0.0,0.0,0.0,0.0,0.0,0.0,0.0,0.0,0.0,0.0,0.0,0.0,0.0,0.0,0.0,0.0,0.0,0.0,0.0,-5.6503,-5.6503,0.0,-5.6503,-5.6503,-5.6697,-5.7223,-5.7262,-5.7516,-5.8081,-5.8373,-5.8529,-5.8529,-5.8841,-5.8996,-5.8996,-5.9561,-5.9834,-5.9854,-6.0964,-6.151,-6.1529,-6.2055,-6.2445,-6.2718,-6.2192,-6.2153,-6.2348,-6.1159,-6.0672,-6.0672,-6.0672,-6.0672,-6.0672,-6.0672,-6.0672,-6.0594,0.0,0.0,0.0,0.0,0.0,0.0,0.0,0.0,0.0,0.0,0.0,-4.4213,-4.4516,-4.5786,-4.6942,-4.7757,-4.8609,-4.933,-4.986,0.0,0.0,0.0,0.0,0.0,0.0,0.0,0.0,0.0,0.0,0.0,0.0,0.0,0.0,-5.6012,-5.6012,-5.6026,-5.6056,-5.601,-5.6059,-5.6126,-5.6126,-5.616,-5.6168,0.0,0.0,0.0,0.0,0.0,0.0,0.0,0.0,0.0,0.0,0.0,0.0,0.0,0.0,0.0,0.0,0.0,0.0,0.0,0.0,0.0,0.0,0.0,0.0,0.0,0.0,0.0,0.0,0.0,0.0,0.0,0.0,0.0,0.0,0.0,-5.6503,-5.6503,-5.6736,-5.6892,-5.6892,-5.7165,-5.7555,-5.81,-5.8139,-5.8392,-5.8977,-5.9269,-5.9561,-5.9873,-6.0165,-6.0458,-6.0711,-6.1295,-6.1588,-6.1607,-6.2757,-6.3302,-6.3322,-6.3867,-6.4101,-6.4062,-6.3536,-6.3302,-6.3263,-6.2679,-6.2445,-6.2426,-6.2133,-6.2192,-6.2445,-6.2445,-6.2445,-6.2367,0.0,0.0,0.0,0.0,0.0,0.0,0.0,0.0,0.0,0.0,0.0,-4.5255,-4.6108,-4.6942,-4.7776,-4.8628,-4.9424,-4.9898,-4.9898,-4.9898,0.0,0.0,0.0,0.0,0.0,0.0,0.0,0.0,0.0,0.0,0.0,0.0,0.0,0.0,-5.6012,-5.6012,-5.6012,-5.6012,-5.6071,-5.6194,-5.6194,-5.6154,-5.6117,0.0,0.0,0.0,0.0,0.0,0.0,0.0,0.0,0.0,0.0,0.0,0.0,0.0,0.0,0.0,0.0,0.0,0.0,0.0,0.0,0.0,0.0,0.0,0.0,0.0,0.0,0.0,0.0,0.0,0.0,0.0,0.0,0.0,-5.6503,-5.6522,-5.6541,-5.6541,-5.7243,-5.773,-5.773,-5.849,-5.9016,-5.9035,-5.9035,-5.9055,-5.9113,-5.9912,-6.0769,-6.1646,-6.2503,-6.3302,-6.4082,-6.4101,-6.4101,-6.4101,-6.414,-6.414,-6.414,-6.4179,-6.4179,-6.4179,-6.416,-6.414,-6.414,-6.4121,-6.4121,-6.4062,-6.3244,-6.3419,-6.4101,-6.4101,-6.4101,-6.4101,0.0,0.0,0.0,0.0,0.0,0.0,0.0,0.0,0.0,0.0,-4.5312,-4.5918,-4.6165,-4.7472,-4.8439,-4.8666,-4.9424,-4.9898,-4.9898,0.0,0.0,0.0,0.0,0.0,0.0,0.0,0.0,0.0,0.0,0.0,0.0,0.0,0.0,0.0,-5.6012,-5.6012,-5.6012,-5.6012,-5.601,-5.6075,-5.6117,-5.616,-5.6168,0.0,0.0,0.0,0.0,0.0,0.0,0.0,0.0,0.0,0.0,0.0,0.0,0.0,0.0,0.0,0.0,0.0,0.0,0.0,0.0,0.0,0.0,0.0,0.0,0.0,0.0,0.0,0.0,0.0,0.0,0.0,0.0,-5.7165,-5.658,-5.699,-5.736,-5.736,-5.812,-5.8646,-5.8646,-5.886,-5.925,-5.9893,-5.9932,-6.0497,-6.1763,-6.2055,-6.2562,-6.34,-6.3653,-6.3887,-6.4101,-6.4101,-6.4101,-6.4121,-6.4744,-6.5036,-6.5056,-6.5699,-6.5991,-6.5952,-6.5329,-6.5036,-6.4997,-6.4354,-6.4471,-6.4958,-6.4101,-6.3906,-6.4101,-6.4101,-6.4101,-6.4101,0.0,0.0,0.0,0.0,0.0,0.0,0.0,0.0,0.0,0.0,-4.5653,-4.6316,-4.6657,-4.7889,-4.8837,-4.9159,-4.9614,-4.9898,-4.9898,0.0,0.0,0.0,0.0,0.0,0.0,0.0,0.0,0.0,0.0,0.0,0.0,0.0,0.0,0.0,0.0,-5.6012,-5.6012,-5.6012,-5.6012,-5.5993,-5.6043,-5.6071,-5.6117,-5.616,-5.6146,-5.6132,-5.616,-5.6174,-5.6174,-5.6174,0.0,0.0,0.0,0.0,0.0,0.0,0.0,0.0,0.0,0.0,0.0,0.0,0.0,0.0,0.0,0.0,0.0,0.0,0.0,0.0,0.0,0.0,0.0,0.0,-5.7691,-5.8081,-5.7613,-5.7944,-5.8237,-5.8237,-5.9016,-5.9698,-6.0049,-6.0419,-6.0984,-6.1822,-6.188,-6.2328,-6.3341,-6.34,-6.3789,-6.4627,-6.4647,-6.4997,-6.5738,-6.5738,-6.5913,-6.6283,-6.679,-6.7024,-6.7043,-6.7569,-6.7784,-6.7764,-6.7257,-6.6829,-6.6459,-6.5933,-6.5816,-6.5855,0.0,0.0,0.0,0.0,-6.5192,-6.5192,0.0,0.0,0.0,0.0,0.0,0.0,0.0,0.0,0.0,0.0,0.0,-4.6639,-4.7453,-4.8306,-4.9102,-4.9822,-4.9898,-4.9898,0.0,0.0,0.0,0.0,0.0,0.0,0.0,0.0,0.0,0.0,0.0,0.0,0.0,0.0,0.0,0.0,0.0,-5.5958,-5.5977,-5.5977,-5.5995,-5.6012,-5.6012,-5.6012,-5.6012,-5.6075,-5.6059,-5.6012,-5.6075,-5.6087,-5.6102,-5.6102,0.0,0.0,0.0,0.0,0.0,0.0,0.0,0.0,0.0,0.0,0.0,0.0,0.0,0.0,0.0,0.0,0.0,0.0,0.0,0.0,0.0,0.0,0.0,0.0,-5.8665,-5.9289,-5.9289,-5.9464,-5.9503,-5.9328,-6.0146,-6.1023,-6.1802,-6.2581,-6.3322,-6.4043,-6.4101,-6.4199,-6.4374,0.0,0.0,0.0,0.0,-6.6576,-6.8134,-6.8154,-6.8524,-6.9303,-6.9303,-6.9303,-6.9303,-6.9303,-6.9303,-6.9303,-6.9303,-6.8855,-6.8154,-6.8154,-6.7686,-6.6907,-6.5933,-6.603,-6.6712,-6.6712,-6.6712,-6.6712,0.0,0.0,0.0,0.0,0.0,0.0,0.0,0.0,0.0,-4.5862,-4.6657,-4.7491,-4.8344,-4.9178,-4.9728,-4.9879,-4.9898,-4.9898,0.0,0.0,0.0,0.0,0.0,0.0,0.0,0.0,0.0,0.0,0.0,0.0,0.0,0.0,0.0,0.0,0.0,-5.5684,-5.5847,-5.5847,-5.5904,-5.6012,-5.6012,-5.6012,-5.5993,-5.601,-5.601,-5.5993,-5.601,-5.604,-5.6102,-5.6102,-5.6141,-5.6194,-5.6207,0.0,0.0,0.0,0.0,0.0,0.0,0.0,0.0,0.0,0.0,0.0,0.0,0.0,0.0,0.0,0.0,0.0,0.0,0.0,0.0,-5.8743,-6.0068,-6.1101,-6.1101,-6.225,-6.2601,-6.1257,-6.2445,-6.3439,-6.3595,-6.377,-6.3926,-6.4082,-6.4101,-6.4705,-6.6127,-6.6205,-6.6926,-6.8504,-6.8543,-6.8699,-6.905,-6.905,-6.9128,-6.9303,0.0,0.0,-6.9303,-6.9303,-6.9303,-6.9303,-6.9303,-6.9206,-6.905,-6.905,-6.8953,-6.8641,-6.7063,-6.6556,-6.6712,-6.6712,-6.6712,-6.6712,0.0,0.0,0.0,0.0,0.0,0.0,0.0,0.0,0.0,0.0,-4.6859,-4.7719,-4.859,-4.9405,-4.9898,-4.9898,-4.9898,0.0,0.0,0.0,0.0,0.0,0.0,0.0,0.0,0.0,0.0,0.0,0.0,0.0,0.0,0.0,0.0,0.0,0.0,0.0,-5.5904,-5.5705,-5.5747,-5.5904,-5.5904,-5.5904,-5.5904,-5.5958,-5.6012,-5.6012,-5.6012,-5.6026,-5.6059,-5.6059,-5.6071,-5.6102,-5.6146,-5.6141,-5.6174,0.0,0.0,0.0,0.0,0.0,0.0,0.0,0.0,0.0,0.0,0.0,0.0,0.0,0.0,-5.8353,0.0,0.0,-5.9795,-6.0224,-6.1393,-6.2387,-6.2796,-6.3945,-6.4276,-6.301,-6.3595,-6.4276,-6.4705,-6.4744,-6.5114,-6.5991,-6.605,-6.6615,-6.792,-6.7998,-6.8407,-6.9264,-6.9303,-6.9498,-6.9946,-6.9946,-7.0141,-7.055,-7.055,-7.055,-7.055,-7.055,-7.055,-7.055,-7.055,-7.0316,-6.9907,-6.9479,-6.9303,-6.9206,-6.8329,-6.7725,-6.7296,-6.6868,-6.6712,-6.677,0.0,0.0,0.0,0.0,0.0,0.0,0.0,0.0,0.0,0.0,0.0,-4.7776,-4.8818,-4.95,-4.9898,0.0,0.0,0.0,0.0,0.0,0.0,0.0,0.0,0.0,0.0,0.0,0.0,0.0,0.0,0.0,0.0,0.0,0.0,0.0,0.0,0.0,-5.5827,-5.5554,-5.5551,-5.5745,-5.5745,-5.5766,-5.5807,-5.5923,-5.5977,-5.6012,-5.6012,-5.6012,-5.6012,-5.6012,-5.6012,-5.601,-5.6056,-5.6071,-5.6087,-5.616,-5.6154,0.0,0.0,0.0,0.0,0.0,0.0,0.0,0.0,0.0,-5.7683,-5.7916,-5.8646,-5.925,-5.925,-6.0107,-6.1042,-6.1744,-6.2718,-6.3614,-6.4257,-6.5095,-6.5387,-6.4686,-6.4608,-6.4958,-6.5816,-6.5913,-6.6556,-6.8134,-6.8251,-6.8621,-6.9498,-6.9537,-6.9615,-6.9771,-6.979,-7.0122,-7.0823,-7.0823,-7.1154,-7.1797,-7.1797,-7.1797,-7.1797,-7.1797,-7.1797,-7.1797,-7.1797,-7.1427,-7.0784,-7.0083,-6.979,-6.9771,-6.9615,-6.9128,-6.8407,-6.753,-6.7219,-6.7316,0.0,0.0,0.0,0.0,0.0,0.0,0.0,0.0,0.0,0.0,0.0,0.0,0.0,0.0,0.0,0.0,0.0,0.0,0.0,0.0,0.0,0.0,0.0,0.0,0.0,0.0,0.0,0.0,0.0,0.0,0.0,0.0,0.0,0.0,0.0,0.0,-5.5288,-5.5236,-5.5339,-5.5527,-5.5527,-5.564,-5.5787,-5.5807,-5.5904,-5.6012,-5.6012,-5.6012,-5.6012,-5.6012,-5.6012,-5.5993,-5.5993,-5.601,-5.601,-5.601,0.0,-5.6026,-5.6026,-5.6071,-5.6141,-5.6267,-5.6289,-5.6513,0.0,0.0,-5.7905,-5.8685,-5.9542,-6.0146,-6.0146,-6.149,-6.264,-6.2737,-6.4082,-6.5153,-6.5251,-6.6011,-6.6517,-6.642,-6.642,-6.6751,-6.7628,-6.7706,-6.8115,-6.9069,-6.9147,-6.9537,-7.0414,-7.0453,-7.0784,-7.1505,-7.1524,-7.1563,-7.1661,-7.1661,-7.17,-7.1797,-7.1797,-7.1797,-7.1797,-7.1797,-7.1797,-7.1797,-7.1797,-7.1739,-7.1661,-7.1563,-7.1524,-7.1446,-7.0726,-7.0394,-7.02,-6.9323,-6.9011,-6.9011,0.0,0.0,0.0,0.0,0.0,0.0,0.0,0.0,0.0,0.0,0.0,0.0,0.0,0.0,0.0,0.0,0.0,0.0,0.0,0.0,0.0,0.0,0.0,0.0,0.0,0.0,0.0,0.0,0.0,0.0,0.0,0.0,0.0,0.0,0.0,0.0,-5.5358,-5.5121,-5.5149,-5.5333,-5.5333,-5.5456,-5.564,-5.5745,-5.5885,-5.6012,-5.6012,-5.6012,0.0,0.0,-5.6012,-5.6012,-5.6012,-5.6012,-5.6012,-5.6012,-5.6012,0.0,-5.6102,-5.6146,0.0,0.0,-5.7118,-5.7361,-5.8256,-5.8841,-5.9328,-5.9678,-6.0458,-6.1218,-6.1724,-6.2406,-6.3224,0.0,-6.4939,-6.5582,-6.6088,-6.6478,-6.6887,-6.7394,-6.7472,-6.7608,-6.7959,-6.8465,-6.9128,-6.9985,-7.0063,-7.0414,-7.1252,-7.1291,-7.1446,-7.1797,-7.1797,-7.1797,-7.1797,-7.1797,-7.1797,-7.1797,-7.1797,-7.1797,-7.1797,-7.1797,-7.1797,-7.1797,-7.1797,-7.1797,-7.1797,-7.1797,-7.1797,-7.1778,-7.1427,-7.1291,-7.1135,-6.979,-6.9303,-6.9362,0.0,0.0,0.0,0.0,0.0,0.0,0.0,0.0,0.0,0.0,0.0,0.0,0.0,0.0,0.0,0.0,0.0,0.0,0.0,0.0,0.0,0.0,0.0,0.0,0.0,0.0,0.0,0.0,0.0,0.0,0.0,0.0,0.0,0.0,0.0,0.0,-5.5333,-5.5028,-5.4971,-5.5121,-5.5121,-5.5281,-5.5527,-5.5662,-5.5827,-5.6012,-5.6012,-5.6012,0.0,0.0,-5.6012,-5.6012,-5.6012,-5.6012,-5.6012,-5.6012,-5.6167,-5.6336,-5.6232,0.0,0.0,-5.7575,-5.7886,-5.8295,-5.9152,-5.9854,-6.036,-6.0614,-6.1159,-6.1783,-6.2426,-6.2913,-6.3634,-6.4842,-6.5446,-6.5991,-6.6615,-6.6712,-6.7024,-6.79,-6.8212,-6.8446,-6.8699,-6.9284,-7.0005,-7.0862,-7.092,-7.1193,-7.1778,-7.1797,-7.1797,-7.1797,-7.1797,-7.1797,-7.1797,-7.1797,-7.1797,-7.1797,-7.1797,-7.1797,-7.1797,-7.1797,-7.1797,-7.1797,-7.1797,-7.1797,-7.1797,-7.1797,-7.1797,-7.1797,-7.1797,-7.1797,-7.1641,-7.0433,-6.9985,-7.0083,0.0,0.0,0.0,0.0,0.0,0.0,0.0,0.0,0.0,0.0,0.0,0.0,0.0,0.0,0.0,0.0,0.0,0.0,0.0,0.0,0.0,0.0,0.0,0.0,0.0,0.0,0.0,0.0,0.0,0.0,0.0,0.0,0.0,0.0,0.0,0.0,0.0,-5.4901,-5.4901,-5.4901,-5.4901,-5.5149,-5.5504,-5.5504,-5.5707,-5.6012,-5.6012,0.0,0.0,0.0,-5.6012,-5.6012,-5.6012,-5.6012,0.0,-5.6012,-5.6611,0.0,0.0,0.0,-5.8551,-5.7858,-5.8334,-5.9191,-6.0068,-6.0282,-6.0536,-6.1393,-6.1588,-6.1607,-6.1627,-6.2971,-6.4082,-6.414,-6.5562,-6.6673,-6.6712,-6.6712,-6.7024,-6.79,-6.8758,-6.9596,0.0,-7.055,-7.0901,-7.17,-7.1758,-7.1778,-7.1797,-7.1797,-7.1797,-7.1797,-7.1797,-7.1797,-7.1797,-7.1797,-7.1797,-7.1797,-7.1797,-7.1797,-7.1797,-7.1797,-7.1797,-7.1797,-7.1797,-7.1797,-7.1797,-7.1797,-7.1797,-7.1797,-7.1797,-7.1797,-7.1797,-7.1739,-7.1719,-7.1719,0.0,0.0,0.0,0.0,0.0,0.0,0.0,0.0,0.0,0.0,0.0,0.0,0.0,0.0,0.0,0.0,0.0,0.0,0.0,0.0,0.0,0.0,0.0,0.0,0.0,0.0,0.0,0.0,0.0,0.0,0.0,0.0,0.0,0.0,0.0,0.0,0.0,-5.4901,-5.4901,-5.4901,-5.4901,-5.5149,-5.548,-5.5339,-5.5531,-5.5847,0.0,0.0,0.0,0.0,0.0,0.0,-5.6012,0.0,0.0,-5.6689,-5.6684,-5.6707,0.0,0.0,-5.8223,-5.9192,-5.9639,-6.0088,-6.0964,-6.1159,-6.1257,-6.1549,-6.1607,-6.1783,-6.2367,-6.2913,-6.3672,-6.4783,-6.5446,-6.605,-6.6615,-6.6712,-6.7238,-6.868,-6.9108,0.0,0.0,0.0,0.0,-7.1778,-7.1797,-7.1797,-7.1797,-7.1797,-7.1797,-7.1797,-7.1797,-7.1797,-7.1797,-7.1797,-7.1797,-7.1797,-7.1797,-7.1797,-7.1797,-7.1797,-7.1797,-7.1797,-7.1797,-7.1797,-7.1797,-7.1797,-7.1797,-7.1797,-7.1797,-7.1797,-7.1797,-7.1797,-7.1797,-7.1797,0.0,0.0,0.0,0.0,0.0,0.0,0.0,0.0,0.0,0.0,0.0,0.0,0.0,0.0,0.0,0.0,0.0,0.0,0.0,0.0,0.0,0.0,0.0,0.0,0.0,0.0,0.0,0.0,0.0,0.0,0.0,0.0,0.0,0.0,0.0,0.0,0.0,0.0,-5.4901,-5.4901,-5.4901,-5.5113,-5.5383,-5.5236,-5.5408,0.0,0.0,0.0,0.0,0.0,0.0,0.0,0.0,-5.6205,-5.6515,-5.6766,-5.7129,-5.7598,-5.8187,-5.8642,-5.9176,-6.0069,-6.0536,-6.0906,-6.1471,-6.1607,-6.1607,-6.1607,-6.1607,-6.1763,-6.2328,-6.2698,-6.3341,-6.4705,-6.5192,-6.5699,-6.6576,-6.6712,-6.7355,-6.9089,-6.9303,-6.9966,0.0,0.0,0.0,-7.1797,-7.1797,-7.1797,-7.1797,-7.1797,-7.1797,-7.1797,-7.1797,-7.1797,-7.1797,-7.1797,-7.1797,-7.1797,-7.1797,-7.1797,-7.1797,-7.1797,-7.1797,-7.1797,-7.1797,-7.1797,-7.1797,-7.1797,-7.1797,-7.1797,-7.1797,-7.1797,-7.1797,-7.1797,-7.1797,-7.1797,0.0,0.0,0.0,0.0,0.0,0.0,0.0,0.0,0.0,0.0,0.0,0.0,0.0,0.0,0.0,0.0,0.0,0.0,0.0,0.0,0.0,0.0,0.0,0.0,0.0,0.0,0.0,0.0,0.0,0.0,0.0,0.0,0.0,0.0,0.0,0.0,0.0,0.0,-5.4901,-5.4901,-5.4901,-5.5028,-5.5203,-5.5203,0.0,0.0,0.0,0.0,0.0,0.0,0.0,0.0,0.0,0.0,-5.7095,-5.636,-5.7849,-5.9469,-5.8076,-5.949,-6.1201,-6.0536,-6.0984,-6.1607,-6.1607,-6.1607,-6.1607,-6.1607,-6.1607,-6.1607,0.0,0.0,-6.3107,-6.3965,-6.4783,-6.566,-6.6576,-6.6712,-6.7335,0.0,0.0,0.0,0.0,0.0,0.0,-7.1797,0.0,-7.1797,-7.1797,-7.1797,-7.1797,-7.1797,-7.1797,-7.1797,-7.1797,-7.1797,-7.1797,-7.1797,-7.1797,-7.1797,-7.1797,-7.1797,-7.1797,-7.1797,-7.1797,-7.1797,-7.1797,-7.1797,-7.1797,-7.1797,-7.1797,-7.1797,-7.1797,-7.1797,-7.1797,-7.1797,0.0,0.0,0.0,0.0,0.0,0.0,0.0,0.0,0.0,0.0,0.0,0.0,0.0,0.0,0.0,0.0,0.0,0.0,0.0,0.0,0.0,0.0,0.0,0.0,0.0,0.0,0.0,0.0,0.0,0.0,0.0,0.0,0.0,0.0,0.0,0.0,0.0,0.0,0.0,-5.4901,0.0,-5.5028,-5.5183,0.0,0.0,0.0,0.0,0.0,0.0,0.0,0.0,0.0,0.0,-5.6147,-5.6534,-5.7617,-5.8028,-5.8445,-6.0001,-6.0487,-6.0701,-6.115,-6.1432,-6.1607,-6.1607,-6.1607,-6.1607,-6.1607,-6.1607,-6.1607,0.0,0.0,0.0,-6.3867,-6.4296,0.0,-6.6498,-6.6712,0.0,-6.8193,0.0,-6.9712,-7.0804,-7.1446,0.0,0.0,-7.1797,-7.1797,-7.1797,-7.1797,-7.1797,-7.1797,-7.1797,-7.1797,-7.1797,-7.1797,-7.1797,-7.1797,-7.1797,-7.1797,-7.1797,-7.1797,-7.1797,-7.1797,-7.1797,-7.1797,-7.1797,-7.1797,-7.1797,-7.1797,-7.1797,-7.1797,-7.1797,-7.1797,-7.1797,-7.1797,0.0,0.0,0.0,0.0,0.0,0.0,0.0,0.0,0.0,0.0,0.0,0.0,0.0,0.0,0.0,0.0,0.0,0.0,0.0,0.0,0.0,0.0,0.0,0.0,0.0,0.0,0.0,0.0,0.0,0.0,0.0,0.0,0.0,0.0,0.0,0.0,0.0,0.0,0.0,0.0,0.0,0.0,0.0,0.0,0.0,0.0,0.0,0.0,0.0,0.0,0.0,-5.6012,-5.6012,-5.6263,-5.6766,-5.7733,0.0,-5.8911,-6.0429,-6.0818,-6.0955,-6.1461,-6.1607,-6.1607,-6.1607,-6.1607,-6.1607,-6.1607,-6.1607,0.0,0.0,0.0,0.0,0.0,0.0,0.0,-6.6459,-6.6712,-6.718,0.0,-6.8992,0.0,-7.0998,-7.1544,-7.1797,0.0,-7.1797,-7.1797,-7.1797,-7.1797,-7.1797,-7.1797,-7.1797,-7.1797,-7.1797,-7.1797,-7.1797,-7.1797,-7.1797,-7.1797,-7.1797,-7.1797,-7.1797,-7.1797,-7.1797,-7.1797,-7.1797,-7.1797,-7.1797,-7.1797,-7.1797,-7.1797,-7.1797,-7.1797,-7.1797,-7.1797,0.0,0.0,0.0,0.0,0.0,0.0,0.0,0.0,0.0,0.0,0.0,0.0,0.0,0.0,0.0,0.0,0.0,0.0,0.0,0.0,0.0,0.0,0.0,0.0,0.0,0.0,0.0,0.0,0.0,0.0,0.0,0.0,0.0,0.0,0.0,0.0,0.0,0.0,0.0,0.0,0.0,0.0,0.0,0.0,0.0,0.0,0.0,0.0,0.0,0.0,-5.5728,-5.6012,-5.6012,-5.6534,-5.7172,-5.7404,-5.8596,-5.991,-6.0182,-6.0883,-6.1526,-6.1598,-6.1607,-6.1607,-6.1607,-6.1607,-6.1607,-6.1607,0.0,-6.1607,-6.1607,0.0,-6.2153,-6.3828,0.0,-6.4705,-6.6459,-6.6712,-6.7257,-6.8777,-6.9147,-6.9868,-7.133,-7.1661,-7.1797,-7.1797,-7.1797,-7.1797,-7.1797,-7.1797,-7.1797,-7.1797,-7.1797,-7.1797,-7.1797,-7.1797,-7.1797,-7.1797,-7.1797,-7.1797,-7.1797,-7.1797,-7.1797,-7.1797,-7.1797,-7.1797,-7.1797,-7.1797,-7.1797,-7.1797,-7.1797,-7.1797,-7.1797,-7.1797,-7.1797,-7.1797,0.0,0.0,0.0,0.0,0.0,0.0,0.0,0.0,0.0,0.0,0.0,0.0,0.0,0.0,0.0,0.0,0.0,0.0,0.0,0.0,0.0,0.0,0.0,0.0,0.0,0.0,0.0,0.0,0.0,0.0,0.0,0.0,0.0,0.0,0.0,0.0,0.0,0.0,0.0,0.0,0.0,0.0,0.0,0.0,0.0,0.0,0.0,0.0,0.0,0.0,-5.5728,-5.6012,-5.6012,-5.6109,-5.6515,-5.7946,-5.8684,-5.9327,-6.0778,-6.1375,-6.1598,-6.1607,-6.1607,-6.1607,-6.1607,-6.1607,0.0,0.0,0.0,-6.1607,-6.1607,-6.1607,0.0,-6.3828,0.0,0.0,0.0,0.0,-6.6809,0.0,0.0,0.0,0.0,0.0,0.0,0.0,0.0,-7.1797,-7.1797,-7.1797,-7.1797,-7.1797,-7.1797,-7.1797,-7.1797,-7.1797,-7.1797,-7.1797,-7.1797,-7.1797,-7.1797,-7.1797,-7.1797,-7.1797,-7.1797,0.0,-7.1797,-7.1797,-7.1797,-7.1797,-7.1797,-7.1797,-7.1797,-7.1797,-7.1797,-7.1797,0.0,0.0,0.0,0.0,0.0,0.0,0.0,0.0,0.0,0.0,0.0,0.0,0.0,0.0,0.0,0.0,0.0,0.0,0.0,0.0,0.0,0.0,0.0,0.0,0.0,0.0,0.0,0.0,0.0,0.0,0.0,0.0,0.0,0.0,0.0,0.0,0.0,0.0,0.0,0.0,0.0,0.0,0.0,0.0,0.0,0.0,0.0,0.0,0.0,0.0,-5.5599,-5.5904,-5.5995,-5.6012,-5.6341,-5.8081,-5.868,-5.918,-6.0914,-6.1503,-6.1607,-6.1607,-6.1607,-6.1607,-6.1607,0.0,0.0,0.0,0.0,-6.1607,-6.1607,0.0,0.0,0.0,0.0,0.0,0.0,0.0,0.0,0.0,0.0,0.0,0.0,0.0,0.0,0.0,0.0,-7.1797,-7.1797,-7.1797,-7.1797,-7.1797,-7.1797,-7.1797,-7.1797,-7.1797,-7.1797,-7.1797,-7.1797,-7.1797,-7.1797,-7.1797,-7.1797,-7.1797,-7.1797,-7.1797,-7.1797,-7.1797,-7.1797,-7.1797,-7.1797,-7.1797,-7.1797,-7.1797,-7.1797,-7.1797,0.0,0.0,0.0,0.0,0.0,0.0,0.0,0.0,-4.2765,-4.4069,-4.5548,-4.7252,-4.9181,-4.9646,0.0,0.0,0.0,0.0,0.0,0.0,0.0,0.0,0.0,0.0,0.0,0.0,0.0,0.0,0.0,0.0,0.0,0.0,0.0,0.0,0.0,0.0,0.0,0.0,0.0,0.0,0.0,0.0,0.0,0.0,0.0,0.0,0.0,0.0,0.0,0.0,-5.5413,-5.5705,-5.5885,-5.5977,-5.6321,-5.7849,-5.8545,-5.9141,-6.0701,-6.1367,-6.1607,-6.1607,-6.1607,-6.1607,-6.1607,-6.1607,0.0,0.0,-6.1607,-6.1607,-6.1607,0.0,0.0,0.0,0.0,0.0,0.0,0.0,0.0,0.0,0.0,0.0,0.0,0.0,0.0,0.0,0.0,-7.1797,-7.1797,-7.1797,-7.1797,-7.1797,-7.1797,-7.1797,-7.1797,-7.1797,-7.1797,-7.1797,-7.1797,-7.1797,-7.1797,-7.1797,-7.1797,-7.1797,-7.1797,-7.1797,-7.1797,-7.1797,-7.1797,-7.1797,-7.1797,-7.1797,-7.1797,-7.1797,-7.1797,-7.1797,0.0,0.0,0.0,0.0,0.0,0.0,0.0,0.0,-4.1423,-4.3739,-4.511,-4.6515,-4.8168,-4.9163,0.0,0.0,0.0,0.0,0.0,0.0,0.0,0.0,0.0,0.0,0.0,0.0,0.0,0.0,0.0,0.0,0.0,0.0,0.0,0.0,0.0,0.0,0.0,0.0,0.0,0.0,0.0,0.0,0.0,0.0,0.0,0.0,0.0,0.0,0.0,0.0,0.0,-5.5314,-5.5705,-5.5904,-5.6186,-5.7153,0.0,0.0,-5.9963,-6.09,-6.1607,-6.1607,-6.1607,-6.1607,-6.1607,0.0,0.0,-6.1607,-6.1607,-6.1607,-6.1607,-6.225,0.0,0.0,0.0,0.0,0.0,0.0,0.0,0.0,0.0,0.0,0.0,0.0,0.0,0.0,0.0,-7.1797,-7.1797,-7.1797,-7.1797,-7.1797,-7.1797,-7.1797,-7.1797,-7.1797,-7.1797,-7.1797,-7.1797,-7.1797,-7.1797,-7.1797,-7.1797,-7.1797,-7.1797,-7.1797,0.0,-7.1797,-7.1797,-7.1797,-7.1797,-7.1797,-7.1797,-7.1797,-7.1797,-7.1797,0.0,0.0,0.0,0.0,0.0,0.0,0.0,0.0,-4.0764,-4.1818,-4.366,-4.5396,-4.6713,-4.8098,0.0,0.0,0.0,0.0,0.0,0.0,0.0,0.0,0.0,0.0,0.0,0.0,0.0,0.0,0.0,0.0,0.0,0.0,0.0,0.0,0.0,-5.4901,0.0,0.0,0.0,0.0,0.0,0.0,0.0,0.0,0.0,0.0,0.0,0.0,0.0,0.0,0.0,0.0,-5.5389,-5.5554,0.0,0.0,-5.7598,-5.8183,-5.975,-6.0475,-6.0945,-6.1471,-6.1607,-6.1607,-6.1607,0.0,0.0,-6.1607,-6.1607,-6.1607,-6.1607,-6.2309,-6.3166,0.0,0.0,0.0,0.0,0.0,0.0,0.0,0.0,0.0,0.0,0.0,0.0,0.0,0.0,-7.1797,-7.1797,-7.1797,-7.1797,-7.1797,-7.1797,-7.1797,-7.1797,-7.1797,-7.1797,-7.1797,-7.1797,-7.1797,-7.1797,-7.1797,-7.1797,-7.1797,-7.1797,-7.1797,0.0,-7.1797,-7.1797,-7.1797,-7.1797,-7.1797,-7.1797,-7.1797,-7.1797,-7.1797,0.0,0.0,0.0,0.0,0.0,0.0,-3.9101,-3.9621,-4.0161,-4.0486,-4.2548,-4.4439,-4.5781,-4.7401,-4.8787,-4.9803,0.0,0.0,0.0,0.0,0.0,0.0,0.0,0.0,0.0,0.0,0.0,0.0,0.0,0.0,0.0,0.0,-5.4901,-5.4901,0.0,0.0,0.0,0.0,0.0,0.0,0.0,0.0,0.0,0.0,0.0,0.0,0.0,0.0,0.0,0.0,0.0,0.0,0.0,0.0,0.0,0.0,-5.705,-5.7579,-5.9322,-6.0038,-6.0516,-6.1373,-6.1607,-6.1607,0.0,0.0,0.0,-6.1607,-6.1607,-6.1607,-6.1607,-6.2503,-6.3439,0.0,0.0,0.0,0.0,0.0,0.0,0.0,0.0,0.0,0.0,0.0,0.0,0.0,0.0,-7.1797,-7.1797,-7.1797,-7.1797,-7.1797,-7.1797,-7.1797,-7.1797,-7.1797,-7.1797,-7.1797,-7.1797,-7.1797,-7.1797,-7.1797,-7.1797,-7.1797,-7.1797,-7.1797,0.0,-7.1797,-7.1797,-7.1797,-7.1797,-7.1797,-7.1797,-7.1797,-7.1797,-7.1797,0.0,0.0,0.0,0.0,0.0,0.0,0.0,0.0,-3.9417,-4.029,-4.1987,-4.3802,-4.5613,-4.7372,-4.8815,-4.9803,0.0,0.0,0.0,0.0,0.0,0.0,0.0,0.0,0.0,0.0,0.0,0.0,0.0,0.0,0.0,0.0,0.0,-5.4901,0.0,0.0,0.0,0.0,0.0,0.0,0.0,0.0,0.0,0.0,0.0,0.0,0.0,0.0,0.0,0.0,0.0,0.0,0.0,0.0,0.0,0.0,-5.6463,-5.7447,-5.8517,-5.9538,-6.0516,-6.1373,-6.1607,-6.1607,0.0,0.0,0.0,-6.1607,-6.1607,-6.1607,-6.1607,-6.2952,-6.4082,-6.4101,0.0,0.0,0.0,0.0,0.0,0.0,0.0,0.0,0.0,0.0,0.0,0.0,-7.1797,0.0,-7.1797,-7.1797,-7.1797,-7.1797,-7.1797,-7.1797,-7.1797,-7.1797,-7.1797,-7.1797,-7.1797,-7.1797,-7.1797,-7.1797,-7.1797,-7.1797,-7.1797,-7.1797,0.0,-7.1797,-7.1797,-7.1797,-7.1797,-7.1797,-7.1797,-7.1797,-7.1797,-7.1797,0.0,0.0,0.0,0.0,0.0,0.0,0.0,0.0,-3.9222,-3.9591,-4.068,-4.2277,-4.4665,-4.6035,-4.755,-4.9608,0.0,0.0,0.0,0.0,0.0,0.0,0.0,0.0,0.0,0.0,0.0,0.0,0.0,0.0,0.0,0.0,0.0,0.0,-5.4901,0.0,0.0,0.0,0.0,0.0,0.0,0.0,0.0,0.0,0.0,0.0,0.0,0.0,0.0,0.0,0.0,0.0,0.0,0.0,0.0,0.0,0.0,0.0,-5.747,-5.8573,-5.962,-6.0497,-6.1159,-6.1607,-6.1607,0.0,0.0,-6.1607,-6.1607,-6.1607,-6.1607,-6.2971,-6.4101,-6.4101,-6.5562,0.0,0.0,0.0,0.0,0.0,0.0,0.0,0.0,0.0,0.0,0.0,-7.1797,-7.1797,-7.1797,-7.1797,-7.1797,-7.1797,-7.1797,-7.1797,-7.1797,-7.1797,-7.1797,-7.1797,-7.1797,-7.1797,-7.1797,-7.1797,-7.1797,-7.1797,-7.1797,-7.1797,-7.1797,-7.1797,-7.1797,-7.1797,-7.1797,-7.1797,-7.1797,-7.1797,-7.1797,-7.1797,0.0,0.0,0.0,0.0,0.0,0.0,0.0,0.0,-3.9129,-3.9219,-3.9991,-4.1521,-4.4149,-4.5331,-4.6948,-4.9485,0.0,0.0,0.0,0.0,0.0,0.0,0.0,0.0,0.0,0.0,0.0,0.0,0.0,0.0,0.0,0.0,0.0,0.0,0.0,0.0,0.0,0.0,0.0,0.0,0.0,0.0,-5.4901,0.0,0.0,0.0,0.0,0.0,0.0,0.0,0.0,0.0,0.0,0.0,0.0,0.0,-5.5519,0.0,0.0,-5.8142,-5.9192,-6.0088,-6.0964,0.0,0.0,0.0,0.0,0.0,-6.1607,-6.1607,-6.1607,-6.2971,-6.4101,-6.4101,-6.5562,0.0,0.0,0.0,0.0,0.0,0.0,0.0,0.0,0.0,0.0,0.0,-7.1797,-7.1797,-7.1797,-7.1797,-7.1797,-7.1797,-7.1797,-7.1797,-7.1797,-7.1797,-7.1797,-7.1797,-7.1797,-7.1797,-7.1797,-7.1797,-7.1797,-7.1797,-7.1797,-7.1797,0.0,-7.1797,-7.1786,-7.1763,-7.1763,-7.1751,-7.1725,-7.1725,-7.1725,-7.1693,0.0,0.0,0.0,0.0,0.0,0.0,0.0,0.0,0.0,0.0,0.0,-4.1314,-4.3957,-4.5105,0.0,0.0,0.0,0.0,0.0,0.0,0.0,0.0,0.0,0.0,0.0,0.0,0.0,0.0,-5.077,-5.1623,-5.2419,0.0,0.0,0.0,0.0,0.0,0.0,0.0,0.0,0.0,0.0,0.0,0.0,0.0,0.0,0.0,0.0,0.0,0.0,0.0,0.0,0.0,0.0,0.0,0.0,0.0,0.0,0.0,0.0,0.0,0.0,0.0,0.0,0.0,0.0,0.0,0.0,0.0,0.0,0.0,0.0,0.0,-6.4121,-6.4179,0.0,0.0,0.0,0.0,0.0,0.0,0.0,0.0,0.0,0.0,0.0,-7.1797,-7.1797,-7.1797,-7.1797,-7.1797,-7.1797,-7.1797,-7.1797,-7.1797,-7.1797,-7.1797,-7.1797,-7.1797,-7.1797,-7.1797,-7.1797,-7.1797,-7.1797,0.0,-7.1797,-7.1797,-7.1797,-7.1797,-7.1751,-7.1685,-7.1685,-7.1641,-7.1598,-7.1598,-7.1598,-7.1562,0.0,0.0,0.0,0.0,0.0,0.0,0.0,0.0,0.0,0.0,0.0,0.0,0.0,0.0,0.0,0.0,0.0,0.0,0.0,0.0,0.0,0.0,0.0,0.0,0.0,0.0,0.0,-4.9898,-5.077,-5.1623,-5.2419,-5.329,0.0,0.0,0.0,0.0,0.0,0.0,0.0,0.0,0.0,0.0,0.0,0.0,0.0,0.0,-5.4901,-5.4901,0.0,0.0,0.0,0.0,0.0,0.0,0.0,0.0,-5.5577,-5.5866,-5.6379,0.0,-5.8976,-5.9241,0.0,0.0,0.0,0.0,0.0,0.0,0.0,0.0,0.0,0.0,0.0,0.0,0.0,0.0,0.0,0.0,0.0,0.0,0.0,0.0,0.0,0.0,0.0,-7.1797,-7.1797,-7.1797,-7.1797,-7.1797,-7.1797,-7.1797,-7.1797,-7.1797,-7.1797,-7.1797,-7.1797,-7.1797,-7.1797,-7.1797,-7.1797,-7.1797,-7.1797,-7.1797,-7.1797,-7.1775,-7.1725,-7.1725,-7.1685,-7.163,-7.163,-7.1614,-7.1598,-7.1598,-7.1598,-7.1545,0.0,0.0,0.0,0.0,0.0,0.0,0.0,0.0,0.0,0.0,0.0,0.0,0.0,0.0,0.0,0.0,0.0,0.0,0.0,0.0,0.0,0.0,0.0,0.0,0.0,0.0,0.0,0.0,0.0,-5.1225,0.0,0.0,0.0,0.0,0.0,0.0,0.0,0.0,0.0,0.0,-5.4901,0.0,0.0,0.0,0.0,0.0,-5.4901,-5.4901,0.0,-5.4901,-5.4901,-5.4901,0.0,0.0,0.0,0.0,-5.5573,-5.5728,-5.6067,-5.7489,-5.8885,-5.8978,-6.0302,-6.1607,0.0,0.0,0.0,0.0,0.0,0.0,0.0,0.0,0.0,0.0,0.0,0.0,0.0,0.0,0.0,0.0,0.0,0.0,0.0,0.0,-7.1797,-7.1797,-7.1797,-7.1797,-7.1797,-7.1797,-7.1797,-7.1797,-7.1797,-7.1797,-7.1797,-7.1797,-7.1797,-7.1797,-7.1775,-7.1751,-7.1751,-7.1725,-7.1712,-7.1712,-7.1712,-7.1685,-7.1641,-7.1641,-7.1614,-7.1549,-7.1549,-7.1531,-7.1436,-7.1377,-7.1317,-7.1255,0.0,0.0,0.0,0.0,0.0,0.0,0.0,0.0,0.0,0.0,0.0,0.0,0.0,0.0,0.0,0.0,0.0,0.0,0.0,0.0,0.0,0.0,0.0,0.0,0.0,0.0,0.0,0.0,0.0,0.0,0.0,0.0,0.0,0.0,0.0,0.0,0.0,0.0,0.0,0.0,-5.4901,0.0,0.0,0.0,0.0,0.0,0.0,0.0,0.0,-5.4901,-5.4901,-5.4901,-5.4931,0.0,0.0,0.0,0.0,0.0,-5.6142,-5.7485,-5.8804,-5.8939,-6.0302,-6.1607,0.0,0.0,0.0,0.0,0.0,0.0,0.0,0.0,0.0,0.0,0.0,0.0,0.0,0.0,0.0,0.0,0.0,0.0,0.0,-7.1797,-7.1797,-7.1786,-7.1786,-7.1786,-7.1775,-7.1775,-7.1775,-7.1775,-7.1775,-7.1775,-7.1775,-7.1775,-7.1775,-7.1775,-7.1712,-7.1685,-7.1685,-7.163,-7.1598,-7.1598,-7.1598,0.0,-7.1581,-7.1581,-7.1549,-7.1475,-7.1435,-7.1354,-7.1224,-7.1011,-7.0933,-7.0879,0.0,0.0,0.0,0.0,0.0,0.0,0.0,0.0,0.0,0.0,0.0,0.0,0.0,0.0,0.0,0.0,0.0,0.0,0.0,0.0,0.0,0.0,0.0,0.0,0.0,0.0,0.0,0.0,0.0,0.0,-5.24,-5.24,-5.329,0.0,0.0,0.0,0.0,-5.4901,-5.4901,-5.4901,-5.4901,0.0,0.0,0.0,0.0,0.0,0.0,0.0,0.0,-5.4901,-5.4901,-5.4931,-5.5094,0.0,0.0,0.0,0.0,0.0,-5.6766,-5.7776,-5.8614,-5.8846,-6.0273,-6.1607,0.0,0.0,0.0,0.0,0.0,0.0,0.0,0.0,0.0,0.0,0.0,0.0,0.0,0.0,0.0,0.0,0.0,0.0,0.0,-7.1797,-7.1775,-7.1712,-7.1712,-7.1685,-7.1626,-7.1645,-7.1645,-7.1645,-7.1645,-7.1645,-7.1645,-7.1685,-7.1685,-7.1645,-7.163,-7.1614,-7.1614,-7.1614,-7.1598,-7.1598,0.0,-7.1566,-7.1513,-7.1513,-7.1436,-7.1313,-7.1154,-7.1056,-7.1011,-7.0757,-7.0652,-7.0622,0.0,0.0,0.0,0.0,0.0,0.0,0.0,0.0,0.0,0.0,0.0,0.0,0.0,0.0,0.0,0.0,0.0,0.0,0.0,0.0,0.0,0.0,0.0,0.0,0.0,0.0,0.0,0.0,0.0,-5.0751,-5.2419,-5.3328,-5.4162,-5.4901,0.0,0.0,0.0,-5.4901,-5.4901,-5.4901,0.0,0.0,0.0,0.0,0.0,0.0,0.0,0.0,0.0,0.0,-5.4901,-5.4931,-5.5,0.0,0.0,0.0,0.0,0.0,-5.6772,-5.7698,-5.854,-5.9341,-6.0572,-6.1607,0.0,0.0,0.0,0.0,0.0,0.0,0.0,0.0,0.0,0.0,0.0,0.0,0.0,0.0,0.0,0.0,0.0,0.0,-7.1712,-7.1712,-7.1671,-7.1661,-7.1661,-7.1626,-7.1598,-7.1598,-7.1598,-7.1598,-7.1598,-7.1581,-7.1549,-7.1584,-7.1598,-7.1598,-7.1566,-7.1549,-7.1549,-7.1474,-7.1436,-7.1417,0.0,-7.125,-7.1224,-7.1067,-7.0973,-7.0921,-7.0813,-7.0785,-7.0757,-7.047,-7.0329,-7.0213,0.0,0.0,0.0,0.0,0.0,0.0,0.0,0.0,0.0,0.0,0.0,0.0,0.0,0.0,0.0,0.0,0.0,0.0,0.0,0.0,0.0,0.0,0.0,0.0,0.0,0.0,0.0,-4.9898,-4.9898,-5.0751,-5.2456,-5.4124,-5.4901,0.0,0.0,0.0,0.0,-5.4901,-5.4901,-5.4901,0.0,0.0,0.0,0.0,0.0,0.0,0.0,0.0,0.0,0.0,0.0,0.0,0.0,0.0,0.0,-5.5203,-5.5336,-5.5747,-5.6956,-5.7871,-5.88,-6.0061,0.0,-6.1607,0.0,0.0,0.0,0.0,0.0,0.0,0.0,0.0,0.0,0.0,0.0,0.0,0.0,0.0,0.0,0.0,-7.0797,-7.1671,-7.1671,-7.163,-7.1598,-7.1584,-7.1584,-7.1564,-7.1529,-7.1529,-7.1529,-7.1529,-7.1529,-7.1474,-7.1375,-7.1375,-7.1416,-7.1529,-7.1436,-7.1375,-7.1375,-7.1205,-7.1159,-7.1135,-7.0966,-7.0906,-7.0906,-7.07,-7.0593,-7.0593,-7.0532,-7.047,-7.0426,-7.0194,-7.002,-6.9891,0.0,0.0,0.0,0.0,0.0,0.0,0.0,0.0,0.0,0.0,0.0,0.0,0.0,0.0,0.0,0.0,0.0,0.0,0.0,0.0,0.0,0.0,0.0,0.0,0.0,-4.9898,-4.9898,-4.9898,-4.9898,-5.0751,-5.2456,-5.4124,-5.4901,-5.4901,0.0,0.0,0.0,-5.4901,-5.4901,-5.4901,-5.4901,0.0,0.0,0.0,0.0,0.0,0.0,0.0,0.0,0.0,0.0,0.0,0.0,0.0,-5.496,-5.5149,-5.5782,-5.6652,-5.779,-5.8697,-5.9605,-6.0899,0.0,0.0,0.0,0.0,0.0,0.0,0.0,0.0,0.0,0.0,0.0,0.0,0.0,0.0,0.0,0.0,0.0,-7.022,-7.1077,-7.1614,-7.1614,-7.1598,-7.1564,-7.1513,-7.1494,-7.1436,-7.1334,-7.1313,-7.1313,-7.1313,-7.1313,-7.1224,-7.103,-7.103,-7.113,-7.1313,-7.113,-7.103,-7.103,-7.0757,-7.0652,-7.0652,-7.0642,-7.0622,-7.0622,-7.0593,-7.0593,-7.0563,-7.0342,-7.0109,-6.9948,-6.9929,-6.9929,-6.9891,0.0,0.0,0.0,0.0,0.0,0.0,0.0,0.0,0.0,0.0,0.0,0.0,0.0,0.0,0.0,0.0,0.0,0.0,0.0,0.0,0.0,0.0,0.0,-4.9898,-4.9898,-4.9898,-4.9898,-4.9898,-5.094,-5.2059,-5.3233,-5.4371,0.0,0.0,0.0,0.0,0.0,-5.4901,-5.4901,-5.4901,-5.4901,-5.4901,0.0,0.0,0.0,0.0,0.0,0.0,0.0,0.0,-5.4971,0.0,0.0,0.0,-5.518,-5.5674,-5.6073,-5.6673,-5.8311,-5.9077,-5.9699,-6.0932,0.0,0.0,0.0,0.0,0.0,0.0,0.0,0.0,0.0,0.0,0.0,0.0,0.0,0.0,0.0,0.0,-6.9371,-7.0226,-7.104,-7.1531,-7.1531,-7.1455,-7.1396,-7.1375,-7.1375,-7.1354,-7.1291,-7.1291,-7.1247,-7.113,-7.113,-7.1011,-7.0757,-7.0757,-7.0785,-7.0848,-7.0785,-7.0757,-7.0757,-7.0671,-7.0593,-7.0593,-7.0439,-7.0342,-7.0342,-7.0213,-7.0144,-7.0144,-7.0057,-6.9985,-6.9891,-6.9891,-6.9891,-6.9891,0.0,0.0,0.0,0.0,0.0,0.0,0.0,0.0,0.0,0.0,0.0,0.0,0.0,0.0,0.0,0.0,0.0,0.0,0.0,0.0,0.0,0.0,0.0,-4.9871,-4.9898,-4.9898,-4.9898,-4.9898,-5.1585,-5.2854,-5.3726,0.0,0.0,0.0,0.0,0.0,0.0,0.0,-5.4901,-5.4901,-5.4901,-5.4901,0.0,0.0,0.0,0.0,0.0,0.0,0.0,0.0,0.0,0.0,0.0,0.0,0.0,0.0,-5.6481,-5.7111,-5.875,-5.9489,-6.0044,0.0,0.0,0.0,0.0,0.0,0.0,0.0,0.0,0.0,0.0,0.0,0.0,0.0,0.0,0.0,0.0,0.0,-6.9295,-7.0149,-7.0893,-7.1354,-7.1354,-7.1182,-7.1091,-7.1091,-7.1091,-7.1091,-7.1091,-7.1091,-7.1017,-7.0879,-7.086,-7.0729,-7.047,-7.047,-7.0439,-7.0394,-7.0394,-7.0407,-7.047,-7.0426,-7.0394,-7.0362,-7.0194,-7.0109,-7.0109,-6.9948,-6.9891,-6.9891,-6.9891,-6.9891,-6.9891,-6.9891,-6.9891,-6.9891,0.0,0.0,0.0,0.0,0.0,0.0,0.0,0.0,0.0,0.0,0.0,0.0,0.0,0.0,0.0,0.0,0.0,0.0,0.0,0.0,0.0,0.0,0.0,-4.9759,-4.9898,-4.9898,-4.9917,-4.9917,-5.1585,-5.2854,-5.3726,-5.4541,0.0,0.0,0.0,0.0,0.0,0.0,0.0,-5.4901,-5.4901,-5.4901,-5.4901,0.0,0.0,0.0,0.0,0.0,0.0,0.0,0.0,0.0,0.0,0.0,0.0,0.0,-5.7052,-5.8199,-5.9142,-6.0096,0.0,0.0,0.0,0.0,0.0,0.0,0.0,0.0,0.0,0.0,0.0,0.0,0.0,0.0,0.0,0.0,0.0,0.0,-6.9226,-7.0079,-7.066,-7.0985,-7.0985,-7.0757,-7.0593,-7.0593,-7.0593,-7.0593,-7.0593,-7.0593,-7.0593,-7.0593,-7.0593,-7.047,-7.0209,-7.0209,-7.0109,-6.9891,-6.9891,-6.9984,-7.0175,-7.0003,-6.9891,-6.9891,-6.9891,-6.9891,-6.9891,-6.9891,-6.9891,-6.9891,-6.9891,-6.9891,-6.9891,-6.9891,-6.9891,-6.9891,0.0,0.0,0.0,0.0,0.0,0.0,0.0,0.0,0.0,0.0,0.0,0.0,0.0,0.0,0.0,0.0,0.0,0.0,0.0,0.0,0.0,0.0,0.0,0.0,0.0,0.0,-5.1092,-5.1661,-5.2172,-5.3139,0.0,0.0,0.0,-5.4901,0.0,0.0,0.0,0.0,0.0,-5.4901,-5.5038,-5.5028,-5.4931,0.0,0.0,0.0,0.0,0.0,0.0,0.0,0.0,0.0,0.0,0.0,0.0,-5.6668,-5.7317,-5.7949,-5.9611,0.0,0.0,0.0,0.0,0.0,0.0,0.0,0.0,0.0,0.0,0.0,0.0,0.0,0.0,-6.6146,-6.6225,-6.6535,-6.7263,-6.7567,-6.7961,-6.8649,-6.8871,-6.9193,-6.9826,-6.9808,-6.9979,-7.0554,-7.0593,-7.0593,-7.0593,-7.0593,-7.0501,-7.0323,-7.031,-7.0228,-7.0003,-7.0003,-6.9948,-6.9891,-6.9891,-6.991,-7.0003,-6.9929,-6.9891,-6.9891,-6.9891,-6.9891,-6.9891,-6.9891,-6.9891,-6.9891,-6.9891,-6.9891,-6.9891,-6.9891,-6.9891,-6.9891,0.0,0.0,0.0,0.0,0.0,0.0,0.0,0.0,0.0,0.0,0.0,0.0,0.0,0.0,0.0,0.0,0.0,0.0,0.0,0.0,0.0,0.0,0.0,0.0,0.0,-5.0751,-5.1604,0.0,0.0,0.0,0.0,0.0,0.0,-5.4901,0.0,-5.4901,0.0,0.0,0.0,-5.5028,-5.5066,-5.5057,-5.5028,0.0,0.0,0.0,0.0,0.0,0.0,0.0,0.0,0.0,0.0,0.0,0.0,-5.6922,-5.7446,-5.7938,-5.977,0.0,0.0,0.0,0.0,0.0,0.0,0.0,0.0,0.0,0.0,0.0,0.0,0.0,0.0,-6.5971,-6.5971,-6.6097,-6.6513,-6.684,-6.7191,-6.7534,-6.7812,-6.8154,-6.8671,-6.8655,-6.882,-6.9298,-6.9336,-6.9336,-6.9336,-6.9336,-6.9237,-6.9084,-6.9389,-6.9507,-6.938,-6.9721,-6.9891,-6.9891,-6.9891,-6.9891,-6.9891,-6.9891,-6.9891,-6.9891,-6.9891,-6.9891,-6.9891,-6.9891,-6.9891,-6.9891,-6.9891,-6.9891,-6.9891,-6.9891,-6.9891,-6.9891,0.0,0.0,0.0,0.0,0.0,0.0,0.0,0.0,0.0,0.0,0.0,0.0,0.0,0.0,0.0,0.0,0.0,0.0,0.0,0.0,0.0,0.0,0.0,0.0,0.0,0.0,0.0,0.0,0.0,0.0,0.0,0.0,-5.4901,-5.4901,0.0,-5.4901,0.0,0.0,0.0,0.0,-5.5,-5.5057,-5.5183,-5.5028,0.0,0.0,0.0,0.0,0.0,0.0,0.0,0.0,0.0,0.0,0.0,-5.6941,-5.7547,-5.8044,0.0,0.0,0.0,0.0,0.0,0.0,0.0,0.0,0.0,0.0,0.0,0.0,0.0,0.0,0.0,-6.5616,-6.5589,-6.5589,-6.5561,-6.6174,-6.6653,-6.6624,-6.7114,-6.7469,-6.7545,-6.7382,-6.7314,-6.739,-6.739,-6.739,-6.739,-6.739,-6.739,-6.739,-6.811,-6.8489,-6.8489,-6.9342,-6.9778,-6.9778,-6.9854,-6.9891,-6.9891,-6.9891,-6.9891,-6.9891,-6.9891,-6.9891,-6.9891,-6.9891,-6.9891,-6.9891,-6.9891,-6.9891,-6.9891,-6.9891,-6.9891,-6.9891,0.0,0.0,0.0,0.0,0.0,0.0,0.0,0.0,0.0,0.0,0.0,0.0,0.0,0.0,0.0,0.0,0.0,0.0,0.0,0.0,0.0,0.0,0.0,0.0,0.0,0.0,0.0,0.0,0.0,0.0,0.0,0.0,0.0,-5.4901,0.0,-5.4901,0.0,0.0,0.0,0.0,0.0,-5.5176,-5.521,-5.5333,-5.5408,0.0,0.0,0.0,0.0,0.0,0.0,0.0,0.0,-5.5028,-5.5253,-5.7101,-5.7547,0.0,0.0,0.0,0.0,0.0,0.0,0.0,0.0,0.0,0.0,0.0,0.0,0.0,0.0,0.0,0.0,-6.5589,-6.5589,-6.5532,-6.5307,-6.5409,-6.548,-6.5323,-6.5426,-6.5771,-6.6398,-6.6402,-6.667,-6.7352,-6.739,-6.739,-6.739,-6.739,-6.739,-6.739,-6.756,-6.7655,-6.7655,-6.847,-6.8868,-6.8887,-6.9569,-6.9891,-6.9891,-6.9891,-6.9891,-6.9891,-6.9891,-6.9891,-6.9891,-6.9891,-6.9891,-6.9891,-6.9891,-6.9891,-6.9891,-6.9891,-6.9891,-6.9891,0.0,0.0,0.0,0.0,0.0,0.0,0.0,0.0,0.0,0.0,0.0,0.0,0.0,0.0,0.0,0.0,0.0,0.0,0.0,0.0,0.0,0.0,0.0,0.0,0.0,0.0,0.0,0.0,0.0,0.0,0.0,0.0,0.0,-5.4901,0.0,-5.4901,0.0,0.0,0.0,0.0,0.0,0.0,-5.5485,-5.5504,-5.5504,-5.5504,-5.5618,0.0,0.0,0.0,0.0,0.0,0.0,0.0,-5.5874,-5.7186,-5.778,-5.8337,0.0,0.0,0.0,0.0,0.0,0.0,0.0,0.0,0.0,0.0,0.0,0.0,0.0,0.0,0.0,-6.5397,-6.5326,-6.522,-6.509,-6.5057,-6.5042,-6.4888,-6.4907,-6.5059,-6.5495,-6.5533,-6.5722,-6.6177,-6.6196,-6.6196,-6.6196,-6.6196,-6.6196,-6.6196,-6.6575,-6.6783,-6.6783,-6.7617,-6.8034,-6.8034,-6.8868,-6.9493,-6.9891,-6.9891,-6.9891,-6.9891,-6.9891,-6.9891,-6.9891,-6.9891,-6.9891,-6.9891,-6.9891,-6.9891,-6.9891,-6.9891,-6.9891,-6.9891,0.0,0.0,0.0,0.0,0.0,0.0,0.0,0.0,0.0,0.0,0.0,0.0,0.0,0.0,0.0,0.0,0.0,0.0,0.0,0.0,0.0,0.0,0.0,0.0,0.0,0.0,0.0,0.0,0.0,0.0,0.0,0.0,0.0,-5.4901,0.0,0.0,0.0,0.0,0.0,0.0,0.0,0.0,0.0,-5.5527,-5.548,-5.5504,-5.5551,-5.5389,-5.521,-5.5432,0.0,0.0,0.0,0.0,-5.6511,-5.726,-5.8041,-5.8925,0.0,0.0,0.0,0.0,0.0,0.0,0.0,0.0,0.0,0.0,0.0,0.0,0.0,0.0,-6.5169,-6.5169,-6.5008,-6.4907,-6.4907,-6.4907,-6.4907,-6.4907,-6.4907,-6.4907,-6.4907,-6.4907,-6.4907,-6.4907,-6.4907,-6.4907,-6.4907,-6.4907,-6.4907,-6.4907,-6.5552,-6.5893,-6.5893,-6.6746,-6.7181,-6.7181,-6.7996,-6.883,-6.9683,-6.9683,-6.9759,-6.9891,-6.9891,-6.9891,-6.9891,-6.9891,-6.9891,-6.9891,-6.9891,-6.9891,-6.9891,-6.9891,-6.9891,-6.9891,0.0,0.0,0.0,0.0,0.0,0.0,0.0,0.0,0.0,0.0,0.0,0.0,0.0,0.0,0.0,0.0,0.0,0.0,-4.8909,0.0,0.0,-5.0485,-5.0959,0.0,0.0,0.0,0.0,0.0,0.0,0.0,0.0,0.0,0.0,-5.4901,0.0,0.0,0.0,0.0,0.0,0.0,0.0,0.0,0.0,-5.5236,-5.5358,-5.5527,-5.5703,-5.5527,-5.521,-5.5432,-5.5255,0.0,0.0,0.0,-5.6432,-5.7377,-5.8144,0.0,0.0,0.0,0.0,0.0,0.0,0.0,0.0,0.0,0.0,0.0,0.0,0.0,0.0,0.0,-6.4924,-6.4924,-6.4942,-6.4907,-6.4907,-6.4907,-6.4907,-6.4907,-6.4907,-6.4907,-6.4907,-6.4907,-6.4907,-6.4907,-6.4907,-6.4907,-6.4907,-6.4907,-6.4907,-6.4907,-6.5002,-6.5059,-6.5059,-6.5874,-6.6272,-6.6291,-6.7144,-6.7996,-6.8773,-6.8773,-6.919,-6.9891,-6.9891,-6.9891,-6.9891,-6.9891,-6.9891,-6.9891,-6.9891,-6.9891,-6.9891,-6.9891,-6.9891,-6.9891,0.0,0.0,0.0,0.0,0.0,0.0,0.0,0.0,0.0,0.0,0.0,0.0,0.0,0.0,0.0,-4.8909,-4.8909,-4.9113,-4.9596,-5.0366,-5.0973,-5.1367,-5.2149,-5.2949,0.0,0.0,0.0,0.0,0.0,0.0,0.0,-5.4901,-5.4901,0.0,0.0,0.0,0.0,0.0,0.0,0.0,0.0,0.0,0.0,0.0,-5.5339,-5.5339,-5.5437,-5.5281,-5.5066,-5.5262,-5.5515,-5.5751,-5.5843,0.0,0.0,0.0,-5.8805,0.0,0.0,0.0,0.0,0.0,0.0,0.0,0.0,0.0,0.0,0.0,0.0,0.0,0.0,0.0,-6.4907,-6.4907,-6.4907,-6.4907,-6.4907,-6.4907,-6.4907,-6.4907,-6.4907,-6.4907,-6.4907,-6.4907,-6.4907,-6.4907,-6.4907,-6.4907,-6.4907,-6.4907,-6.4907,-6.4907,-6.4907,-6.4907,-6.4907,-6.5248,-6.5646,-6.6101,-6.6499,-6.7106,-6.7939,-6.8394,-6.9077,-6.9891,-6.9891,-6.9891,-6.9891,-6.9891,-6.9891,-6.9891,-6.9891,-6.9891,-6.9891,-6.9891,-6.9891,-6.9891,0.0,0.0,0.0,0.0,0.0,0.0,0.0,0.0,0.0,0.0,0.0,0.0,0.0,0.0,0.0,0.0,-4.941,-4.9819,-5.045,-5.1342,-5.1921,-5.2193,-5.3119,-5.3754,-5.401,0.0,0.0,0.0,0.0,0.0,-5.4901,-5.4901,-5.4901,0.0,-5.4901,0.0,0.0,0.0,0.0,0.0,0.0,0.0,0.0,0.0,0.0,0.0,-5.5183,-5.5218,-5.5253,-5.5426,-5.6033,-5.6644,-5.6644,-5.7673,0.0,0.0,0.0,0.0,0.0,0.0,0.0,0.0,0.0,0.0,0.0,0.0,0.0,0.0,0.0,0.0,0.0,-6.4907,-6.4907,-6.4907,-6.4907,-6.4907,-6.4907,-6.4907,-6.4907,-6.4907,-6.4907,-6.4907,-6.4907,-6.4907,-6.4907,-6.4907,-6.4907,-6.4907,-6.4907,-6.4907,-6.4907,-6.4907,-6.4907,-6.4907,-6.4907,-6.4907,-6.5211,-6.5798,-6.5798,-6.6234,-6.7087,-6.7693,-6.8546,-6.9569,-6.9797,-6.9891,-6.9891,-6.9891,-6.9891,-6.9891,-6.9891,-6.9891,-6.9891,-6.9891,-6.9891,-6.9891,0.0,0.0,0.0,0.0,0.0,0.0,0.0,0.0,0.0,0.0,0.0,0.0,-4.8909,-4.9577,-5.0042,-5.0042,-5.0785,-5.1286,-5.1323,-5.1502,-5.2046,-5.3001,-5.3257,0.0,-5.4825,0.0,0.0,0.0,0.0,0.0,-5.4901,-5.4901,-5.4901,-5.4901,-5.4901,-5.4901,-5.4901,0.0,0.0,0.0,0.0,0.0,0.0,0.0,0.0,0.0,0.0,-5.5598,-5.6144,-5.6283,-5.6797,-5.7358,-5.7358,-5.7984,-5.8723,0.0,0.0,0.0,0.0,0.0,0.0,0.0,0.0,0.0,0.0,0.0,0.0,0.0,0.0,0.0,0.0,-6.4907,-6.4907,-6.4907,-6.4907,-6.4907,-6.4907,-6.4907,-6.4907,-6.4907,-6.4907,-6.4907,-6.4907,-6.4907,-6.4907,-6.4907,-6.4907,-6.4907,-6.4907,-6.4907,-6.4907,-6.4907,-6.4907,-6.4907,-6.4907,-6.4907,-6.4926,-6.4964,-6.4964,-6.54,-6.6177,-6.6215,-6.7125,-6.8716,-6.9531,-6.9891,-6.9891,-6.9891,-6.9891,-6.9891,-6.9891,-6.9891,-6.9891,-6.9891,-6.9891,-6.9891,0.0,0.0,0.0,0.0,0.0,0.0,0.0,0.0,0.0,0.0,0.0,0.0,0.0,-5.0766,-5.0933,-5.0933,-5.1695,-5.2178,-5.2178,-5.2933,-5.3553,-5.3921,-5.4201,-5.4538,-5.4901,-5.4901,0.0,0.0,0.0,-5.4901,-5.4901,-5.4901,-5.4901,-5.4901,-5.4901,-5.4901,-5.4901,-5.4901,0.0,0.0,0.0,0.0,0.0,0.0,0.0,0.0,0.0,0.0,-5.6998,-5.7021,-5.7559,-5.8218,-5.8218,-5.8786,-5.9468,-5.9468,-5.9658,-5.9885,-5.9885,0.0,0.0,0.0,0.0,0.0,0.0,0.0,0.0,0.0,0.0,0.0,0.0,-6.4907,-6.4907,-6.4907,-6.4907,-6.4907,-6.4907,-6.4907,-6.4907,-6.4907,-6.4907,-6.4907,-6.4907,-6.4907,-6.4907,-6.4907,-6.4907,-6.4907,-6.4907,-6.4907,-6.4907,-6.4907,-6.4907,-6.4907,-6.4907,-6.4907,-6.4907,-6.4907,-6.4907,-6.5059,-6.5362,-6.5874,-6.6727,-6.7883,-6.8716,-6.938,-6.9891,-6.9891,-6.9891,-6.9891,-6.9891,-6.9891,-6.9891,-6.9891,-6.9891,-6.9891,0.0,0.0,0.0,0.0,0.0,0.0,0.0,0.0,0.0,0.0,0.0,0.0,0.0,0.0,-5.2045,-5.236,-5.2882,-5.318,-5.318,-5.3952,-5.4424,-5.4472,-5.4698,-5.4822,-5.4901,-5.4636,0.0,0.0,0.0,0.0,0.0,-5.4901,-5.4901,-5.4901,-5.4901,-5.4901,0.0,0.0,0.0,-5.4901,0.0,0.0,-5.5337,0.0,0.0,0.0,0.0,0.0,-5.7839,-5.7839,-5.8388,-5.9089,-5.9089,-5.9468,-5.9885,-5.9885,-5.9885,-5.9885,-5.9885,0.0,0.0,0.0,0.0,0.0,0.0,0.0,0.0,0.0,0.0,0.0,0.0,-6.4907,-6.4907,-6.4907,-6.4907,-6.4907,-6.4907,-6.4907,-6.4907,-6.4907,-6.4907,-6.4907,-6.4907,-6.4907,-6.4907,-6.4907,-6.4907,0.0,-6.4907,-6.4907,-6.4907,-6.4907,-6.4907,-6.4907,-6.4907,-6.4907,-6.4907,-6.4907,-6.4907,-6.4907,-6.4926,-6.5457,-6.6158,-6.7011,-6.7845,-6.883,-6.9891,-6.9891,-6.9891,-6.9891,-6.9891,-6.9891,-6.9891,-6.9891,-6.9891,-6.9891,0.0,0.0,0.0,0.0,0.0,0.0,0.0,0.0,0.0,0.0,0.0,0.0,0.0,0.0,0.0,-5.43,-5.439,-5.439,-5.4409,-5.439,-5.4472,-5.4597,-5.4597,-5.4711,-5.4901,-5.4124,0.0,0.0,0.0,0.0,0.0,0.0,-5.4901,0.0,-5.4901,-5.492,-5.4939,0.0,-5.492,-5.4939,0.0,-5.547,-5.6228,0.0,0.0,0.0,-5.7441,-5.799,0.0,-5.8729,0.0,-5.9885,-5.9885,-5.9885,-5.9885,-5.9885,-5.9885,-5.9885,0.0,0.0,0.0,0.0,0.0,0.0,0.0,0.0,0.0,0.0,0.0,0.0,0.0,-6.4907,-6.4907,-6.4907,-6.4907,-6.4907,-6.4907,-6.4907,-6.4907,-6.4907,-6.4907,-6.4907,-6.4907,-6.4907,-6.4907,-6.4907,-6.4907,-6.4907,-6.4907,-6.4907,-6.4907,-6.4907,-6.4907,-6.4907,-6.4907,-6.4907,-6.4907,-6.4907,-6.4907,-6.4907,-6.4907,-6.4907,-6.5343,-6.6158,-6.7011,-6.8337,-6.9854,-6.9891,-6.9891,-6.9891,-6.9891,-6.9891,-6.9891,-6.9891,-6.9891,-6.9891,0.0,0.0,0.0,0.0,0.0,0.0,0.0,0.0,0.0,0.0,0.0,0.0,-5.3144,-5.3367,-5.3702,-5.4144,-5.4163,-5.4233,-5.439,-5.4505,-5.4565,-5.4597,-5.4742,-5.4822,-5.4901,-5.4693,0.0,0.0,0.0,0.0,0.0,0.0,0.0,0.0,-5.4901,-5.5242,-5.5792,-5.5166,0.0,0.0,-5.5849,-5.6323,0.0,0.0,0.0,0.0,0.0,-5.8862,-5.9563,0.0,-5.9715,-5.9885,-5.9885,-5.9885,-5.9885,-5.9885,-5.9885,-5.9885,-5.9885,0.0,0.0,0.0,0.0,0.0,0.0,0.0,0.0,0.0,0.0,0.0,0.0,0.0,-6.4907,-6.4907,-6.4907,-6.4907,-6.4907,-6.4907,-6.4907,-6.4907,-6.4907,-6.4907,-6.4907,-6.4907,-6.4907,0.0,-6.4907,-6.4907,-6.4907,-6.4907,-6.4907,-6.4907,-6.4907,-6.4907,-6.4907,-6.4907,-6.4907,-6.4907,-6.4907,-6.4907,-6.4907,-6.4907,-6.5343,-6.6158,-6.7011,-6.7996,-6.9001,-6.9626,-6.9891,-6.9891,-6.9891,-6.9891,-6.9891,-6.9891,-6.9891,-6.9891,0.0,0.0,0.0,0.0,0.0,0.0,0.0,0.0,0.0,0.0,0.0,0.0,0.0,-5.3907,-5.4055,-5.4284,-5.4318,-5.4386,-5.459,-5.4698,-5.4711,-5.4711,-5.4822,-5.4901,-5.4901,-5.4579,0.0,0.0,0.0,0.0,0.0,0.0,0.0,0.0,0.0,0.0,0.0,0.0,0.0,0.0,-5.6702,0.0,0.0,-5.7933,-5.8464,0.0,0.0,0.0,-5.9885,-5.9885,-5.9885,-5.9885,-5.9885,-5.9885,-5.9885,-5.9885,-5.9885,-5.9885,-5.9885,-6.0151,0.0,0.0,0.0,0.0,-6.4604,-6.4907,0.0,0.0,0.0,0.0,0.0,0.0,-6.4907,-6.4907,-6.4907,-6.4907,-6.4907,-6.4907,-6.4907,-6.4907,-6.4907,-6.4907,-6.4907,-6.4907,-6.4907,-6.4907,-6.4907,-6.4907,-6.4907,-6.4907,-6.4907,-6.4907,-6.4907,-6.4907,-6.4907,-6.4907,-6.4907,-6.4907,-6.4907,-6.4907,-6.4907,-6.4907,-6.5154,-6.5665,-6.6878,-6.7674,-6.8186,-6.9399,-6.9891,-6.9891,-6.9891,-6.9891,-6.9891,-6.9891,-6.9891,-6.9891,0.0,0.0,0.0,0.0,0.0,0.0,0.0,0.0,0.0,0.0,0.0,0.0,0.0,-5.4055,-5.4179,-5.4533,-5.4565,-5.468,-5.4852,-5.4901,-5.4901,-5.4901,-5.4901,-5.4901,-5.4901,-5.42,0.0,0.0,0.0,0.0,0.0,0.0,0.0,0.0,0.0,0.0,0.0,0.0,0.0,-5.7668,-5.7573,-5.8047,0.0,0.0,-5.9317,-6.0018,-6.0018,-6.0094,-6.017,-6.017,-6.0113,-6.0018,-6.0018,-6.0018,-6.0018,-5.9923,-5.9961,-6.0018,-6.0018,-6.0549,-6.1326,-6.2292,-6.3088,0.0,-6.4699,-6.4907,-6.4907,0.0,0.0,0.0,0.0,0.0,-6.4907,-6.4907,-6.4907,-6.4907,-6.4907,-6.4907,-6.4907,-6.4907,-6.4907,-6.4907,-6.4907,-6.4907,-6.4907,-6.4907,-6.4907,-6.4907,-6.4907,-6.4907,-6.4907,-6.4907,-6.4907,-6.4907,-6.4907,-6.4907,-6.4907,-6.4907,-6.4907,-6.4907,-6.4907,-6.4907,-6.4907,-6.5002,-6.6575,-6.7314,-6.7523,-6.9096,-6.9797,-6.9891,-6.9891,-6.9891,-6.9891,-6.9891,-6.9891,-6.9891,0.0,0.0,0.0,0.0,0.0,0.0,0.0,0.0,0.0,0.0,0.0,0.0,0.0,0.0,-5.3944,-5.4179,-5.4337,-5.4505,-5.4648,-5.4822,-5.4901,-5.4901,-5.4901,-5.4901,-5.4901,-5.475,0.0,0.0,0.0,0.0,0.0,0.0,0.0,0.0,0.0,0.0,0.0,0.0,0.0,-5.9355,-5.871,0.0,-5.9658,-5.9658,-6.017,-6.0871,-6.0871,-6.1326,-6.1913,-6.1913,-6.1458,-6.0871,-6.0871,-6.0871,-6.0738,-6.0075,-6.0359,-6.0871,-6.0871,-6.0966,-6.1458,-6.2993,-6.3486,0.0,-6.4699,-6.4907,-6.4907,0.0,0.0,0.0,0.0,0.0,-6.4907,-6.4907,-6.4907,-6.4907,-6.4907,-6.4907,-6.4907,-6.4907,-6.4907,-6.4907,-6.4907,-6.4907,-6.4907,-6.4907,-6.4907,-6.4907,-6.4907,-6.4907,-6.4907,-6.4907,-6.4907,-6.4907,-6.4907,-6.4907,-6.4907,-6.4907,-6.4907,-6.4907,-6.4907,-6.4907,-6.4907,-6.4945,-6.5931,-6.6746,-6.7485,-6.8451,-6.9266,-6.9891,-6.9891,-6.9891,-6.9891,-6.9891,-6.9891,-6.9891,0.0,0.0,0.0,0.0,0.0,0.0,0.0,0.0,0.0,0.0,0.0,0.0,0.0,0.0,0.0,-5.4091,-5.4198,-5.4303,-5.4505,-5.4571,-5.4667,-5.4742,-5.4742,-5.4791,-5.4901,-5.4901,-5.4901,0.0,0.0,0.0,0.0,0.0,0.0,0.0,0.0,0.0,0.0,0.0,-5.9525,-5.9847,-5.9449,0.0,-5.9923,-6.034,-6.0738,-6.1155,-6.1591,-6.2027,-6.2406,-6.2406,-6.2122,-6.1743,-6.1743,-6.1743,-6.1667,-6.1269,-6.1439,-6.1743,-6.1743,-6.2046,-6.2557,-6.3391,-6.3941,0.0,0.0,-6.4907,-6.4907,-6.4907,-6.4907,-6.4907,-6.4907,0.0,-6.4907,-6.4907,-6.4907,-6.4907,-6.4907,-6.4907,-6.4907,-6.4907,-6.4907,-6.4907,-6.4907,-6.4907,-6.4907,-6.4907,-6.4907,-6.4907,-6.4907,-6.4907,-6.4907,-6.4907,-6.4907,-6.4907,-6.4907,-6.4907,-6.4907,-6.4907,-6.4907,-6.4907,-6.4907,-6.4907,-6.4907,-6.4945,-6.576,-6.6594,-6.7466,-6.8262,-6.9114,-6.9891,-6.9891,-6.9891,-6.9891,-6.9891,-6.9891,-6.9891,-5.3813,0.0,0.0,0.0,0.0,0.0,0.0,0.0,0.0,0.0,0.0,0.0,0.0,0.0,0.0,-5.4091,-5.4091,-5.4198,-5.4409,-5.4424,-5.4505,-5.4629,-5.4661,-5.4742,-5.4901,-5.4901,-5.4977,-5.5148,0.0,0.0,0.0,0.0,0.0,0.0,0.0,0.0,0.0,0.0,0.0,-5.9904,0.0,-6.0132,-6.0189,-6.0852,-6.1288,-6.1705,-6.2576,-6.2899,-6.2899,-6.2899,-6.2785,-6.2633,-6.2633,-6.2633,-6.2614,-6.2463,-6.2519,-6.2633,-6.2633,-6.3126,-6.3657,-6.3827,-6.4396,-6.4907,0.0,0.0,0.0,0.0,0.0,0.0,0.0,0.0,0.0,0.0,0.0,0.0,0.0,-6.4794,0.0,-6.4907,-6.4907,-6.4907,-6.4907,-6.4907,-6.4907,-6.4907,-6.4907,-6.4907,-6.4907,-6.4907,-6.4907,-6.4907,-6.4907,-6.4907,-6.4907,-6.4907,-6.4907,-6.4907,-6.4907,-6.4907,-6.4907,-6.4907,-6.4907,-6.4945,-6.559,-6.6461,-6.7447,-6.8091,-6.8963,-6.9891,-6.9891,-6.9891,-6.9891,-6.9891,-6.9891,-6.9891,-5.3813,-5.3813,0.0,0.0,0.0,0.0,0.0,0.0,0.0,0.0,0.0,0.0,0.0,0.0,0.0,0.0,-5.4091,-5.4198,-5.4409,-5.4519,-5.468,-5.4871,-5.4871,-5.4871,-5.4901,-5.4901,-5.528,-5.6057,0.0,0.0,0.0,0.0,0.0,0.0,-5.8653,0.0,0.0,0.0,-5.9885,0.0,-6.0662,-6.0947,0.0,-6.106,-6.2027,-6.3429,-6.4301,-6.4623,-6.4623,0.0,-6.4111,-6.3467,-6.3467,-6.3467,-6.3334,-6.2614,-6.2917,-6.3467,-6.3467,-6.3543,-6.3789,-6.4566,-6.4832,-6.4907,-6.4907,0.0,-6.4907,-6.4907,0.0,0.0,0.0,0.0,0.0,0.0,0.0,0.0,-6.3865,-6.4415,-6.4907,-6.4907,-6.4907,-6.4907,-6.4907,-6.4907,-6.4907,-6.4907,-6.4907,-6.4907,-6.4907,-6.4907,-6.4907,-6.4907,-6.4907,-6.4907,-6.4907,-6.4907,-6.4907,-6.4907,-6.4907,-6.4907,-6.4907,-6.4907,-6.4907,-6.4907,-6.5002,-6.595,-6.7409,-6.7504,-6.847,-6.9891,-6.9891,-6.9891,-6.9891,-6.9891,-6.9891,-6.9891,-5.3813,-5.3813,0.0,0.0,0.0,0.0,0.0,0.0,0.0,0.0,0.0,0.0,0.0,0.0,0.0,0.0,-5.5359,-5.5473,-5.5639,-5.5728,-5.5883,-5.6166,-5.6166,-5.6248,-5.636,-5.6341,-5.6531,-5.6891,-5.6891,0.0,0.0,0.0,0.0,0.0,-5.9393,0.0,-5.9885,0.0,-6.017,0.0,0.0,0.0,0.0,-6.2557,-6.3296,-6.4415,-6.4775,-6.4907,-6.4907,-6.4907,-6.4661,-6.4358,-6.4358,-6.4358,-6.4301,-6.396,-6.4092,-6.4358,-6.4358,-6.4358,-6.4453,-6.4813,-6.4907,-6.4907,-6.4907,-6.4907,-6.4907,-6.4907,0.0,0.0,0.0,0.0,0.0,0.0,-6.4661,0.0,0.0,0.0,-6.4907,0.0,0.0,0.0,-6.4907,-6.4907,-6.4907,-6.4907,-6.4907,-6.4907,-6.4907,-6.4907,-6.4907,-6.4907,-6.4907,-6.4907,-6.4907,-6.4907,-6.4907,-6.4907,-6.4907,-6.4907,-6.4907,-6.4907,-6.4907,-6.4907,-6.4907,-6.5855,-6.739,-6.739,-6.8394,-6.9891,-6.9891,-6.9891,-6.9891,-6.9891,-6.9891,-6.9891,-5.3813,0.0,0.0,0.0,0.0,0.0,0.0,0.0,0.0,0.0,0.0,0.0,-5.5414,-5.5951,0.0,0.0,-5.6323,-5.6362,-5.6556,-5.6631,-5.6759,-5.7005,-5.714,-5.7205,-5.7321,-5.7352,-5.7516,-5.7763,0.0,0.0,0.0,0.0,0.0,0.0,0.0,-5.9885,-5.9904,0.0,-6.0568,-6.1136,-6.1591,-6.2652,-6.396,-6.396,-6.4358,-6.4907,-6.4907,-6.4907,-6.4907,-6.4907,-6.4907,-6.4907,-6.4907,-6.4907,-6.4907,-6.4907,-6.4907,-6.4907,-6.4907,-6.4907,-6.4907,-6.4907,-6.4907,-6.4907,-6.4907,-6.4907,-6.4907,-6.4907,-6.4907,0.0,0.0,0.0,-6.4832,0.0,0.0,-6.4832,0.0,-6.4756,0.0,0.0,0.0,0.0,0.0,-6.4907,-6.4907,-6.4907,-6.4907,-6.4907,-6.4907,-6.4907,-6.4907,-6.4907,-6.4907,-6.4907,-6.4907,-6.4907,-6.4907,-6.4907,-6.4907,-6.4907,-6.4907,-6.4907,-6.4907,-6.4907,-6.4907,-6.5855,-6.739,-6.739,-6.8394,-6.9891,-6.9891,-6.9891,-6.9891,-6.9891,-6.9891,-6.9891,-5.3813,-5.3813,0.0,0.0,0.0,0.0,0.0,0.0,0.0,0.0,0.0,0.0,0.0,0.0,0.0,-5.6481,-5.6383,-5.6344,-5.6462,-5.6704,-5.6812,-5.6795,-5.7173,-5.7289,-5.7088,-5.7289,-5.7801,-5.8653,0.0,0.0,0.0,0.0,0.0,0.0,0.0,-5.9885,-5.9942,-6.0719,-6.1079,-6.1231,-6.288,-6.4073,-6.4869,0.0,-6.4888,-6.4907,-6.4907,-6.4907,-6.4907,-6.4907,-6.4907,-6.4907,-6.4907,-6.4907,-6.4907,-6.4907,-6.4907,-6.4907,-6.4907,-6.4907,-6.4907,-6.4907,-6.4907,-6.4907,-6.4907,-6.4907,-6.4907,-6.4907,-6.4907,-6.4907,-6.4907,-6.4907,-6.4623,-6.3789,0.0,0.0,0.0,0.0,0.0,0.0,0.0,0.0,0.0,-6.4907,-6.4907,-6.4907,-6.4907,-6.4907,-6.4907,-6.4907,-6.4907,-6.4907,-6.4907,-6.4907,-6.4907,-6.4907,-6.4907,-6.4907,-6.4907,-6.4907,-6.4907,-6.4907,-6.4907,-6.4907,-6.4907,-6.5855,-6.739,-6.739,-6.8394,-6.9891,-6.9891,-6.9891,-6.9891,-6.9891,-6.9891,-6.9891,0.0,0.0,0.0,0.0,0.0,0.0,0.0,-5.5317,0.0,0.0,-5.658,0.0,0.0,-5.8386,-5.8944,-5.9543,-5.9576,-5.9357,-5.8984,-5.9568,-5.9701,-5.9253,-5.9381,-5.9489,-5.9524,-5.9065,-5.9053,-5.9487,-5.9487,0.0,0.0,0.0,0.0,0.0,0.0,-6.0189,0.0,0.0,0.0,0.0,0.0,-6.4642,-6.4907,0.0,-6.4907,-6.4907,-6.4907,-6.4907,-6.4907,-6.4907,-6.4907,-6.4907,-6.4907,-6.4907,-6.4907,-6.4907,-6.4907,-6.4907,-6.4907,-6.4907,-6.4907,-6.4907,-6.4907,-6.4907,-6.4907,-6.4907,-6.4907,-6.4907,-6.4907,-6.4907,-6.4907,-6.4907,-6.4813,-6.4509,-6.4718,-6.4813,0.0,0.0,0.0,0.0,0.0,0.0,0.0,0.0,-6.4907,-6.4907,-6.4907,-6.4907,-6.4907,-6.4907,-6.4907,-6.4907,-6.4907,-6.4907,-6.4907,-6.4907,-6.4907,-6.4907,-6.4907,-6.4907,-6.4907,-6.4907,-6.4907,-6.4907,-6.4907,-6.5514,-6.6575,-6.7162,-6.8053,-6.9096,-6.9664,-6.9891,-6.9891,-6.9891,-6.9891,-6.9891,-5.4686,0.0,0.0,0.0,0.0,0.0,0.0,0.0,0.0,0.0,-5.7676,0.0,-5.9069,0.0,-6.0593,-6.115,-6.1206,-6.1007,-6.058,-6.1147,-6.1304,-6.0764,-6.0903,-6.098,-6.1056,-6.0321,-5.9995,-6.01,0.0,-5.9786,0.0,0.0,0.0,0.0,0.0,-6.0776,-6.1572,0.0,-6.2614,0.0,0.0,-6.4907,0.0,0.0,-6.5154,-6.4945,-6.5229,-6.5343,-6.5381,-6.5684,-6.5798,-6.5798,-6.5798,-6.5798,-6.5798,-6.5798,-6.5798,-6.5798,-6.5798,-6.5798,-6.5798,-6.5798,-6.5571,-6.5343,-6.5343,-6.5116,-6.4907,-6.4907,-6.4907,-6.4907,-6.4907,-6.4907,-6.4907,-6.4907,-6.4907,-6.4907,0.0,-6.4907,0.0,-6.4907,0.0,0.0,0.0,-6.4907,-6.4907,-6.4907,-6.4907,-6.4907,-6.4907,-6.4907,-6.4907,-6.4907,-6.4907,-6.4907,-6.4907,-6.4907,-6.4907,-6.4907,-6.4907,-6.4907,-6.4907,-6.4907,-6.4907,-6.4907,-6.4907,-6.5211,-6.5762,-6.6935,-6.7864,-6.8698,-6.955,-6.9891,-6.9891,-6.9891,-6.9891,-6.9891,0.0,0.0,0.0,0.0,-5.5837,0.0,0.0,0.0,-5.7583,0.0,-5.8958,-5.9942,-6.0017,-6.076,-6.128,-6.1317,-6.1317,-6.1298,-6.1261,-6.1493,-6.1493,-6.1261,-6.1622,-6.1764,-6.1562,-6.0902,-6.0529,-6.0567,0.0,0.0,0.0,0.0,0.0,0.0,-6.1155,0.0,-6.2519,-6.3296,-6.3638,-6.3751,-6.4566,-6.4926,-6.504,-6.5817,-6.5646,-6.5116,-6.5893,-6.6158,-6.6291,-6.7125,-6.739,-6.739,-6.739,-6.739,-6.739,-6.739,-6.739,-6.739,-6.739,-6.739,-6.739,-6.739,-6.6783,-6.6158,-6.6158,-6.5571,-6.5021,-6.4983,-6.4964,-6.4945,-6.4907,-6.4907,-6.4907,-6.4907,-6.4907,-6.4907,-6.4907,-6.4907,-6.4907,-6.4907,-6.4907,-6.4907,-6.4907,-6.4907,-6.4907,-6.4907,-6.4907,-6.4907,0.0,-6.4907,-6.4907,-6.4907,-6.4907,-6.4907,-6.4907,-6.4907,-6.4907,-6.4907,-6.4907,-6.4907,-6.4907,-6.4907,-6.4907,-6.4907,-6.4907,-6.4891,-6.5025,-6.669,-6.7845,-6.8622,-6.9531,-6.9891,-6.9891,-6.9891,-6.9891,-6.9891,-5.6302,-5.6785,-5.7323,0.0,-5.7453,-5.7193,0.0,0.0,0.0,0.0,-5.9645,-6.0388,-6.1633,-6.1967,-6.2339,-6.2933,-6.2989,-6.2747,-6.2134,-6.2699,-6.2754,-6.2116,-6.2166,-6.2295,-6.2402,-6.164,-6.1331,-6.1448,-6.1318,0.0,-6.1262,0.0,0.0,0.0,0.0,0.0,-6.3315,-6.3524,-6.3979,-6.4604,-6.4813,-6.5267,-6.5817,0.0,-6.6367,-6.6783,-6.6992,-6.7068,-6.7106,-6.7314,-6.739,-6.739,-6.739,-6.739,-6.739,-6.739,-6.739,-6.739,-6.739,-6.739,-6.739,-6.739,-6.7238,-6.7068,-6.7068,-6.6916,-6.6575,-6.5931,-6.5798,-6.5609,-6.5021,-6.4907,-6.4907,-6.4907,-6.4907,-6.4907,-6.4907,-6.4907,-6.4907,-6.4907,-6.4907,-6.4907,-6.4907,-6.4907,-6.4907,-6.4907,-6.4907,-6.4907,-6.4907,-6.4907,-6.4907,-6.4907,-6.4907,-6.4907,-6.4907,-6.4907,-6.4907,-6.4907,-6.4907,-6.4907,-6.4907,-6.4907,-6.4907,-6.4907,-6.4907,-6.4907,-6.5023,-6.6708,-6.7523,-6.7845,-6.9323,-6.9891,-6.9891,-6.9891,-6.9891,-6.9891,-5.736,0.0,0.0,-5.9088,0.0,0.0,-5.8549,-5.9274,0.0,-6.0425,-6.0778,0.0,-6.2301,-6.271,-6.3119,-6.3565,-6.3602,-6.3416,-6.2952,-6.336,-6.3416,-6.2952,-6.2933,-6.2978,-6.3072,-6.2289,-6.1964,-6.207,-6.1796,0.0,-6.1668,0.0,0.0,0.0,0.0,-6.3013,0.0,-6.386,-6.4162,-6.4596,-6.4745,-6.5236,0.0,-6.6482,-6.72,-6.7977,-6.8356,-6.8243,-6.7977,-6.8356,-6.8489,-6.8489,-6.8489,-6.8489,-6.8489,-6.8489,-6.8489,-6.8489,-6.8489,-6.8489,-6.8489,-6.8489,-6.8205,-6.7921,-6.7921,-6.7655,-6.7257,-6.6765,-6.667,-6.6404,-6.559,-6.5419,-6.5305,-6.4964,-6.4907,-6.4907,-6.4907,-6.4907,-6.4907,-6.4907,-6.4907,-6.4907,-6.4907,-6.4907,-6.4907,-6.4907,-6.4907,-6.4907,0.0,-6.4907,-6.4907,-6.4907,-6.4907,-6.4907,-6.4907,-6.4907,-6.4907,-6.4907,-6.4907,-6.4907,-6.4907,-6.4907,-6.4907,-6.4907,-6.4907,-6.5305,-6.608,-6.6992,-6.7617,-6.8053,-6.938,-6.9891,-6.9891,-6.9891,-6.9891,-6.9891,0.0,0.0,0.0,0.0,0.0,0.0,0.0,-6.0778,0.0,-6.1354,0.0,-6.245,-6.2562,-6.3193,-6.3602,-6.3602,-6.3602,-6.3602,-6.3602,-6.3602,-6.3602,-6.3602,-6.3602,-6.3602,-6.3602,-6.2914,-6.2562,-6.2562,-6.2053,-6.1782,0.0,0.0,0.0,0.0,0.0,0.0,0.0,-6.419,-6.4209,-6.4308,-6.4614,-6.5276,-6.6125,-6.7146,-6.8053,-6.8868,-6.9626,-6.9399,-6.8887,-6.9626,-6.9891,-6.9891,-6.9891,-6.9891,-6.9891,-6.9891,-6.9891,-6.9891,-6.9891,-6.9891,-6.9891,-6.9891,-6.9323,-6.8773,-6.8773,-6.8224,-6.7693,-6.7579,-6.756,-6.7295,-6.6442,-6.6177,-6.5874,-6.5173,-6.4983,-6.4907,-6.4907,-6.4907,-6.4907,-6.4907,-6.4907,0.0,-6.4907,-6.4907,-6.4907,-6.4907,-6.4907,-6.4907,0.0,0.0,-6.4907,-6.4907,-6.4907,-6.4907,-6.4907,-6.4907,-6.4907,-6.4907,-6.4907,-6.4907,-6.4907,-6.4907,-6.4907,-6.4907,-6.4907,-6.5853,-6.7406,-6.7407,-6.7939,-6.8849,-6.9588,-6.9891,-6.9891,-6.9891,-6.9891,-6.9891,0.0,0.0,0.0,0.0,0.0,-6.1967,-6.1967,-6.154,-6.1447,-6.2116,-6.232,-6.2654,-6.3323,-6.3527,-6.3602,-6.3602,-6.3602,-6.3602,-6.3602,-6.3602,-6.3602,-6.3602,-6.3602,-6.3602,-6.3602,-6.3472,-6.3397,-6.3397,-6.3294,-6.3219,-6.3219,0.0,0.0,0.0,0.0,0.0,-6.419,-6.419,0.0,-6.4596,-6.5313,-6.6201,-6.7221,-6.8072,-6.8925,-6.9683,-6.9835,-6.9797,-6.9702,-6.9835,-6.9891,-6.9891,-6.9891,-6.9891,-6.9891,-6.9891,-6.9891,-6.9891,-6.9891,-6.9891,-6.9891,-6.9891,-6.9778,-6.9664,-6.9664,-6.955,-6.9247,-6.8546,-6.8394,-6.8148,-6.7314,-6.6575,-6.6063,-6.5912,-6.5343,-6.4907,-6.4907,-6.4907,-6.4907,-6.4907,-6.4907,-6.4907,-6.4907,-6.4907,-6.4907,-6.4907,-6.4907,0.0,0.0,0.0,-6.4907,0.0,-6.4907,-6.4907,0.0,-6.4907,-6.4907,-6.4907,-6.4907,-6.4907,-6.4907,-6.4907,-6.4907,-6.4907,-6.4907,-6.5853,-6.7406,-6.7407,-6.83,-6.9683,-6.9835,-6.9891,-6.9891,-6.9891,-6.9891,-6.9891,0.0,0.0,0.0,0.0,0.0,0.0,0.0,-6.2692,-6.258,-6.297,-6.3397,-6.3806,-6.4196,-6.4642,-6.4902,-6.4902,-6.4902,-6.4716,-6.427,-6.4233,-6.4048,-6.3639,-6.3602,-6.3602,-6.3602,-6.3602,-6.3602,-6.3602,-6.3602,-6.3602,-6.3602,0.0,0.0,0.0,0.0,-6.3786,0.0,0.0,0.0,-6.4758,-6.5257,-6.6259,-6.7567,-6.8065,-6.8784,-6.9539,-6.9539,-6.9539,-6.9579,-6.9815,-6.9891,-6.9891,-6.9891,-6.9891,-6.9891,-6.9891,-6.9891,-6.9891,-6.9891,-6.9891,-6.9891,-6.9891,-6.9891,-6.9891,-6.9891,-6.9891,-6.9778,-6.9361,-6.9266,-6.902,-6.8186,-6.7333,-6.6632,-6.6177,-6.5779,-6.5381,-6.4964,-6.4907,-6.4907,-6.4907,-6.4907,-6.4907,-6.4907,-6.4907,-6.4907,-6.4907,0.0,0.0,0.0,0.0,-6.4907,0.0,0.0,0.0,-6.4907,0.0,-6.4907,-6.4907,-6.4907,-6.4907,-6.4907,-6.4907,-6.4907,-6.4907,-6.4907,-6.5836,-6.7464,-6.8337,-6.9171,-6.9891,-6.9891,-6.9891,-6.9891,-6.9891,-6.9891,-6.9891,0.0,-6.1596,0.0,0.0,-6.2803,-6.3137,-6.3769,-6.401,-6.4066,-6.3899,-6.4419,-6.4883,-6.5069,-6.5701,-6.6109,-6.6109,-6.6109,-6.5812,-6.5125,-6.5088,-6.4809,-6.4178,-6.3955,-6.388,-6.388,-6.3695,-6.3602,-6.3602,-6.3602,-6.3527,-6.336,-6.3527,0.0,0.0,0.0,0.0,0.0,0.0,-6.4233,-6.4919,-6.5415,-6.6462,-6.7703,-6.8047,-6.8602,-6.9184,-6.9184,-6.9184,-6.9289,-6.9638,-6.9796,-6.9796,-6.9796,-6.9834,-6.9891,-6.9891,-6.9891,-6.9891,-6.9891,-6.9891,-6.9891,-6.9891,-6.9891,-6.9891,-6.9891,-6.9891,-6.9891,-6.9891,-6.9891,-6.9683,-6.9001,-6.8205,-6.7428,-6.6746,-6.6329,-6.5874,-6.5248,-6.5021,-6.4907,-6.4907,-6.4907,-6.4907,-6.4907,-6.4907,-6.4907,-6.4907,-6.4907,0.0,-6.4907,0.0,0.0,0.0,-6.4907,-6.4907,-6.4907,-6.4907,-6.4907,-6.4907,-6.4907,-6.4907,-6.4907,-6.4907,-6.4907,-6.4907,-6.4907,-6.5855,-6.7523,-6.9209,-6.9891,-6.9891,-6.9891,-6.9891,-6.9891,-6.9891,-6.9891,-6.9891,0.0,0.0,0.0,0.0,0.0,-6.4605,-6.4698,-6.5366,-6.5589,-6.4809,-6.4753,-6.5106,-6.5905,-6.6054,-6.6109,-6.6109,-6.6109,-6.6072,-6.5979,-6.5979,-6.5942,-6.5887,-6.5125,-6.4698,-6.4698,-6.3973,-6.3602,-6.3602,-6.3602,-6.3249,-6.2543,-6.3267,-6.3602,0.0,0.0,0.0,-6.3657,-6.44,-6.4853,-6.5198,-6.6773,-6.7579,-6.7959,-6.8771,-6.9109,-6.9184,-6.9184,-6.9184,-6.9184,-6.9228,-6.9397,-6.9542,-6.9542,-6.9699,-6.9891,-6.9891,-6.9891,-6.9891,-6.9891,-6.9891,-6.9891,-6.9891,-6.9891,-6.9891,-6.9891,-6.9891,-6.9891,-6.9891,-6.9891,-6.9873,-6.9778,-6.9077,-6.8451,-6.8375,-6.7087,-6.6082,-6.6006,-6.5362,-6.4907,-6.4907,-6.4907,-6.4907,-6.4907,-6.4907,-6.4907,-6.4907,-6.4907,-6.4907,-6.4907,0.0,0.0,-6.4907,-6.4907,-6.4907,-6.4907,-6.4907,-6.4907,-6.4907,-6.4907,-6.4907,-6.4907,-6.4907,-6.4907,-6.4907,-6.4907,-6.5855,-6.7523,-6.9209,-6.9891,-6.9891,-6.9891,-6.9891,-6.9891,-6.9891,-6.9891,-6.9891,0.0,0.0,0.0,0.0,0.0,0.0,0.0,-6.5887,-6.6165,-6.6295,-6.6314,-6.6444,-6.6797,-6.7261,-6.7558,-6.7558,-6.7558,-6.7354,-6.6852,-6.6834,-6.6611,-6.6128,-6.5775,-6.5348,-6.4828,-6.4493,-6.4085,-6.3602,-6.3602,-6.3453,-6.3137,-6.3453,-6.3602,-6.3602,-6.3602,-6.388,-6.4345,-6.4679,-6.5431,-6.6472,-6.7142,-6.7747,-6.8287,-6.8642,-6.8772,-6.8772,-6.8772,-6.8772,-6.8772,-6.8772,-6.9009,-6.9294,-6.9294,-6.9479,-6.9641,-6.9641,-6.9641,-6.9699,-6.9853,-6.9796,-6.9699,-6.9853,-6.9891,-6.9891,-6.9891,-6.9891,-6.9891,-6.9891,-6.9891,-6.9891,-6.9891,-6.9607,-6.9209,-6.8698,-6.8034,-6.7257,-6.6234,-6.5817,-6.5438,-6.4964,-6.4907,-6.4907,-6.4907,-6.4907,-6.4907,-6.4907,-6.4907,-6.4907,-6.4907,-6.4907,-6.4907,-6.4907,0.0,-6.4907,-6.4907,-6.4907,-6.4907,-6.4907,-6.4907,-6.4907,-6.4907,-6.4907,-6.4891,-6.4967,-6.5969,-6.6973,-6.7996,-6.9342,-6.9891,-6.9891,-6.9891,-6.9891,-6.9891,-6.9891,-6.9891,-6.9891,-6.4289,0.0,-6.5199,0.0,-6.5905,-6.6462,-6.6462,-6.6648,-6.702,-6.7595,-6.767,-6.767,-6.767,-6.8171,-6.8506,-6.8506,-6.8506,-6.8264,-6.7707,-6.767,-6.741,-6.6834,-6.6592,-6.6165,-6.5571,-6.5311,-6.4791,-6.3955,-6.3955,-6.3713,-6.3267,-6.3267,-6.3379,-6.362,-6.3862,-6.4289,-6.4846,-6.5348,-6.6221,-6.7335,-6.7577,-6.8004,-6.8506,-6.8506,-6.8506,-6.8506,-6.8506,-6.8506,-6.8506,-6.8506,-6.8726,-6.9009,-6.9034,-6.9251,-6.9419,-6.9419,-6.9419,-6.946,-6.962,-6.9601,-6.9542,-6.9738,-6.9834,-6.9891,-6.9891,-6.9891,-6.9891,-6.9891,-6.9891,-6.9891,-6.9891,-6.9891,-6.9702,-6.9077,-6.8773,-6.8186,-6.7011,-6.6404,-6.5893,-6.5324,-6.504,-6.4907,-6.4907,-6.4907,-6.4907,-6.4907,-6.4907,-6.4907,-6.4907,-6.4907,-6.4907,-6.4907,-6.4907,-6.4907,-6.4907,-6.4907,-6.4907,-6.4907,-6.4907,-6.4907,-6.4907,-6.4907,-6.4891,-6.5025,-6.7181,-6.8185,-6.8281,-6.9437,-6.9891,-6.9891,-6.9891,-6.9891,-6.9891,-6.9891,-6.9891,-6.9891,-6.5905,-6.6091,-6.6091,-6.6091,-6.676,-6.7298,-6.7298,-6.7967,-6.8487,-6.8487,-6.8506,-6.8506,-6.8506,-6.8506,-6.8506,-6.8506,-6.8506,-6.8506,-6.8506,-6.8506,-6.8487,-6.8487,-6.7725,-6.728,-6.728,-6.65,-6.5664,-6.4809,-6.4809,-6.3973,-6.2413,-6.2413,-6.284,-6.3639,-6.4438,-6.4809,-6.4921,-6.6574,-6.728,-6.7373,-6.819,-6.8506,-6.8506,-6.8506,-6.8506,-6.8506,-6.8506,-6.8506,-6.8506,-6.8506,-6.8506,-6.8535,-6.8763,-6.899,-6.9184,-6.9184,-6.9184,-6.9184,-6.9184,-6.9336,-6.9501,-6.9482,-6.9699,-6.9891,-6.9891,-6.9891,-6.9891,-6.9891,-6.9891,-6.9891,-6.9891,-6.9891,-6.9891,-6.9891,-6.9152,-6.8584,-6.8565,-6.7144,-6.6101,-6.6101,-6.5381,-6.4907,-6.4907,-6.4907,-6.4907,-6.4907,-6.4907,-6.4907,-6.4907,-6.4907,-6.4907,-6.4907,-6.4907,-6.4907,-6.4907,-6.4907,-6.4907,-6.4907,-6.4907,-6.4907,-6.4907,-6.4907,-6.4891,-6.5082,-6.8411,-6.9227,-6.8281,-6.9437,-6.9891,-6.9891,-6.9891,-6.9891,-6.9891,-6.9891,-6.9891,-6.9891,-6.5102,-6.5856,-6.6463,-6.6463,-6.7364,-6.8134,-6.8134,-6.8357,-6.8506,-6.8506,-6.8506,-6.8506,-6.8506,-6.8506,-6.8506,-6.8506,-6.8506,-6.8506,-6.8506,-6.8506,-6.8506,-6.8506,-6.8264,-6.7874,-6.7317,-6.7057,-6.6518,-6.5701,-6.5701,-6.5422,-6.4921,-6.4921,-6.5069,-6.5329,-6.5571,-6.5998,-6.6555,-6.7075,-6.7633,-6.8153,-6.8413,-6.8506,-6.8506,-6.8506,-6.8506,-6.8506,-6.8506,-6.8506,-6.8506,-6.8506,-6.8506,-6.8506,-6.8583,-6.8735,-6.8945,-6.8945,-6.8945,-6.899,-6.9141,-6.9122,-6.906,-6.9251,-6.9355,-6.9416,-6.9416,-6.952,-6.968,-6.9834,-6.9891,-6.9891,-6.9891,-6.9891,-6.9891,-6.9891,-6.9664,-6.9285,-6.8679,-6.8148,-6.739,-6.6234,-6.5874,-6.5514,-6.4945,-6.4907,-6.4907,-6.4907,-6.4907,-6.4907,-6.4907,-6.4907,-6.4907,-6.4907,-6.4907,-6.4907,-6.4907,-6.4907,-6.4907,-6.4907,-6.4907,-6.4907,-6.4907,-6.491,-6.6158,-6.8373,-6.9417,-6.9701,-6.9399,-6.974,-6.9891,-6.9891,-6.9891,-6.9891,-6.9891,-6.9891,-6.9891,-6.9891,-6.5532,-6.6262,-6.6771,-6.6771,-6.7424,-6.7982,-6.7982,-6.8102,-6.8222,-6.8222,-6.8389,-6.8506,-6.8506,-6.8506,-6.8506,-6.8506,-6.8506,-6.8506,-6.8506,-6.8506,-6.8506,-6.8506,-6.8506,-6.8264,-6.7763,-6.7763,-6.7373,-6.6555,-6.6258,-6.6109,-6.6109,-6.6109,-6.6109,-6.6109,-6.6425,-6.6834,-6.7335,-6.7633,-6.806,-6.8506,-6.8506,-6.8506,-6.8506,-6.8506,-6.8506,-6.8506,-6.8506,-6.8506,-6.8506,-6.8506,-6.8506,-6.8506,-6.8506,-6.8583,-6.8688,-6.8688,-6.8688,-6.8735,-6.8892,-6.8855,-6.8836,-6.899,-6.9141,-6.9184,-6.9184,-6.9313,-6.9479,-6.9699,-6.9738,-6.9796,-6.9891,-6.9891,-6.9891,-6.9891,-6.9891,-6.9702,-6.9152,-6.8811,-6.8205,-6.7162,-6.648,-6.5912,-6.54,-6.5078,-6.4907,-6.4907,-6.4907,-6.4907,-6.4907,-6.4907,-6.4907,-6.4907,-6.4907,-6.4907,-6.4907,-6.4907,-6.4907,-6.4907,-6.4907,-6.4907,-6.4891,-6.4893,-6.6727,-6.989,-6.9891,-6.9891,-6.9891,-6.9891,-6.9891,-6.9891,-6.9891,-6.9891,-6.9891,-6.9891,-6.9891,-6.9891,-6.686,-6.7063,-6.7063,-6.7063,-6.7063,-6.7119,-6.7119,-6.7523,-6.7789,-6.7789,-6.8222,-6.8506,-6.8506,-6.8506,-6.8506,-6.8506,-6.8506,-6.8506,-6.8506,-6.8506,-6.8506,-6.8506,-6.8506,-6.8506,-6.8506,-6.8506,-6.8134,-6.7391,-6.6648,-6.6277,-6.6277,-6.6277,-6.6277,-6.6314,-6.7057,-6.7391,-6.7447,-6.819,-6.8506,-6.8506,-6.8506,-6.8506,-6.8506,-6.8506,-6.8506,-6.8506,-6.8506,-6.8506,-6.8506,-6.8506,-6.8506,-6.8506,-6.8506,-6.8506,-6.8506,-6.8506,-6.8506,-6.8506,-6.8506,-6.866,-6.879,-6.879,-6.8945,-6.916,-6.9184,-6.9184,-6.9209,-6.946,-6.9501,-6.9582,-6.9834,-6.9891,-6.9891,-6.9891,-6.9891,-6.9891,-6.9891,-6.919,-6.8679,-6.8603,-6.7219,-6.6234,-6.612,-6.5419,-6.4964,-6.4907,-6.4907,-6.4907,-6.4907,-6.4907,-6.4907,-6.4907,-6.4907,-6.4907,-6.4907,-6.4907,-6.4907,-6.4907,-6.4907,-6.4929,-6.5025,-6.5177,-6.6954,-6.9891,-6.991,-6.9891,-6.9891,-6.9891,-6.9891,-6.9891,-6.9891,-6.9891,-6.9891,-6.9891,-6.9891,-6.9891,-6.6092,0.0,-6.6637,-6.6637,-6.691,-6.7119,-6.7119,-6.7523,-6.7789,-6.7789,-6.8222,-6.8506,-6.8506,-6.8506,-6.8506,-6.8506,-6.8506,-6.8506,-6.8506,-6.8506,-6.8506,-6.8506,-6.8506,-6.8506,-6.8506,-6.8506,-6.8431,-6.8227,-6.8041,-6.7948,-6.7948,-6.7948,-6.7948,-6.7948,-6.8134,-6.8227,-6.8246,-6.8431,-6.8506,-6.8506,-6.8506,-6.8506,-6.8506,-6.8506,-6.8506,-6.8506,-6.8506,-6.8506,-6.8506,-6.8506,-6.8506,-6.8506,-6.8506,-6.8506,-6.8506,-6.8506,-6.8506,-6.8506,-6.8506,-6.8535,-6.8583,-6.8583,-6.8631,-6.8726,-6.8855,-6.8881,-6.9016,-6.9419,-6.9501,-6.9582,-6.9834,-6.9891,-6.9891,-6.9891,-6.9891,-6.9891,-6.9891,-6.9721,-6.9342,-6.8679,-6.8243,-6.7504,-6.6234,-6.5931,-6.5571,-6.4945,-6.4907,-6.4907,-6.4907,-6.4907,-6.4907,-6.4907,-6.4907,-6.4907,-6.4907,-6.4907,-6.4907,-6.4907,-6.491,-6.5364,-6.6253,-6.7957,-6.9133,-6.991,-6.9891,-6.9891,-6.9891,-6.9891,-6.9891,-6.9891,-6.9891,-6.9891,-6.9891,-6.9891,-6.9891,-6.9891,-6.5804,-6.6039,-6.6207,-6.6207,-6.6355,-6.6518,-6.6518,-6.691,-6.7249,-6.7469,-6.786,-6.8272,-6.8457,-6.8506,-6.8506,-6.8506,-6.8506,-6.8506,-6.8506,-6.8506,-6.8506,-6.8506,-6.8506,-6.8506,-6.8506,-6.8506,-6.8506,-6.8506,-6.8506,-6.8506,-6.8506,-6.8506,-6.8506,-6.8506,-6.8506,-6.8506,-6.8506,-6.8506,-6.8506,-6.8506,-6.8506,-6.8506,-6.8506,-6.8506,-6.8506,-6.8506,-6.8506,-6.8506,-6.8506,-6.8506,-6.8506,-6.8506,-6.8506,-6.8506,-6.8506,-6.8506,-6.8506,-6.8506,-6.8506,-6.8506,-6.8506,-6.8506,-6.8506,-6.8554,-6.866,-6.8641,-6.8763,-6.9103,-6.919,-6.9275,-6.9641,-6.9699,-6.9757,-6.9891,-6.9891,-6.9891,-6.9891,-6.9891,-6.9721,-6.9247,-6.883,-6.8243,-6.7333,-6.6916,-6.6518,-6.6082,-6.6044,-6.5874,-6.5476,-6.5457,-6.5286,-6.4907,-6.4907,-6.4907,-6.4907,-6.5267,-6.5457,-6.5457,-6.5611,-6.6255,-6.739,-6.9095,-6.991,-6.9891,-6.9873,-6.9891,-6.9891,-6.9891,-6.9891,-6.9891,-6.9891,-6.9891,-6.9891,-6.9891,-6.9891,-6.9891,-6.5804,-6.5804,-6.5804,-6.5804,-6.5804,-6.5804,-6.5804,-6.6207,-6.6637,-6.6949,-6.7396,-6.786,-6.834,-6.834,-6.834,-6.8389,-6.8389,-6.8389,-6.8524,-6.8506,-6.8506,-6.8506,-6.8506,-6.8506,-6.8506,-6.8506,-6.8506,-6.8506,-6.8506,-6.8506,-6.8506,-6.8506,-6.8506,-6.8506,-6.8506,-6.8506,-6.8506,-6.8506,-6.8506,-6.8506,-6.8506,-6.8506,-6.8506,-6.8506,-6.8506,-6.8506,-6.8506,-6.8506,-6.8506,-6.8506,-6.8506,-6.8506,-6.8506,-6.8506,-6.8506,-6.8506,-6.8506,-6.8506,-6.8506,-6.8506,-6.8506,-6.8506,-6.8506,-6.8506,-6.8506,-6.8506,-6.8535,-6.8763,-6.879,-6.8926,-6.9359,-6.946,-6.9561,-6.9796,-6.9834,-6.9834,-6.9891,-6.9891,-6.9891,-6.9891,-6.9247,-6.8735,-6.8603,-6.7977,-6.7523,-6.7409,-6.739,-6.7087,-6.6348,-6.631,-6.5988,-6.5305,-6.5154,-6.5135,-6.5286,-6.5933,-6.6292,-6.631,-6.6671,-6.7334,-6.8319,-6.9398,-6.9891,-6.9891,-6.9891,-6.9891,-6.9891,-6.9891,-6.9891,-6.9891,-6.9891,-6.9891,-6.9891,-6.9891,-6.9891,-6.9891,-6.5804,-6.5804,-6.5804,-6.5804,-6.5804,-6.5804,-6.5804,-6.6207,-6.6536,-6.6595,-6.6967,-6.7396,-6.786,-6.7577,-6.7469,-6.786,-6.7912,-6.8102,-6.8457,-6.8506,-6.8506,-6.8506,-6.8506,-6.8506,-6.8506,-6.8506,-6.8506,-6.8506,-6.8506,-6.8506,-6.8506,-6.8506,-6.8506,-6.8506,-6.8506,-6.8506,-6.8506,-6.8506,-6.8506,-6.8506,-6.8506,-6.8506,-6.8506,-6.8506,-6.8506,-6.8506,-6.8506,-6.8506,-6.8506,-6.8506,-6.8506,-6.8506,-6.8506,-6.8506,-6.8506,-6.8506,-6.8506,-6.8506,-6.8506,-6.8506,-6.8506,-6.8506,-6.8506,-6.8506,-6.8506,-6.8506,-6.8535,-6.8763,-6.879,-6.8881,-6.9184,-6.927,-6.9313,-6.9542,-6.9542,-6.9641,-6.9891,-6.9891,-6.9891,-6.9891,-6.9778,-6.9399,-6.8679,-6.8489,-6.8129,-6.7447,-6.739,-6.7333,-6.7219,-6.72,-6.7125,-6.7009,-6.6289,-6.627,-6.6992,-6.7126,-6.7202,-6.72,-6.7731,-6.8186,-6.8565,-6.9475,-6.9891,-6.9891,-6.9891,-6.9891,-6.9891,-6.9891,-6.9891,-6.9891,-6.9891,-6.9891,-6.9891,-6.9891,-6.9891,-6.9891,-6.5804,-6.5804,-6.5804,-6.5804,-6.5804,-6.5804,-6.5804,-6.5976,-6.619,-6.6494,-6.6637,-6.6967,-6.7396,-6.7231,-6.7175,-6.7396,-6.763,-6.7789,-6.7755,-6.8222,-6.8506,-6.8506,-6.8506,-6.8506,-6.8506,-6.8506,-6.8506,-6.8506,-6.8506,-6.8506,-6.8506,-6.8506,-6.8506,-6.8506,-6.8506,-6.8506,-6.8506,-6.8506,-6.8506,-6.8506,-6.8506,-6.8506,-6.8506,-6.8506,-6.8506,-6.8506,-6.8506,-6.8506,-6.8506,-6.8506,-6.8506,-6.8506,-6.8506,-6.8506,-6.8506,-6.8506,-6.8506,-6.8506,-6.8506,-6.8506,-6.8506,-6.8506,-6.8506,-6.8506,-6.8506,-6.8506,-6.8506,-6.8613,-6.866,-6.8688,-6.8945,-6.899,-6.9078,-6.9294,-6.9336,-6.9438,-6.9641,-6.968,-6.9738,-6.9891,-6.9891,-6.974,-6.9342,-6.9304,-6.9152,-6.8773,-6.8735,-6.8546,-6.8072,-6.8053,-6.8034,-6.8071,-6.7219,-6.6974,-6.7392,-6.7827,-6.8053,-6.8053,-6.8773,-6.919,-6.9304,-6.9721,-6.9891,-6.9891,-6.9891,-6.9891,-6.9891,-6.9891,-6.9891,-6.9891,-6.9891,-6.9891,-6.9891,-6.9891,-6.9891,-6.9891,-6.5804,-6.5804,-6.5804,-6.5804,-6.5804,-6.5804,-6.5804,-6.5804,-6.5913,-6.6312,-6.6312,-6.6476,-6.6892,-6.6834,-6.6834,-6.6949,-6.7305,-6.7341,-6.7006,-6.7702,-6.8222,-6.834,-6.8457,-6.8506,-6.8506,-6.8506,-6.8506,-6.8506,-6.8506,-6.8506,-6.8506,-6.8506,-6.8506,-6.8506,-6.8506,-6.8506,-6.8506,-6.8506,-6.8506,-6.8506,-6.8506,-6.8506,-6.8506,-6.8506,-6.8506,-6.8506,-6.8506,-6.8506,-6.8506,-6.8506,-6.8506,-6.8506,-6.8506,-6.8506,-6.8506,-6.8506,-6.8506,-6.8506,-6.8506,-6.8506,-6.8506,-6.8506,-6.8506,-6.8506,-6.8506,-6.8506,-6.8506,-6.8506,-6.8506,-6.8554,-6.8688,-6.8717,-6.8809,-6.9097,-6.9097,-6.9166,-6.9419,-6.946,-6.9601,-6.9796,-6.9834,-6.9891,-6.9891,-6.9891,-6.9891,-6.9891,-6.9891,-6.9607,-6.8944,-6.8906,-6.8906,-6.8906,-6.8281,-6.796,-6.7979,-6.8584,-6.8906,-6.8906,-6.9569,-6.9891,-6.9891,-6.9891,-6.9891,-6.9891,-6.9891,-6.9891,-6.9891,-6.9891,-6.9891,-6.9891,-6.9891,-6.9891,-6.9891,-6.9891,-6.9891,-6.9891,-6.5804,-6.5804,-6.5804,-6.5804,-6.5804,-6.5804,-6.5804,-6.5804,-6.5804,-6.5867,-6.5867,-6.6021,-6.6476,-6.6146,-6.6083,-6.6476,-6.6595,-6.6595,-6.6536,-6.6967,-6.7396,-6.786,-6.8272,-6.8506,-6.8506,-6.8506,-6.8506,-6.8506,-6.8506,-6.8506,-6.8506,-6.8506,-6.8506,-6.8506,-6.8506,-6.8506,-6.8506,-6.8506,-6.8506,-6.8506,-6.8506,-6.8506,-6.8506,-6.8506,-6.8506,-6.8506,-6.8506,-6.8506,-6.8506,-6.8506,-6.8506,-6.8506,-6.8506,-6.8506,-6.8506,-6.8506,-6.8506,-6.8506,-6.8506,-6.8506,-6.8506,-6.8506,-6.8506,-6.8506,-6.8506,-6.8506,-6.8506,-6.8506,-6.8506,-6.8506,-6.8506,-6.8506,-6.8583,-6.8809,-6.8836,-6.8926,-6.9184,-6.9378,-6.9501,-6.9542,-6.9738,-6.9891,-6.9891,-6.9891,-6.9891,-6.9891,-6.9891,-6.9854,-6.9797,-6.9797,-6.9797,-6.9797,-6.974,-6.9721,-6.9721,-6.9778,-6.9797,-6.9797,-6.9854,-6.9891,-6.9891,-6.9891,-6.9891,-6.9891,-6.9891,-6.9891,-6.9891,-6.9891,-6.9891,-6.9891,-6.9891,-6.9891,-6.9891,-6.9891,-6.9891,-6.9891,-6.5804,-6.5804,-6.5804,-6.5804,-6.5804,-6.5804,-6.5804,-6.5804,-6.5804,-6.5804,-6.5804,-6.5867,-6.6039,-6.5913,-6.585,-6.6021,-6.6312,-6.6373,-6.6083,-6.6476,-6.691,-6.7341,-6.7807,-6.8102,-6.8102,-6.834,-6.8506,-6.8506,-6.8506,-6.8506,-6.8506,-6.8506,-6.8506,-6.8506,-6.8506,-6.8506,-6.8506,-6.8506,-6.8506,-6.8506,-6.8506,-6.8506,-6.8506,-6.8506,-6.8506,-6.8506,-6.8506,-6.8506,-6.8506,-6.8506,-6.8506,-6.8506,-6.8506,-6.8506,-6.8506,-6.8506,-6.8506,-6.8506,-6.8506,-6.8506,-6.8506,-6.8506,-6.8506,-6.8506,-6.8506,-6.8506,-6.8506,-6.8506,-6.8506,-6.8506,-6.8506,-6.8506,-6.8506,-6.8613,-6.8613,-6.8688,-6.8945,-6.9016,-6.9147,-6.9294,-6.952,-6.9641,-6.9641,-6.9796,-6.9891,-6.9891,-6.9891,-6.9891,-6.9891,-6.9891,-6.9891,-6.9891,-6.9891,-6.9891,-6.9891,-6.9891,-6.9891,-6.9891,-6.9891,-6.9891,-6.9891,-6.9891,-6.9891,-6.9891,-6.9891,-6.9891,-6.9891,-6.9891,-6.9891,-6.9891,-6.9891,-6.9891,-6.9891,-6.9891,-6.9891,-6.9891,-6.5804,-6.5804,-6.5804,-6.5804,-6.5804,-6.5804,-6.5804,-6.5804,-6.5804,-6.5804,-6.5804,-6.5804,-6.5804,-6.5804,-6.5804,-6.5804,-6.6083,-6.6146,-6.5804,-6.6083,-6.6476,-6.6892,-6.7341,-6.7577,-6.7577,-6.8033,-6.8272,-6.8272,-6.8457,-6.8506,-6.8506,-6.8506,-6.8506,-6.8506,-6.8506,-6.8506,-6.8506,-6.8506,-6.8506,-6.8506,-6.8506,-6.8506,-6.8506,-6.8506,-6.8506,-6.8506,-6.8506,-6.8506,-6.8506,-6.8506,-6.8506,-6.8506,-6.8506,-6.8506,-6.8506,-6.8506,-6.8506,-6.8506,-6.8506,-6.8506,-6.8506,-6.8506,-6.8506,-6.8506,-6.8506,-6.8506,-6.8506,-6.8506,-6.8506,-6.8506,-6.8506,-6.8506,-6.8506,-6.8506,-6.8506,-6.8535,-6.8688,-6.8763,-6.8881,-6.9034,-6.9251,-6.9419,-6.9419,-6.9579,-6.9718,-6.9796,-6.9777,-6.9796,-6.9891,-6.9891,-6.9891,-6.9891,-6.9891,-6.9891,-6.9891,-6.9891,-6.9891,-6.9891,-6.9891,-6.9891,-6.9891,-6.9891,-6.9891,-6.9891,-6.9891,-6.9891,-6.9891,-6.9891,-6.9891,-6.9891,-6.9891,-6.9891,-6.9891,-6.9891,-6.9891,-6.9891,-6.5804,-6.5804,-6.5804,-6.5804,-6.5804,-6.5804,-6.5804,-6.5804,-6.5804,-6.5804,-6.5804,-6.5804,-6.5804,-6.5804,-6.5804,-6.5804,-6.5804,-6.5804,-6.5804,-6.5804,-6.6039,-6.6476,-6.691,-6.7119,-6.7119,-6.7559,-6.7807,-6.7789,-6.8272,-6.8524,-6.8506,-6.8506,-6.8506,-6.8506,-6.8506,-6.8506,-6.8506,-6.8506,-6.8506,-6.8506,-6.8506,-6.8506,-6.8506,-6.8506,-6.8506,-6.8506,-6.8506,-6.8506,-6.8506,-6.8506,-6.8506,-6.8506,-6.8506,-6.8506,-6.8506,-6.8506,-6.8506,-6.8506,-6.8506,-6.8506,-6.8506,-6.8506,-6.8506,-6.8506,-6.8506,-6.8506,-6.8506,-6.8506,-6.8506,-6.8506,-6.8506,-6.8506,-6.8506,-6.8506,-6.8506,-6.8506,-6.8506,-6.8688,-6.879,-6.879,-6.9034,-6.9184,-6.9184,-6.9184,-6.927,-6.9501,-6.9501,-6.9601,-6.9891,-6.9891,-6.9891,-6.9891,-6.9891,-6.9891,-6.9891,-6.9891,-6.9891,-6.9891,-6.9891,-6.9891,-6.9891,-6.9891,-6.9891,-6.9891,-6.9891,-6.9891,-6.9891,-6.9891,-6.9891,-6.9891,-6.9891,-6.9891,-6.9891,-6.9891,-6.9891,-6.9891,-6.5804,-6.5804,-6.5804,-6.5804,-6.5804,-6.5804,-6.5804,-6.5804,-6.5804,-6.5804,-6.5804,-6.5804,-6.5804,-6.5804,-6.5804,-6.5804,-6.5804,-6.5804,-6.5804,-6.5804,-6.585,-6.6039,-6.6416,-6.6696,-6.6696,-6.7063,-6.7451,-6.7789,-6.7912,-6.8153,-6.8506,-6.8506,-6.8506,-6.8506,-6.8506,-6.8506,-6.8506,-6.8506,-6.8506,-6.8506,-6.8506,-6.8506,-6.8506,-6.8506,-6.8506,-6.8506,-6.8506,-6.8506,-6.8506,-6.8506,-6.8506,-6.8506,-6.8506,-6.8506,-6.8506,-6.8506,-6.8506,-6.8506,-6.8506,-6.8506,-6.8506,-6.8506,-6.8506,-6.8506,-6.8506,-6.8506,-6.8506,-6.8506,-6.8506,-6.8506,-6.8506,-6.8506,-6.8506,-6.8506,-6.8506,-6.8506,-6.8506,-6.8535,-6.8583,-6.8583,-6.8763,-6.8945,-6.8945,-6.9078,-6.9228,-6.9251,-6.9313,-6.9313,-6.9397,-6.9416,-6.94,-6.9388,-6.9416,-6.9493,-6.9626,-6.9816,-6.9891,-6.9891,-6.9891,-6.9891,-6.9891,-6.9891,-6.9891,-6.9891,-6.9891,-6.9891,-6.9891,-6.9891,-6.9891,-6.9891,-6.9891,-6.9891,-6.9891,-6.9891,-6.9891,-6.9891,-6.5575,-6.5722,-6.5804,-6.5804,-6.5804,-6.5804,-6.5804,-6.5804,-6.5804,-6.5804,-6.5804,-6.5804,-6.5804,-6.5804,-6.5804,-6.5804,-6.5804,-6.5804,-6.5804,-6.5804,-6.5804,-6.5804,-6.6083,-6.619,-6.619,-6.6637,-6.7024,-6.7305,-6.763,-6.793,-6.8222,-6.8389,-6.8506,-6.8506,-6.8506,-6.8506,-6.8506,-6.8506,-6.8506,-6.8506,-6.8506,-6.8506,-6.8506,-6.8506,-6.8506,-6.8506,-6.8506,-6.8506,-6.8506,-6.8506,-6.8506,-6.8506,-6.8506,-6.8506,-6.8506,-6.8506,-6.8506,-6.8506,-6.8506,-6.8506,-6.8506,-6.8506,-6.8506,-6.8506,-6.8506,-6.8506,-6.8506,-6.8506,-6.8506,-6.8506,-6.8506,-6.8506,-6.8506,-6.8506,-6.8506,-6.8506,-6.8506,-6.8506,-6.8506,-6.8506,-6.8613,-6.8688,-6.8688,-6.8846,-6.8983,-6.9034,-6.9141,-6.9184,-6.9184,-6.9184,-6.919,-6.92,-6.9181,-6.9281,-6.9353,-6.9584,-6.9757,-6.9891,-6.9891,-6.9891,-6.9891,-6.9891,-6.9891,-6.9891,-6.9891,-6.9891,-6.9891,-6.9891,-6.9891,-6.9891,-6.9891,-6.9891,-6.9891,-6.9891,-6.9891,-6.9891,-6.5194,-6.5492,-6.574,-6.5804,-6.5804,-6.5804,-6.5804,-6.5804,-6.5804,-6.5804,-6.5804,-6.5804,-6.5804,-6.5804,-6.5804,-6.5804,-6.5804,-6.5804,-6.5804,-6.5804,-6.5804,-6.5804,-6.5804,-6.5804,-6.5804,-6.619,-6.6494,-6.6476,-6.7305,-6.7736,-6.7807,-6.8222,-6.8457,-6.8457,-6.8457,-6.8457,-6.8457,-6.8457,-6.8457,-6.8506,-6.8506,-6.8506,-6.8506,-6.8506,-6.8506,-6.8506,-6.8506,-6.8506,-6.8506,-6.8506,-6.8506,-6.8506,-6.8506,-6.8506,-6.8506,-6.8506,-6.8506,-6.8506,-6.8506,-6.8506,-6.8506,-6.8506,-6.8506,-6.8506,-6.8506,-6.8506,-6.8506,-6.8506,-6.8506,-6.8506,-6.8506,-6.8506,-6.8506,-6.8506,-6.8506,-6.8506,-6.8506,-6.8506,-6.8506,-6.8506,-6.8506,-6.8506,-6.8506,-6.8506,-6.8583,-6.8763,-6.9009,-6.9141,-6.9141,-6.9141,-6.9141,-6.9141,-6.9158,-6.9139,-6.9166,-6.927,-6.9498,-6.9853,-6.9853,-6.9853,-6.9834,-6.9834,-6.9891,-6.9891,-6.9891,-6.9891,-6.9891,-6.9891,-6.9891,-6.9891,-6.9891,-6.9891,-6.9891,-6.9891,-6.9891,-6.9891,-6.5145,-6.5278,-6.5427,-6.574,-6.5804,-6.5804,-6.5804,-6.5804,-6.5804,-6.5804,-6.5804,-6.5804,-6.5804,-6.5804,-6.5804,-6.5804,-6.5804,-6.5804,-6.5804,-6.5804,-6.5804,-6.5804,-6.5804,-6.5804,-6.5804,-6.5913,-6.6146,-6.6476,-6.6714,-6.7137,-6.7789,-6.7912,-6.7963,-6.7963,-6.7963,-6.7963,-6.7963,-6.7963,-6.8153,-6.8506,-6.8506,-6.8506,-6.8506,-6.8506,-6.8506,-6.8506,-6.8506,-6.8506,-6.8506,-6.8506,-6.8506,-6.8506,-6.8506,-6.8506,-6.8506,-6.8506,-6.8506,-6.8506,-6.8506,-6.8506,-6.8506,-6.8506,-6.8506,-6.8506,-6.8506,-6.8506,-6.8506,-6.8506,-6.8506,-6.8506,-6.8506,-6.8506,-6.8506,-6.8506,-6.8506,-6.8506,-6.8506,-6.8506,-6.8506,-6.8506,-6.8506,-6.8506,-6.8506,-6.8506,-6.8506,-6.8535,-6.8631,-6.8631,-6.8631,-6.8631,-6.8631,-6.8631,-6.866,-6.8744,-6.8896,-6.8912,-6.9068,-6.9355,-6.9468,-6.9532,-6.9601,-6.9601,-6.9699,-6.9891,-6.9891,-6.9891,-6.9891,-6.9891,-6.9891,-6.9891,-6.9891,-6.9891,-6.9891,-6.9891,-6.9891,-6.9891,-6.4653,-6.4926,-6.5278,-6.5492,-6.5657,-6.5804,-6.5804,-6.5804,-6.5804,-6.5804,-6.5804,-6.5804,-6.5804,-6.5804,-6.5804,-6.5804,-6.5804,-6.5804,-6.5804,-6.5804,-6.5804,-6.5804,-6.5804,-6.5804,-6.5804,-6.5804,-6.5913,-6.6146,-6.6373,-6.6812,-6.7451,-6.7684,-6.7912,-6.8153,-6.8153,-6.8153,-6.8153,-6.8153,-6.8153,-6.8222,-6.8389,-6.834,-6.8203,-6.8389,-6.8506,-6.8506,-6.8506,-6.8506,-6.8506,-6.8506,-6.8506,-6.8506,-6.8506,-6.8506,-6.8506,-6.8506,-6.8506,-6.8506,-6.8506,-6.8506,-6.8506,-6.8506,-6.8506,-6.8506,-6.8506,-6.8506,-6.8506,-6.8506,-6.8506,-6.8506,-6.8506,-6.8506,-6.8506,-6.8506,-6.8506,-6.8506,-6.8506,-6.8506,-6.8506,-6.8506,-6.8506,-6.8506,-6.8506,-6.8506,-6.8506,-6.8506,-6.8506,-6.8506,-6.8506,-6.8506,-6.8506,-6.8506,-6.8506,-6.8565,-6.8633,-6.8658,-6.8743,-6.8846,-6.9172,-6.9327,-6.9336,-6.9336,-6.9479,-6.9699,-6.9699,-6.9796,-6.9891,-6.9891,-6.9891,-6.9891,-6.9891,-6.9891,-6.9891,-6.9891,-6.9891,-6.9891,-6.4111,-6.4584,-6.5061,-6.5194,-6.5492,-6.5722,-6.5804,-6.5804,-6.5804,-6.5804,-6.5804,-6.5804,-6.5804,-6.5804,-6.5804,-6.5804,-6.5804,-6.5804,-6.5804,-6.5804,-6.5804,-6.5804,-6.5804,-6.5804,-6.5804,-6.5804,-6.5804,-6.5804,-6.6207,-6.6577,-6.7006,-6.7415,-6.7755,-6.8171,-6.8171,-6.8171,-6.8171,-6.8171,-6.7982,-6.7684,-6.8102,-6.8102,-6.786,-6.8222,-6.8457,-6.8506,-6.8506,-6.8506,-6.8506,-6.8506,-6.8506,-6.8506,-6.8506,-6.8506,-6.8506,-6.8506,-6.8506,-6.8506,-6.8506,-6.8506,-6.8506,-6.8506,-6.8506,-6.8506,-6.8506,-6.8506,-6.8506,-6.8506,-6.8506,-6.8506,-6.8506,-6.8506,-6.8506,-6.8506,-6.8506,-6.8506,-6.8506,-6.8506,-6.8506,-6.8506,-6.8506,-6.8506,-6.8506,-6.8506,-6.8506,-6.8506,-6.8506,-6.8506,-6.8506,-6.8506,-6.8506,-6.8506,-6.8506,-6.8506,-6.8506,-6.8506,-6.8506,-6.8506,-6.8892,-6.9097,-6.9141,-6.9141,-6.9251,-6.946,-6.946,-6.9601,-6.9834,-6.9834,-6.9853,-6.9891,-6.9891,-6.9891,-6.9891,-6.9891,-6.9891,-6.9891,-6.4057,-6.4182,-6.4463,-6.5061,-6.526,-6.5427,-6.574,-6.5804,-6.5804,-6.5804,-6.5804,-6.5804,-6.5804,-6.5804,-6.5804,-6.5804,-6.5804,-6.5804,-6.5804,-6.5804,-6.5804,-6.5804,-6.5804,-6.5804,-6.5804,-6.5804,-6.5804,-6.5804,-6.585,-6.6146,-6.6595,-6.6655,-6.6714,-6.6772,-6.6772,-6.6772,-6.6772,-6.6772,-6.691,-6.7231,-6.7286,-6.7505,-6.7807,-6.786,-6.8153,-6.8506,-6.8506,-6.8506,-6.8506,-6.8506,-6.8506,-6.8506,-6.8506,-6.8506,-6.8506,-6.8506,-6.8506,-6.8506,-6.8506,-6.8506,-6.8506,-6.8506,-6.8506,-6.8506,-6.8506,-6.8506,-6.8506,-6.8506,-6.8506,-6.8506,-6.8506,-6.8506,-6.8506,-6.8506,-6.8506,-6.8506,-6.8506,-6.8506,-6.8506,-6.8506,-6.8506,-6.8506,-6.8506,-6.8506,-6.8506,-6.8506,-6.8506,-6.8506,-6.8506,-6.8506,-6.8506,-6.8506,-6.8506,-6.8506,-6.8506,-6.8506,-6.8506,-6.8506,-6.8554,-6.8707,-6.8836,-6.8836,-6.899,-6.9228,-6.9228,-6.9355,-6.9542,-6.9542,-6.9699,-6.9891,-6.9891,-6.9891,-6.9891,-6.9891,-6.9891,-6.9891,-6.3785,-6.3985,-6.4182,-6.4515,-6.4926,-6.5278,-6.5427,-6.5657,-6.5804,-6.5804,-6.5804,-6.5804,-6.5804,-6.5804,-6.5804,-6.5804,-6.5804,-6.5804,-6.5804,-6.5804,-6.5804,-6.5804,-6.5804,-6.5804,-6.5804,-6.5804,-6.5804,-6.5804,-6.5804,-6.6021,-6.6476,-6.6476,-6.6655,-6.6852,-6.6852,-6.6852,-6.6852,-6.6852,-6.6794,-6.6794,-6.7006,-6.7231,-6.7451,-6.7684,-6.8102,-6.8506,-6.8506,-6.8506,-6.8506,-6.8506,-6.8506,-6.8506,-6.8506,-6.8506,-6.8506,-6.8506,-6.8506,-6.8506,-6.8506,-6.8506,-6.8506,-6.8506,-6.8506,-6.8506,-6.8506,-6.8506,-6.8506,-6.8506,-6.8506,-6.8506,-6.8506,-6.8506,-6.8506,-6.8506,-6.8506,-6.8506,-6.8506,-6.8506,-6.8506,-6.8506,-6.8506,-6.8506,-6.8506,-6.8506,-6.8506,-6.8506,-6.8506,-6.8506,-6.8506,-6.8506,-6.8506,-6.8506,-6.8506,-6.8506,-6.8506,-6.8506,-6.8506,-6.8506,-6.8506,-6.8554,-6.8613,-6.8613,-6.8735,-6.899,-6.899,-6.9122,-6.9336,-6.9336,-6.9479,-6.9699,-6.9699,-6.9796,-6.9891,-6.9891,-6.9891,-6.9891]}]]